<?xml version="1.0" encoding="UTF-8" standalone="no" ?>
<gpx xmlns="http://www.topografix.com/GPX/1/1" xmlns:xsi="http://www.w3.org/2001/XMLSchema-instance" xsi:schemaLocation="http://www.topografix.com/GPX/1/1 http://www.topografix.com/GPX/1/1/gpx.xsd" version="1.1" creator="VisuGPX - https://www.visugpx.com">
  <metadata>
    <name>2025-(Valromey) Ruffieu-Brenod Étape 1</name>
    <desc><![CDATA[Au départ de Ruffieu.
Étape un peu raide🥵.
Arrivée au centre équestre de la Maurinière à Brenod.
]]></desc>
  </metadata>
  <trk>
    <name><![CDATA[SityTrail - 2925 ruffieu J1]]></name>
    <trkseg>
      <trkpt lat="45.99181" lon="5.66119">
        <ele>724</ele>
        <time>2025-07-12T11:40:48.706Z</time>
      </trkpt>
      <trkpt lat="45.99181" lon="5.66119">
        <ele>724</ele>
        <time>2025-07-12T11:40:49.651Z</time>
      </trkpt>
      <trkpt lat="45.9918" lon="5.66123">
        <ele>723</ele>
        <time>2025-07-12T11:40:53.757Z</time>
      </trkpt>
      <trkpt lat="45.99179" lon="5.66126">
        <ele>721</ele>
        <time>2025-07-12T11:40:57.754Z</time>
      </trkpt>
      <trkpt lat="45.99176" lon="5.66126">
        <ele>721</ele>
        <time>2025-07-12T11:41:01.874Z</time>
      </trkpt>
      <trkpt lat="45.99176" lon="5.66131">
        <ele>721</ele>
        <time>2025-07-12T11:41:06.474Z</time>
      </trkpt>
      <trkpt lat="45.99175" lon="5.66142">
        <ele>721</ele>
        <time>2025-07-12T11:41:11.555Z</time>
      </trkpt>
      <trkpt lat="45.99177" lon="5.66151">
        <ele>721</ele>
        <time>2025-07-12T11:41:16.095Z</time>
      </trkpt>
      <trkpt lat="45.9918" lon="5.66158">
        <ele>718</ele>
        <time>2025-07-12T11:41:20.194Z</time>
      </trkpt>
      <trkpt lat="45.99182" lon="5.66164">
        <ele>717</ele>
        <time>2025-07-12T11:41:24.416Z</time>
      </trkpt>
      <trkpt lat="45.99186" lon="5.66164">
        <ele>717</ele>
        <time>2025-07-12T11:41:29.535Z</time>
      </trkpt>
      <trkpt lat="45.9919" lon="5.66159">
        <ele>717</ele>
        <time>2025-07-12T11:41:33.744Z</time>
      </trkpt>
      <trkpt lat="45.99194" lon="5.66154">
        <ele>717</ele>
        <time>2025-07-12T11:41:38.533Z</time>
      </trkpt>
      <trkpt lat="45.99197" lon="5.66151">
        <ele>721</ele>
        <time>2025-07-12T11:41:42.553Z</time>
      </trkpt>
      <trkpt lat="45.99202" lon="5.66146">
        <ele>721</ele>
        <time>2025-07-12T11:42:48.765Z</time>
      </trkpt>
      <trkpt lat="45.99202" lon="5.6615">
        <ele>721</ele>
        <time>2025-07-12T11:42:54.397Z</time>
      </trkpt>
      <trkpt lat="45.99204" lon="5.66148">
        <ele>721</ele>
        <time>2025-07-12T11:42:59.076Z</time>
      </trkpt>
      <trkpt lat="45.99212" lon="5.66149">
        <ele>720</ele>
        <time>2025-07-12T11:43:03.767Z</time>
      </trkpt>
      <trkpt lat="45.99218" lon="5.66146">
        <ele>720</ele>
        <time>2025-07-12T11:43:08.116Z</time>
      </trkpt>
      <trkpt lat="45.99223" lon="5.66147">
        <ele>720</ele>
        <time>2025-07-12T11:43:12.747Z</time>
      </trkpt>
      <trkpt lat="45.99228" lon="5.66145">
        <ele>720</ele>
        <time>2025-07-12T11:43:16.955Z</time>
      </trkpt>
      <trkpt lat="45.99233" lon="5.66147">
        <ele>720</ele>
        <time>2025-07-12T11:43:21.396Z</time>
      </trkpt>
      <trkpt lat="45.99239" lon="5.66149">
        <ele>720</ele>
        <time>2025-07-12T11:43:25.994Z</time>
      </trkpt>
      <trkpt lat="45.99243" lon="5.66153">
        <ele>718</ele>
        <time>2025-07-12T11:43:30.138Z</time>
      </trkpt>
      <trkpt lat="45.99248" lon="5.66157">
        <ele>718</ele>
        <time>2025-07-12T11:43:34.759Z</time>
      </trkpt>
      <trkpt lat="45.99253" lon="5.66157">
        <ele>718</ele>
        <time>2025-07-12T11:43:39.396Z</time>
      </trkpt>
      <trkpt lat="45.99258" lon="5.6616">
        <ele>718</ele>
        <time>2025-07-12T11:43:43.436Z</time>
      </trkpt>
      <trkpt lat="45.99262" lon="5.66165">
        <ele>718</ele>
        <time>2025-07-12T11:43:47.758Z</time>
      </trkpt>
      <trkpt lat="45.99267" lon="5.66165">
        <ele>720</ele>
        <time>2025-07-12T11:43:51.955Z</time>
      </trkpt>
      <trkpt lat="45.99271" lon="5.66157">
        <ele>720</ele>
        <time>2025-07-12T11:43:56.114Z</time>
      </trkpt>
      <trkpt lat="45.99272" lon="5.66148">
        <ele>722</ele>
        <time>2025-07-12T11:44:00.635Z</time>
      </trkpt>
      <trkpt lat="45.99272" lon="5.6614">
        <ele>722</ele>
        <time>2025-07-12T11:44:04.744Z</time>
      </trkpt>
      <trkpt lat="45.99273" lon="5.66133">
        <ele>722</ele>
        <time>2025-07-12T11:44:08.756Z</time>
      </trkpt>
      <trkpt lat="45.99273" lon="5.66127">
        <ele>722</ele>
        <time>2025-07-12T11:44:13.115Z</time>
      </trkpt>
      <trkpt lat="45.99273" lon="5.66119">
        <ele>727</ele>
        <time>2025-07-12T11:44:17.413Z</time>
      </trkpt>
      <trkpt lat="45.99275" lon="5.66113">
        <ele>727</ele>
        <time>2025-07-12T11:44:21.495Z</time>
      </trkpt>
      <trkpt lat="45.99276" lon="5.66108">
        <ele>727</ele>
        <time>2025-07-12T11:44:25.533Z</time>
      </trkpt>
      <trkpt lat="45.99276" lon="5.66106">
        <ele>727</ele>
        <time>2025-07-12T11:44:30.217Z</time>
      </trkpt>
      <trkpt lat="45.99279" lon="5.66099">
        <ele>727</ele>
        <time>2025-07-12T11:44:34.692Z</time>
      </trkpt>
      <trkpt lat="45.99281" lon="5.66093">
        <ele>731</ele>
        <time>2025-07-12T11:44:39.073Z</time>
      </trkpt>
      <trkpt lat="45.99283" lon="5.66088">
        <ele>731</ele>
        <time>2025-07-12T11:44:43.212Z</time>
      </trkpt>
      <trkpt lat="45.99284" lon="5.66082">
        <ele>731</ele>
        <time>2025-07-12T11:44:47.333Z</time>
      </trkpt>
      <trkpt lat="45.99284" lon="5.66073">
        <ele>731</ele>
        <time>2025-07-12T11:44:51.613Z</time>
      </trkpt>
      <trkpt lat="45.99287" lon="5.66067">
        <ele>735</ele>
        <time>2025-07-12T11:44:56.155Z</time>
      </trkpt>
      <trkpt lat="45.99288" lon="5.66061">
        <ele>735</ele>
        <time>2025-07-12T11:45:00.230Z</time>
      </trkpt>
      <trkpt lat="45.9929" lon="5.66055">
        <ele>735</ele>
        <time>2025-07-12T11:45:04.511Z</time>
      </trkpt>
      <trkpt lat="45.99292" lon="5.6605">
        <ele>736</ele>
        <time>2025-07-12T11:45:09.070Z</time>
      </trkpt>
      <trkpt lat="45.99299" lon="5.66041">
        <ele>741</ele>
        <time>2025-07-12T11:45:59.718Z</time>
      </trkpt>
      <trkpt lat="45.99299" lon="5.66041">
        <ele>741</ele>
        <time>2025-07-12T11:46:04.708Z</time>
      </trkpt>
      <trkpt lat="45.99301" lon="5.66042">
        <ele>736</ele>
        <time>2025-07-12T11:46:09.712Z</time>
      </trkpt>
      <trkpt lat="45.993" lon="5.6604">
        <ele>741</ele>
        <time>2025-07-12T11:46:14.335Z</time>
      </trkpt>
      <trkpt lat="45.99306" lon="5.6603">
        <ele>741</ele>
        <time>2025-07-12T11:46:18.753Z</time>
      </trkpt>
      <trkpt lat="45.99308" lon="5.66024">
        <ele>741</ele>
        <time>2025-07-12T11:46:22.765Z</time>
      </trkpt>
      <trkpt lat="45.99309" lon="5.66014">
        <ele>741</ele>
        <time>2025-07-12T11:46:27.757Z</time>
      </trkpt>
      <trkpt lat="45.99309" lon="5.66008">
        <ele>745</ele>
        <time>2025-07-12T11:46:32.275Z</time>
      </trkpt>
      <trkpt lat="45.99309" lon="5.66007">
        <ele>745</ele>
        <time>2025-07-12T11:46:36.757Z</time>
      </trkpt>
      <trkpt lat="45.9931" lon="5.66004">
        <ele>745</ele>
        <time>2025-07-12T11:51:12.759Z</time>
      </trkpt>
      <trkpt lat="45.99309" lon="5.66002">
        <ele>745</ele>
        <time>2025-07-12T11:51:16.759Z</time>
      </trkpt>
      <trkpt lat="45.9931" lon="5.65997">
        <ele>745</ele>
        <time>2025-07-12T11:51:21.751Z</time>
      </trkpt>
      <trkpt lat="45.99314" lon="5.65986">
        <ele>747</ele>
        <time>2025-07-12T11:51:26.752Z</time>
      </trkpt>
      <trkpt lat="45.99315" lon="5.65978">
        <ele>747</ele>
        <time>2025-07-12T11:51:30.759Z</time>
      </trkpt>
      <trkpt lat="45.99317" lon="5.65973">
        <ele>747</ele>
        <time>2025-07-12T11:51:34.757Z</time>
      </trkpt>
      <trkpt lat="45.99318" lon="5.65966">
        <ele>747</ele>
        <time>2025-07-12T11:51:39.756Z</time>
      </trkpt>
      <trkpt lat="45.99319" lon="5.65957">
        <ele>752</ele>
        <time>2025-07-12T11:51:44.749Z</time>
      </trkpt>
      <trkpt lat="45.9932" lon="5.65952">
        <ele>756</ele>
        <time>2025-07-12T11:51:48.760Z</time>
      </trkpt>
      <trkpt lat="45.99321" lon="5.65951">
        <ele>756</ele>
        <time>2025-07-12T11:52:11.756Z</time>
      </trkpt>
      <trkpt lat="45.99322" lon="5.65948">
        <ele>756</ele>
        <time>2025-07-12T11:52:16.750Z</time>
      </trkpt>
      <trkpt lat="45.99321" lon="5.65947">
        <ele>756</ele>
        <time>2025-07-12T11:52:21.752Z</time>
      </trkpt>
      <trkpt lat="45.99321" lon="5.65939">
        <ele>756</ele>
        <time>2025-07-12T11:52:25.761Z</time>
      </trkpt>
      <trkpt lat="45.99321" lon="5.65931">
        <ele>756</ele>
        <time>2025-07-12T11:52:30.758Z</time>
      </trkpt>
      <trkpt lat="45.9932" lon="5.65922">
        <ele>759</ele>
        <time>2025-07-12T11:52:35.593Z</time>
      </trkpt>
      <trkpt lat="45.99323" lon="5.65913">
        <ele>759</ele>
        <time>2025-07-12T11:52:39.751Z</time>
      </trkpt>
      <trkpt lat="45.99323" lon="5.65905">
        <ele>759</ele>
        <time>2025-07-12T11:52:44.373Z</time>
      </trkpt>
      <trkpt lat="45.99323" lon="5.65897">
        <ele>761</ele>
        <time>2025-07-12T11:52:48.755Z</time>
      </trkpt>
      <trkpt lat="45.99324" lon="5.65889">
        <ele>761</ele>
        <time>2025-07-12T11:52:52.751Z</time>
      </trkpt>
      <trkpt lat="45.99324" lon="5.6588">
        <ele>761</ele>
        <time>2025-07-12T11:52:57.749Z</time>
      </trkpt>
      <trkpt lat="45.99323" lon="5.65872">
        <ele>763</ele>
        <time>2025-07-12T11:53:02.696Z</time>
      </trkpt>
      <trkpt lat="45.99326" lon="5.65867">
        <ele>763</ele>
        <time>2025-07-12T11:53:07.754Z</time>
      </trkpt>
      <trkpt lat="45.99327" lon="5.65863">
        <ele>763</ele>
        <time>2025-07-12T11:53:49.758Z</time>
      </trkpt>
      <trkpt lat="45.99327" lon="5.65862">
        <ele>763</ele>
        <time>2025-07-12T11:53:54.141Z</time>
      </trkpt>
      <trkpt lat="45.99327" lon="5.6586">
        <ele>763</ele>
        <time>2025-07-12T11:53:59.073Z</time>
      </trkpt>
      <trkpt lat="45.99325" lon="5.65858">
        <ele>763</ele>
        <time>2025-07-12T11:54:03.713Z</time>
      </trkpt>
      <trkpt lat="45.99324" lon="5.65847">
        <ele>768</ele>
        <time>2025-07-12T11:54:07.712Z</time>
      </trkpt>
      <trkpt lat="45.99322" lon="5.65837">
        <ele>768</ele>
        <time>2025-07-12T11:54:11.975Z</time>
      </trkpt>
      <trkpt lat="45.99321" lon="5.6583">
        <ele>768</ele>
        <time>2025-07-12T11:54:15.974Z</time>
      </trkpt>
      <trkpt lat="45.9932" lon="5.65825">
        <ele>768</ele>
        <time>2025-07-12T11:54:20.452Z</time>
      </trkpt>
      <trkpt lat="45.99319" lon="5.65818">
        <ele>773</ele>
        <time>2025-07-12T11:54:24.742Z</time>
      </trkpt>
      <trkpt lat="45.99319" lon="5.65809">
        <ele>773</ele>
        <time>2025-07-12T11:55:14.713Z</time>
      </trkpt>
      <trkpt lat="45.99319" lon="5.65808">
        <ele>773</ele>
        <time>2025-07-12T11:55:19.753Z</time>
      </trkpt>
      <trkpt lat="45.99318" lon="5.658">
        <ele>773</ele>
        <time>2025-07-12T11:55:23.742Z</time>
      </trkpt>
      <trkpt lat="45.99316" lon="5.65784">
        <ele>778</ele>
        <time>2025-07-12T11:55:28.671Z</time>
      </trkpt>
      <trkpt lat="45.99322" lon="5.65773">
        <ele>780</ele>
        <time>2025-07-12T11:55:33.229Z</time>
      </trkpt>
      <trkpt lat="45.99327" lon="5.65761">
        <ele>787</ele>
        <time>2025-07-12T11:55:46.765Z</time>
      </trkpt>
      <trkpt lat="45.99326" lon="5.65761">
        <ele>787</ele>
        <time>2025-07-12T11:55:51.750Z</time>
      </trkpt>
      <trkpt lat="45.99326" lon="5.6576">
        <ele>787</ele>
        <time>2025-07-12T11:55:56.499Z</time>
      </trkpt>
      <trkpt lat="45.99326" lon="5.65757">
        <ele>787</ele>
        <time>2025-07-12T11:56:01.158Z</time>
      </trkpt>
      <trkpt lat="45.99331" lon="5.65747">
        <ele>787</ele>
        <time>2025-07-12T11:56:05.219Z</time>
      </trkpt>
      <trkpt lat="45.99331" lon="5.6574">
        <ele>787</ele>
        <time>2025-07-12T11:56:48.699Z</time>
      </trkpt>
      <trkpt lat="45.99331" lon="5.6574">
        <ele>787</ele>
        <time>2025-07-12T11:56:53.454Z</time>
      </trkpt>
      <trkpt lat="45.99334" lon="5.65741">
        <ele>787</ele>
        <time>2025-07-12T11:56:58.593Z</time>
      </trkpt>
      <trkpt lat="45.99338" lon="5.65739">
        <ele>787</ele>
        <time>2025-07-12T11:57:03.053Z</time>
      </trkpt>
      <trkpt lat="45.99342" lon="5.65739">
        <ele>787</ele>
        <time>2025-07-12T11:57:07.333Z</time>
      </trkpt>
      <trkpt lat="45.99348" lon="5.65742">
        <ele>790</ele>
        <time>2025-07-12T11:57:11.758Z</time>
      </trkpt>
      <trkpt lat="45.99352" lon="5.65743">
        <ele>790</ele>
        <time>2025-07-12T11:57:16.755Z</time>
      </trkpt>
      <trkpt lat="45.99353" lon="5.65743">
        <ele>790</ele>
        <time>2025-07-12T11:57:20.761Z</time>
      </trkpt>
      <trkpt lat="45.99358" lon="5.65746">
        <ele>790</ele>
        <time>2025-07-12T11:57:25.211Z</time>
      </trkpt>
      <trkpt lat="45.99364" lon="5.65743">
        <ele>790</ele>
        <time>2025-07-12T11:57:29.689Z</time>
      </trkpt>
      <trkpt lat="45.99366" lon="5.65744">
        <ele>790</ele>
        <time>2025-07-12T11:57:33.932Z</time>
      </trkpt>
      <trkpt lat="45.99371" lon="5.65748">
        <ele>790</ele>
        <time>2025-07-12T11:57:38.130Z</time>
      </trkpt>
      <trkpt lat="45.99374" lon="5.65747">
        <ele>790</ele>
        <time>2025-07-12T11:57:42.410Z</time>
      </trkpt>
      <trkpt lat="45.99368" lon="5.65745">
        <ele>790</ele>
        <time>2025-07-12T11:57:46.571Z</time>
      </trkpt>
      <trkpt lat="45.99363" lon="5.65747">
        <ele>790</ele>
        <time>2025-07-12T11:57:50.631Z</time>
      </trkpt>
      <trkpt lat="45.99358" lon="5.65747">
        <ele>790</ele>
        <time>2025-07-12T11:57:54.739Z</time>
      </trkpt>
      <trkpt lat="45.99353" lon="5.65746">
        <ele>790</ele>
        <time>2025-07-12T11:57:59.379Z</time>
      </trkpt>
      <trkpt lat="45.9935" lon="5.65747">
        <ele>790</ele>
        <time>2025-07-12T11:58:03.419Z</time>
      </trkpt>
      <trkpt lat="45.99345" lon="5.65747">
        <ele>787</ele>
        <time>2025-07-12T11:58:07.658Z</time>
      </trkpt>
      <trkpt lat="45.9934" lon="5.65743">
        <ele>787</ele>
        <time>2025-07-12T11:58:12.696Z</time>
      </trkpt>
      <trkpt lat="45.99336" lon="5.65741">
        <ele>787</ele>
        <time>2025-07-12T11:58:16.764Z</time>
      </trkpt>
      <trkpt lat="45.99333" lon="5.65741">
        <ele>787</ele>
        <time>2025-07-12T12:00:38.738Z</time>
      </trkpt>
      <trkpt lat="45.99338" lon="5.65741">
        <ele>787</ele>
        <time>2025-07-12T12:00:42.755Z</time>
      </trkpt>
      <trkpt lat="45.99344" lon="5.65744">
        <ele>787</ele>
        <time>2025-07-12T12:00:47.740Z</time>
      </trkpt>
      <trkpt lat="45.99348" lon="5.65744">
        <ele>790</ele>
        <time>2025-07-12T12:00:51.747Z</time>
      </trkpt>
      <trkpt lat="45.99352" lon="5.65746">
        <ele>790</ele>
        <time>2025-07-12T12:00:56.374Z</time>
      </trkpt>
      <trkpt lat="45.99356" lon="5.65746">
        <ele>790</ele>
        <time>2025-07-12T12:01:41.753Z</time>
      </trkpt>
      <trkpt lat="45.99357" lon="5.65745">
        <ele>790</ele>
        <time>2025-07-12T12:01:46.744Z</time>
      </trkpt>
      <trkpt lat="45.99357" lon="5.65746">
        <ele>790</ele>
        <time>2025-07-12T12:01:51.745Z</time>
      </trkpt>
      <trkpt lat="45.99359" lon="5.65747">
        <ele>790</ele>
        <time>2025-07-12T12:01:56.579Z</time>
      </trkpt>
      <trkpt lat="45.99363" lon="5.6575">
        <ele>790</ele>
        <time>2025-07-12T12:02:00.754Z</time>
      </trkpt>
      <trkpt lat="45.99369" lon="5.65749">
        <ele>790</ele>
        <time>2025-07-12T12:02:49.711Z</time>
      </trkpt>
      <trkpt lat="45.99369" lon="5.65749">
        <ele>790</ele>
        <time>2025-07-12T12:02:53.708Z</time>
      </trkpt>
      <trkpt lat="45.9937" lon="5.65749">
        <ele>790</ele>
        <time>2025-07-12T12:02:58.704Z</time>
      </trkpt>
      <trkpt lat="45.9937" lon="5.65749">
        <ele>790</ele>
        <time>2025-07-12T12:03:08.715Z</time>
      </trkpt>
      <trkpt lat="45.99373" lon="5.65749">
        <ele>790</ele>
        <time>2025-07-12T12:03:12.758Z</time>
      </trkpt>
      <trkpt lat="45.99378" lon="5.65749">
        <ele>795</ele>
        <time>2025-07-12T12:03:16.746Z</time>
      </trkpt>
      <trkpt lat="45.99383" lon="5.65747">
        <ele>795</ele>
        <time>2025-07-12T12:03:21.748Z</time>
      </trkpt>
      <trkpt lat="45.99388" lon="5.65745">
        <ele>795</ele>
        <time>2025-07-12T12:03:25.739Z</time>
      </trkpt>
      <trkpt lat="45.99393" lon="5.65744">
        <ele>795</ele>
        <time>2025-07-12T12:03:29.768Z</time>
      </trkpt>
      <trkpt lat="45.99401" lon="5.65743">
        <ele>795</ele>
        <time>2025-07-12T12:03:34.760Z</time>
      </trkpt>
      <trkpt lat="45.99405" lon="5.65743">
        <ele>799</ele>
        <time>2025-07-12T12:03:39.747Z</time>
      </trkpt>
      <trkpt lat="45.99409" lon="5.65744">
        <ele>799</ele>
        <time>2025-07-12T12:03:44.751Z</time>
      </trkpt>
      <trkpt lat="45.99412" lon="5.65744">
        <ele>799</ele>
        <time>2025-07-12T12:03:48.755Z</time>
      </trkpt>
      <trkpt lat="45.99417" lon="5.65743">
        <ele>799</ele>
        <time>2025-07-12T12:03:53.750Z</time>
      </trkpt>
      <trkpt lat="45.9942" lon="5.65742">
        <ele>799</ele>
        <time>2025-07-12T12:03:57.760Z</time>
      </trkpt>
      <trkpt lat="45.99425" lon="5.65739">
        <ele>799</ele>
        <time>2025-07-12T12:04:02.752Z</time>
      </trkpt>
      <trkpt lat="45.99425" lon="5.65738">
        <ele>799</ele>
        <time>2025-07-12T12:04:06.755Z</time>
      </trkpt>
      <trkpt lat="45.99428" lon="5.6574">
        <ele>799</ele>
        <time>2025-07-12T12:04:11.753Z</time>
      </trkpt>
      <trkpt lat="45.99431" lon="5.65741">
        <ele>803</ele>
        <time>2025-07-12T12:04:15.749Z</time>
      </trkpt>
      <trkpt lat="45.99438" lon="5.65743">
        <ele>803</ele>
        <time>2025-07-12T12:04:19.750Z</time>
      </trkpt>
      <trkpt lat="45.99443" lon="5.65747">
        <ele>803</ele>
        <time>2025-07-12T12:04:24.753Z</time>
      </trkpt>
      <trkpt lat="45.99448" lon="5.6575">
        <ele>803</ele>
        <time>2025-07-12T12:04:29.759Z</time>
      </trkpt>
      <trkpt lat="45.99452" lon="5.65752">
        <ele>803</ele>
        <time>2025-07-12T12:04:34.752Z</time>
      </trkpt>
      <trkpt lat="45.99455" lon="5.65754">
        <ele>803</ele>
        <time>2025-07-12T12:04:39.761Z</time>
      </trkpt>
      <trkpt lat="45.99456" lon="5.65755">
        <ele>803</ele>
        <time>2025-07-12T12:04:44.765Z</time>
      </trkpt>
      <trkpt lat="45.99456" lon="5.65755">
        <ele>803</ele>
        <time>2025-07-12T12:04:48.751Z</time>
      </trkpt>
      <trkpt lat="45.99457" lon="5.65755">
        <ele>803</ele>
        <time>2025-07-12T12:04:53.751Z</time>
      </trkpt>
      <trkpt lat="45.99459" lon="5.65757">
        <ele>805</ele>
        <time>2025-07-12T12:04:57.753Z</time>
      </trkpt>
      <trkpt lat="45.99465" lon="5.65759">
        <ele>805</ele>
        <time>2025-07-12T12:05:02.758Z</time>
      </trkpt>
      <trkpt lat="45.99472" lon="5.6576">
        <ele>805</ele>
        <time>2025-07-12T12:05:07.751Z</time>
      </trkpt>
      <trkpt lat="45.99481" lon="5.65758">
        <ele>805</ele>
        <time>2025-07-12T12:05:50.693Z</time>
      </trkpt>
      <trkpt lat="45.99481" lon="5.65759">
        <ele>805</ele>
        <time>2025-07-12T12:05:55.702Z</time>
      </trkpt>
      <trkpt lat="45.99481" lon="5.65759">
        <ele>805</ele>
        <time>2025-07-12T12:05:59.706Z</time>
      </trkpt>
      <trkpt lat="45.99483" lon="5.65758">
        <ele>805</ele>
        <time>2025-07-12T12:06:03.703Z</time>
      </trkpt>
      <trkpt lat="45.99486" lon="5.65756">
        <ele>805</ele>
        <time>2025-07-12T12:06:07.741Z</time>
      </trkpt>
      <trkpt lat="45.99486" lon="5.65756">
        <ele>806</ele>
        <time>2025-07-12T12:06:12.742Z</time>
      </trkpt>
      <trkpt lat="45.9949" lon="5.65756">
        <ele>806</ele>
        <time>2025-07-12T12:06:16.750Z</time>
      </trkpt>
      <trkpt lat="45.99497" lon="5.65756">
        <ele>806</ele>
        <time>2025-07-12T12:06:21.746Z</time>
      </trkpt>
      <trkpt lat="45.99503" lon="5.65759">
        <ele>806</ele>
        <time>2025-07-12T12:06:26.748Z</time>
      </trkpt>
      <trkpt lat="45.9951" lon="5.65761">
        <ele>806</ele>
        <time>2025-07-12T12:06:36.746Z</time>
      </trkpt>
      <trkpt lat="45.99515" lon="5.65764">
        <ele>807</ele>
        <time>2025-07-12T12:06:41.752Z</time>
      </trkpt>
      <trkpt lat="45.99517" lon="5.65764">
        <ele>803</ele>
        <time>2025-07-12T12:06:46.749Z</time>
      </trkpt>
      <trkpt lat="45.99518" lon="5.65764">
        <ele>803</ele>
        <time>2025-07-12T12:06:50.744Z</time>
      </trkpt>
      <trkpt lat="45.99525" lon="5.6576">
        <ele>807</ele>
        <time>2025-07-12T12:06:55.752Z</time>
      </trkpt>
      <trkpt lat="45.99535" lon="5.65755">
        <ele>807</ele>
        <time>2025-07-12T12:07:00.738Z</time>
      </trkpt>
      <trkpt lat="45.99538" lon="5.65752">
        <ele>807</ele>
        <time>2025-07-12T12:07:04.744Z</time>
      </trkpt>
      <trkpt lat="45.99542" lon="5.65746">
        <ele>807</ele>
        <time>2025-07-12T12:07:08.750Z</time>
      </trkpt>
      <trkpt lat="45.99545" lon="5.65742">
        <ele>808</ele>
        <time>2025-07-12T12:07:13.757Z</time>
      </trkpt>
      <trkpt lat="45.99546" lon="5.65742">
        <ele>808</ele>
        <time>2025-07-12T12:07:18.757Z</time>
      </trkpt>
      <trkpt lat="45.99547" lon="5.65741">
        <ele>808</ele>
        <time>2025-07-12T12:07:23.749Z</time>
      </trkpt>
      <trkpt lat="45.99549" lon="5.65739">
        <ele>808</ele>
        <time>2025-07-12T12:07:28.732Z</time>
      </trkpt>
      <trkpt lat="45.99554" lon="5.65746">
        <ele>808</ele>
        <time>2025-07-12T12:07:33.739Z</time>
      </trkpt>
      <trkpt lat="45.99557" lon="5.65752">
        <ele>808</ele>
        <time>2025-07-12T12:07:37.752Z</time>
      </trkpt>
      <trkpt lat="45.9956" lon="5.65758">
        <ele>808</ele>
        <time>2025-07-12T12:07:42.751Z</time>
      </trkpt>
      <trkpt lat="45.99562" lon="5.6576">
        <ele>808</ele>
        <time>2025-07-12T12:07:47.742Z</time>
      </trkpt>
      <trkpt lat="45.99563" lon="5.65761">
        <ele>808</ele>
        <time>2025-07-12T12:07:53.748Z</time>
      </trkpt>
      <trkpt lat="45.99565" lon="5.65765">
        <ele>802</ele>
        <time>2025-07-12T12:07:57.744Z</time>
      </trkpt>
      <trkpt lat="45.9957" lon="5.6576">
        <ele>807</ele>
        <time>2025-07-12T12:08:02.748Z</time>
      </trkpt>
      <trkpt lat="45.99573" lon="5.65758">
        <ele>807</ele>
        <time>2025-07-12T12:08:07.748Z</time>
      </trkpt>
      <trkpt lat="45.99578" lon="5.65756">
        <ele>807</ele>
        <time>2025-07-12T12:08:11.757Z</time>
      </trkpt>
      <trkpt lat="45.99586" lon="5.65753">
        <ele>807</ele>
        <time>2025-07-12T12:08:16.751Z</time>
      </trkpt>
      <trkpt lat="45.99592" lon="5.65754">
        <ele>807</ele>
        <time>2025-07-12T12:08:21.751Z</time>
      </trkpt>
      <trkpt lat="45.996" lon="5.65756">
        <ele>809</ele>
        <time>2025-07-12T12:08:26.752Z</time>
      </trkpt>
      <trkpt lat="45.99606" lon="5.6576">
        <ele>809</ele>
        <time>2025-07-12T12:08:31.751Z</time>
      </trkpt>
      <trkpt lat="45.99612" lon="5.65763">
        <ele>809</ele>
        <time>2025-07-12T12:08:36.756Z</time>
      </trkpt>
      <trkpt lat="45.99625" lon="5.65758">
        <ele>809</ele>
        <time>2025-07-12T12:09:28.691Z</time>
      </trkpt>
      <trkpt lat="45.99625" lon="5.65758">
        <ele>812</ele>
        <time>2025-07-12T12:09:33.727Z</time>
      </trkpt>
      <trkpt lat="45.99628" lon="5.65758">
        <ele>812</ele>
        <time>2025-07-12T12:09:37.731Z</time>
      </trkpt>
      <trkpt lat="45.99631" lon="5.65759">
        <ele>812</ele>
        <time>2025-07-12T12:09:41.753Z</time>
      </trkpt>
      <trkpt lat="45.99633" lon="5.6576">
        <ele>812</ele>
        <time>2025-07-12T12:09:46.753Z</time>
      </trkpt>
      <trkpt lat="45.99634" lon="5.65767">
        <ele>807</ele>
        <time>2025-07-12T12:12:06.750Z</time>
      </trkpt>
      <trkpt lat="45.99635" lon="5.65767">
        <ele>807</ele>
        <time>2025-07-12T12:12:11.398Z</time>
      </trkpt>
      <trkpt lat="45.99636" lon="5.65768">
        <ele>807</ele>
        <time>2025-07-12T12:12:15.739Z</time>
      </trkpt>
      <trkpt lat="45.99637" lon="5.65768">
        <ele>807</ele>
        <time>2025-07-12T12:12:20.741Z</time>
      </trkpt>
      <trkpt lat="45.99642" lon="5.65769">
        <ele>807</ele>
        <time>2025-07-12T12:12:25.277Z</time>
      </trkpt>
      <trkpt lat="45.99644" lon="5.6577">
        <ele>807</ele>
        <time>2025-07-12T12:12:42.712Z</time>
      </trkpt>
      <trkpt lat="45.99645" lon="5.6577">
        <ele>807</ele>
        <time>2025-07-12T12:12:46.748Z</time>
      </trkpt>
      <trkpt lat="45.99649" lon="5.6577">
        <ele>807</ele>
        <time>2025-07-12T12:12:51.698Z</time>
      </trkpt>
      <trkpt lat="45.99652" lon="5.6577">
        <ele>807</ele>
        <time>2025-07-12T12:12:55.877Z</time>
      </trkpt>
      <trkpt lat="45.99659" lon="5.65769">
        <ele>808</ele>
        <time>2025-07-12T12:13:00.556Z</time>
      </trkpt>
      <trkpt lat="45.99666" lon="5.65771">
        <ele>808</ele>
        <time>2025-07-12T12:13:04.731Z</time>
      </trkpt>
      <trkpt lat="45.99673" lon="5.65771">
        <ele>808</ele>
        <time>2025-07-12T12:13:09.293Z</time>
      </trkpt>
      <trkpt lat="45.99679" lon="5.65772">
        <ele>808</ele>
        <time>2025-07-12T12:13:13.730Z</time>
      </trkpt>
      <trkpt lat="45.99684" lon="5.6577">
        <ele>809</ele>
        <time>2025-07-12T12:13:18.291Z</time>
      </trkpt>
      <trkpt lat="45.99688" lon="5.65767">
        <ele>809</ele>
        <time>2025-07-12T12:14:07.401Z</time>
      </trkpt>
      <trkpt lat="45.9969" lon="5.65768">
        <ele>809</ele>
        <time>2025-07-12T12:14:11.754Z</time>
      </trkpt>
      <trkpt lat="45.99691" lon="5.65767">
        <ele>809</ele>
        <time>2025-07-12T12:14:16.020Z</time>
      </trkpt>
      <trkpt lat="45.99694" lon="5.65765">
        <ele>809</ele>
        <time>2025-07-12T12:14:20.620Z</time>
      </trkpt>
      <trkpt lat="45.99698" lon="5.65763">
        <ele>814</ele>
        <time>2025-07-12T12:14:24.737Z</time>
      </trkpt>
      <trkpt lat="45.997" lon="5.65756">
        <ele>814</ele>
        <time>2025-07-12T12:15:14.760Z</time>
      </trkpt>
      <trkpt lat="45.99701" lon="5.65756">
        <ele>814</ele>
        <time>2025-07-12T12:15:19.741Z</time>
      </trkpt>
      <trkpt lat="45.99701" lon="5.65755">
        <ele>814</ele>
        <time>2025-07-12T12:15:23.748Z</time>
      </trkpt>
      <trkpt lat="45.99702" lon="5.65752">
        <ele>814</ele>
        <time>2025-07-12T12:15:28.437Z</time>
      </trkpt>
      <trkpt lat="45.99703" lon="5.65747">
        <ele>814</ele>
        <time>2025-07-12T12:15:32.749Z</time>
      </trkpt>
      <trkpt lat="45.99701" lon="5.6574">
        <ele>814</ele>
        <time>2025-07-12T12:15:37.235Z</time>
      </trkpt>
      <trkpt lat="45.99703" lon="5.65741">
        <ele>814</ele>
        <time>2025-07-12T12:15:41.494Z</time>
      </trkpt>
      <trkpt lat="45.99702" lon="5.6573">
        <ele>821</ele>
        <time>2025-07-12T12:15:45.725Z</time>
      </trkpt>
      <trkpt lat="45.99705" lon="5.65719">
        <ele>821</ele>
        <time>2025-07-12T12:15:50.733Z</time>
      </trkpt>
      <trkpt lat="45.99704" lon="5.65712">
        <ele>821</ele>
        <time>2025-07-12T12:15:55.275Z</time>
      </trkpt>
      <trkpt lat="45.99704" lon="5.65704">
        <ele>825</ele>
        <time>2025-07-12T12:15:59.674Z</time>
      </trkpt>
      <trkpt lat="45.99703" lon="5.65696">
        <ele>825</ele>
        <time>2025-07-12T12:16:03.745Z</time>
      </trkpt>
      <trkpt lat="45.99698" lon="5.65681">
        <ele>825</ele>
        <time>2025-07-12T12:16:08.736Z</time>
      </trkpt>
      <trkpt lat="45.99695" lon="5.65676">
        <ele>827</ele>
        <time>2025-07-12T12:16:12.754Z</time>
      </trkpt>
      <trkpt lat="45.9969" lon="5.6567">
        <ele>827</ele>
        <time>2025-07-12T12:16:17.732Z</time>
      </trkpt>
      <trkpt lat="45.99685" lon="5.65666">
        <ele>827</ele>
        <time>2025-07-12T12:16:21.743Z</time>
      </trkpt>
      <trkpt lat="45.99679" lon="5.65661">
        <ele>832</ele>
        <time>2025-07-12T12:16:26.743Z</time>
      </trkpt>
      <trkpt lat="45.99675" lon="5.65655">
        <ele>832</ele>
        <time>2025-07-12T12:16:30.748Z</time>
      </trkpt>
      <trkpt lat="45.9967" lon="5.65649">
        <ele>836</ele>
        <time>2025-07-12T12:16:35.744Z</time>
      </trkpt>
      <trkpt lat="45.99663" lon="5.65641">
        <ele>836</ele>
        <time>2025-07-12T12:16:40.751Z</time>
      </trkpt>
      <trkpt lat="45.99659" lon="5.65638">
        <ele>836</ele>
        <time>2025-07-12T12:16:45.298Z</time>
      </trkpt>
      <trkpt lat="45.99654" lon="5.65635">
        <ele>836</ele>
        <time>2025-07-12T12:16:49.742Z</time>
      </trkpt>
      <trkpt lat="45.99648" lon="5.65631">
        <ele>841</ele>
        <time>2025-07-12T12:16:54.749Z</time>
      </trkpt>
      <trkpt lat="45.99643" lon="5.6563">
        <ele>841</ele>
        <time>2025-07-12T12:16:58.767Z</time>
      </trkpt>
      <trkpt lat="45.99639" lon="5.6563">
        <ele>841</ele>
        <time>2025-07-12T12:17:03.214Z</time>
      </trkpt>
      <trkpt lat="45.99634" lon="5.6563">
        <ele>841</ele>
        <time>2025-07-12T12:17:07.743Z</time>
      </trkpt>
      <trkpt lat="45.99628" lon="5.6563">
        <ele>841</ele>
        <time>2025-07-12T12:17:12.376Z</time>
      </trkpt>
      <trkpt lat="45.99621" lon="5.65633">
        <ele>843</ele>
        <time>2025-07-12T12:17:16.753Z</time>
      </trkpt>
      <trkpt lat="45.99615" lon="5.65637">
        <ele>843</ele>
        <time>2025-07-12T12:17:21.175Z</time>
      </trkpt>
      <trkpt lat="45.99609" lon="5.65638">
        <ele>843</ele>
        <time>2025-07-12T12:17:25.273Z</time>
      </trkpt>
      <trkpt lat="45.99603" lon="5.65637">
        <ele>843</ele>
        <time>2025-07-12T12:17:29.293Z</time>
      </trkpt>
      <trkpt lat="45.99597" lon="5.65639">
        <ele>843</ele>
        <time>2025-07-12T12:17:33.334Z</time>
      </trkpt>
      <trkpt lat="45.99592" lon="5.65639">
        <ele>842</ele>
        <time>2025-07-12T12:17:37.412Z</time>
      </trkpt>
      <trkpt lat="45.99586" lon="5.65634">
        <ele>842</ele>
        <time>2025-07-12T12:17:41.614Z</time>
      </trkpt>
      <trkpt lat="45.9958" lon="5.65631">
        <ele>842</ele>
        <time>2025-07-12T12:17:45.752Z</time>
      </trkpt>
      <trkpt lat="45.99574" lon="5.6563">
        <ele>842</ele>
        <time>2025-07-12T12:17:50.232Z</time>
      </trkpt>
      <trkpt lat="45.99567" lon="5.65629">
        <ele>840</ele>
        <time>2025-07-12T12:17:54.761Z</time>
      </trkpt>
      <trkpt lat="45.9956" lon="5.65627">
        <ele>840</ele>
        <time>2025-07-12T12:17:58.961Z</time>
      </trkpt>
      <trkpt lat="45.99555" lon="5.65626">
        <ele>840</ele>
        <time>2025-07-12T12:18:03.060Z</time>
      </trkpt>
      <trkpt lat="45.99549" lon="5.65625">
        <ele>848</ele>
        <time>2025-07-12T12:18:07.745Z</time>
      </trkpt>
      <trkpt lat="45.99543" lon="5.65622">
        <ele>848</ele>
        <time>2025-07-12T12:18:12.481Z</time>
      </trkpt>
      <trkpt lat="45.99539" lon="5.65616">
        <ele>846</ele>
        <time>2025-07-12T12:18:16.746Z</time>
      </trkpt>
      <trkpt lat="45.99538" lon="5.65608">
        <ele>846</ele>
        <time>2025-07-12T12:18:21.518Z</time>
      </trkpt>
      <trkpt lat="45.99535" lon="5.65601">
        <ele>846</ele>
        <time>2025-07-12T12:18:25.748Z</time>
      </trkpt>
      <trkpt lat="45.99533" lon="5.65593">
        <ele>849</ele>
        <time>2025-07-12T12:18:30.737Z</time>
      </trkpt>
      <trkpt lat="45.99533" lon="5.6559">
        <ele>849</ele>
        <time>2025-07-12T12:18:34.732Z</time>
      </trkpt>
      <trkpt lat="45.99534" lon="5.65587">
        <ele>849</ele>
        <time>2025-07-12T12:18:38.745Z</time>
      </trkpt>
      <trkpt lat="45.99536" lon="5.65585">
        <ele>849</ele>
        <time>2025-07-12T12:18:43.457Z</time>
      </trkpt>
      <trkpt lat="45.9954" lon="5.65582">
        <ele>849</ele>
        <time>2025-07-12T12:18:47.761Z</time>
      </trkpt>
      <trkpt lat="45.99543" lon="5.65579">
        <ele>852</ele>
        <time>2025-07-12T12:18:51.997Z</time>
      </trkpt>
      <trkpt lat="45.99549" lon="5.65576">
        <ele>852</ele>
        <time>2025-07-12T12:18:56.476Z</time>
      </trkpt>
      <trkpt lat="45.99555" lon="5.65575">
        <ele>852</ele>
        <time>2025-07-12T12:19:00.745Z</time>
      </trkpt>
      <trkpt lat="45.9956" lon="5.65572">
        <ele>852</ele>
        <time>2025-07-12T12:19:05.556Z</time>
      </trkpt>
      <trkpt lat="45.99563" lon="5.65569">
        <ele>856</ele>
        <time>2025-07-12T12:19:09.743Z</time>
      </trkpt>
      <trkpt lat="45.99568" lon="5.65565">
        <ele>856</ele>
        <time>2025-07-12T12:19:14.739Z</time>
      </trkpt>
      <trkpt lat="45.99569" lon="5.65562">
        <ele>856</ele>
        <time>2025-07-12T12:19:18.747Z</time>
      </trkpt>
      <trkpt lat="45.9957" lon="5.6556">
        <ele>860</ele>
        <time>2025-07-12T12:19:23.053Z</time>
      </trkpt>
      <trkpt lat="45.99572" lon="5.65556">
        <ele>860</ele>
        <time>2025-07-12T12:19:27.747Z</time>
      </trkpt>
      <trkpt lat="45.99574" lon="5.65552">
        <ele>860</ele>
        <time>2025-07-12T12:19:31.759Z</time>
      </trkpt>
      <trkpt lat="45.99578" lon="5.65542">
        <ele>860</ele>
        <time>2025-07-12T12:19:35.763Z</time>
      </trkpt>
      <trkpt lat="45.99585" lon="5.65531">
        <ele>863</ele>
        <time>2025-07-12T12:19:40.751Z</time>
      </trkpt>
      <trkpt lat="45.9959" lon="5.65522">
        <ele>863</ele>
        <time>2025-07-12T12:19:45.744Z</time>
      </trkpt>
      <trkpt lat="45.99595" lon="5.65518">
        <ele>863</ele>
        <time>2025-07-12T12:19:49.746Z</time>
      </trkpt>
      <trkpt lat="45.996" lon="5.6551">
        <ele>869</ele>
        <time>2025-07-12T12:19:54.755Z</time>
      </trkpt>
      <trkpt lat="45.99605" lon="5.65501">
        <ele>869</ele>
        <time>2025-07-12T12:19:59.723Z</time>
      </trkpt>
      <trkpt lat="45.9961" lon="5.65494">
        <ele>869</ele>
        <time>2025-07-12T12:20:03.762Z</time>
      </trkpt>
      <trkpt lat="45.99613" lon="5.65487">
        <ele>869</ele>
        <time>2025-07-12T12:20:08.745Z</time>
      </trkpt>
      <trkpt lat="45.99614" lon="5.65483">
        <ele>873</ele>
        <time>2025-07-12T12:20:13.051Z</time>
      </trkpt>
      <trkpt lat="45.99617" lon="5.65477">
        <ele>873</ele>
        <time>2025-07-12T12:20:17.551Z</time>
      </trkpt>
      <trkpt lat="45.9962" lon="5.65474">
        <ele>873</ele>
        <time>2025-07-12T12:20:21.754Z</time>
      </trkpt>
      <trkpt lat="45.99623" lon="5.65473">
        <ele>873</ele>
        <time>2025-07-12T12:20:26.190Z</time>
      </trkpt>
      <trkpt lat="45.99628" lon="5.65469">
        <ele>872</ele>
        <time>2025-07-12T12:20:30.670Z</time>
      </trkpt>
      <trkpt lat="45.99634" lon="5.65465">
        <ele>872</ele>
        <time>2025-07-12T12:20:34.755Z</time>
      </trkpt>
      <trkpt lat="45.99639" lon="5.65463">
        <ele>872</ele>
        <time>2025-07-12T12:20:39.009Z</time>
      </trkpt>
      <trkpt lat="45.99642" lon="5.65456">
        <ele>875</ele>
        <time>2025-07-12T12:20:43.749Z</time>
      </trkpt>
      <trkpt lat="45.99644" lon="5.65452">
        <ele>875</ele>
        <time>2025-07-12T12:20:48.569Z</time>
      </trkpt>
      <trkpt lat="45.99646" lon="5.65448">
        <ele>875</ele>
        <time>2025-07-12T12:20:52.868Z</time>
      </trkpt>
      <trkpt lat="45.99649" lon="5.65444">
        <ele>875</ele>
        <time>2025-07-12T12:21:01.739Z</time>
      </trkpt>
      <trkpt lat="45.9965" lon="5.65443">
        <ele>875</ele>
        <time>2025-07-12T12:21:06.714Z</time>
      </trkpt>
      <trkpt lat="45.99651" lon="5.65442">
        <ele>875</ele>
        <time>2025-07-12T12:21:11.433Z</time>
      </trkpt>
      <trkpt lat="45.99653" lon="5.6544">
        <ele>874</ele>
        <time>2025-07-12T12:21:15.675Z</time>
      </trkpt>
      <trkpt lat="45.9966" lon="5.65438">
        <ele>874</ele>
        <time>2025-07-12T12:21:19.746Z</time>
      </trkpt>
      <trkpt lat="45.99666" lon="5.65441">
        <ele>874</ele>
        <time>2025-07-12T12:21:24.174Z</time>
      </trkpt>
      <trkpt lat="45.99672" lon="5.65445">
        <ele>874</ele>
        <time>2025-07-12T12:21:28.751Z</time>
      </trkpt>
      <trkpt lat="45.99677" lon="5.65445">
        <ele>874</ele>
        <time>2025-07-12T12:21:33.294Z</time>
      </trkpt>
      <trkpt lat="45.9968" lon="5.65446">
        <ele>874</ele>
        <time>2025-07-12T12:21:37.553Z</time>
      </trkpt>
      <trkpt lat="45.99685" lon="5.65446">
        <ele>871</ele>
        <time>2025-07-12T12:21:41.745Z</time>
      </trkpt>
      <trkpt lat="45.9969" lon="5.65447">
        <ele>871</ele>
        <time>2025-07-12T12:21:45.953Z</time>
      </trkpt>
      <trkpt lat="45.99696" lon="5.65443">
        <ele>871</ele>
        <time>2025-07-12T12:21:50.295Z</time>
      </trkpt>
      <trkpt lat="45.99702" lon="5.65442">
        <ele>871</ele>
        <time>2025-07-12T12:21:54.749Z</time>
      </trkpt>
      <trkpt lat="45.99709" lon="5.6544">
        <ele>869</ele>
        <time>2025-07-12T12:21:59.194Z</time>
      </trkpt>
      <trkpt lat="45.99715" lon="5.65438">
        <ele>869</ele>
        <time>2025-07-12T12:22:03.332Z</time>
      </trkpt>
      <trkpt lat="45.99721" lon="5.65436">
        <ele>869</ele>
        <time>2025-07-12T12:22:07.746Z</time>
      </trkpt>
      <trkpt lat="45.99728" lon="5.65432">
        <ele>869</ele>
        <time>2025-07-12T12:22:12.755Z</time>
      </trkpt>
      <trkpt lat="45.99736" lon="5.6543">
        <ele>875</ele>
        <time>2025-07-12T12:22:17.712Z</time>
      </trkpt>
      <trkpt lat="45.99743" lon="5.65431">
        <ele>873</ele>
        <time>2025-07-12T12:22:21.746Z</time>
      </trkpt>
      <trkpt lat="45.99749" lon="5.6543">
        <ele>873</ele>
        <time>2025-07-12T12:22:26.594Z</time>
      </trkpt>
      <trkpt lat="45.99755" lon="5.6543">
        <ele>873</ele>
        <time>2025-07-12T12:22:30.747Z</time>
      </trkpt>
      <trkpt lat="45.99763" lon="5.65431">
        <ele>867</ele>
        <time>2025-07-12T12:22:35.491Z</time>
      </trkpt>
      <trkpt lat="45.9977" lon="5.65431">
        <ele>864</ele>
        <time>2025-07-12T12:22:39.748Z</time>
      </trkpt>
      <trkpt lat="45.99778" lon="5.65433">
        <ele>864</ele>
        <time>2025-07-12T12:22:44.071Z</time>
      </trkpt>
      <trkpt lat="45.99785" lon="5.65433">
        <ele>864</ele>
        <time>2025-07-12T12:22:48.333Z</time>
      </trkpt>
      <trkpt lat="45.99791" lon="5.65432">
        <ele>864</ele>
        <time>2025-07-12T12:22:52.378Z</time>
      </trkpt>
      <trkpt lat="45.99796" lon="5.65431">
        <ele>863</ele>
        <time>2025-07-12T12:22:56.741Z</time>
      </trkpt>
      <trkpt lat="45.99802" lon="5.6543">
        <ele>867</ele>
        <time>2025-07-12T12:23:01.746Z</time>
      </trkpt>
      <trkpt lat="45.99809" lon="5.6543">
        <ele>867</ele>
        <time>2025-07-12T12:23:06.747Z</time>
      </trkpt>
      <trkpt lat="45.99814" lon="5.65431">
        <ele>863</ele>
        <time>2025-07-12T12:23:10.743Z</time>
      </trkpt>
      <trkpt lat="45.9982" lon="5.65434">
        <ele>860</ele>
        <time>2025-07-12T12:23:15.737Z</time>
      </trkpt>
      <trkpt lat="45.99825" lon="5.65434">
        <ele>860</ele>
        <time>2025-07-12T12:23:20.170Z</time>
      </trkpt>
      <trkpt lat="45.99829" lon="5.65435">
        <ele>860</ele>
        <time>2025-07-12T12:23:24.743Z</time>
      </trkpt>
      <trkpt lat="45.99833" lon="5.65436">
        <ele>860</ele>
        <time>2025-07-12T12:23:28.860Z</time>
      </trkpt>
      <trkpt lat="45.99837" lon="5.65438">
        <ele>860</ele>
        <time>2025-07-12T12:23:33.739Z</time>
      </trkpt>
      <trkpt lat="45.99843" lon="5.65437">
        <ele>860</ele>
        <time>2025-07-12T12:23:38.439Z</time>
      </trkpt>
      <trkpt lat="45.99849" lon="5.65438">
        <ele>854</ele>
        <time>2025-07-12T12:23:42.499Z</time>
      </trkpt>
      <trkpt lat="45.99854" lon="5.65441">
        <ele>854</ele>
        <time>2025-07-12T12:23:46.750Z</time>
      </trkpt>
      <trkpt lat="45.99855" lon="5.65442">
        <ele>854</ele>
        <time>2025-07-12T12:23:51.079Z</time>
      </trkpt>
      <trkpt lat="45.99856" lon="5.65442">
        <ele>854</ele>
        <time>2025-07-12T12:23:55.220Z</time>
      </trkpt>
      <trkpt lat="45.99863" lon="5.65445">
        <ele>854</ele>
        <time>2025-07-12T12:23:59.742Z</time>
      </trkpt>
      <trkpt lat="45.9987" lon="5.65446">
        <ele>854</ele>
        <time>2025-07-12T12:24:13.436Z</time>
      </trkpt>
      <trkpt lat="45.99875" lon="5.65446">
        <ele>851</ele>
        <time>2025-07-12T12:24:17.677Z</time>
      </trkpt>
      <trkpt lat="45.9988" lon="5.65454">
        <ele>851</ele>
        <time>2025-07-12T12:24:21.738Z</time>
      </trkpt>
      <trkpt lat="45.99885" lon="5.65457">
        <ele>851</ele>
        <time>2025-07-12T12:24:26.237Z</time>
      </trkpt>
      <trkpt lat="45.99891" lon="5.65462">
        <ele>850</ele>
        <time>2025-07-12T12:24:30.657Z</time>
      </trkpt>
      <trkpt lat="45.99899" lon="5.65466">
        <ele>850</ele>
        <time>2025-07-12T12:24:34.759Z</time>
      </trkpt>
      <trkpt lat="45.99906" lon="5.6547">
        <ele>846</ele>
        <time>2025-07-12T12:24:39.016Z</time>
      </trkpt>
      <trkpt lat="45.99912" lon="5.65473">
        <ele>846</ele>
        <time>2025-07-12T12:24:43.575Z</time>
      </trkpt>
      <trkpt lat="45.99917" lon="5.65475">
        <ele>846</ele>
        <time>2025-07-12T12:24:47.736Z</time>
      </trkpt>
      <trkpt lat="45.99922" lon="5.6548">
        <ele>846</ele>
        <time>2025-07-12T12:24:52.455Z</time>
      </trkpt>
      <trkpt lat="45.99928" lon="5.65484">
        <ele>846</ele>
        <time>2025-07-12T12:24:56.748Z</time>
      </trkpt>
      <trkpt lat="45.99937" lon="5.65488">
        <ele>840</ele>
        <time>2025-07-12T12:25:01.745Z</time>
      </trkpt>
      <trkpt lat="45.99943" lon="5.65493">
        <ele>840</ele>
        <time>2025-07-12T12:25:05.747Z</time>
      </trkpt>
      <trkpt lat="45.99953" lon="5.65499">
        <ele>840</ele>
        <time>2025-07-12T12:25:14.725Z</time>
      </trkpt>
      <trkpt lat="45.99955" lon="5.655">
        <ele>840</ele>
        <time>2025-07-12T12:25:19.733Z</time>
      </trkpt>
      <trkpt lat="45.99955" lon="5.655">
        <ele>840</ele>
        <time>2025-07-12T12:25:24.737Z</time>
      </trkpt>
      <trkpt lat="45.99956" lon="5.65498">
        <ele>840</ele>
        <time>2025-07-12T12:25:28.745Z</time>
      </trkpt>
      <trkpt lat="45.99958" lon="5.65492">
        <ele>840</ele>
        <time>2025-07-12T12:25:33.728Z</time>
      </trkpt>
      <trkpt lat="45.99958" lon="5.65485">
        <ele>843</ele>
        <time>2025-07-12T12:25:37.746Z</time>
      </trkpt>
      <trkpt lat="45.99956" lon="5.65477">
        <ele>843</ele>
        <time>2025-07-12T12:25:42.743Z</time>
      </trkpt>
      <trkpt lat="45.99958" lon="5.65468">
        <ele>841</ele>
        <time>2025-07-12T12:25:47.391Z</time>
      </trkpt>
      <trkpt lat="45.9996" lon="5.65462">
        <ele>841</ele>
        <time>2025-07-12T12:25:51.512Z</time>
      </trkpt>
      <trkpt lat="45.9996" lon="5.65456">
        <ele>844</ele>
        <time>2025-07-12T12:25:56.053Z</time>
      </trkpt>
      <trkpt lat="45.99961" lon="5.65447">
        <ele>844</ele>
        <time>2025-07-12T12:26:00.532Z</time>
      </trkpt>
      <trkpt lat="45.99961" lon="5.65436">
        <ele>844</ele>
        <time>2025-07-12T12:26:04.737Z</time>
      </trkpt>
      <trkpt lat="45.99963" lon="5.65426">
        <ele>846</ele>
        <time>2025-07-12T12:26:09.741Z</time>
      </trkpt>
      <trkpt lat="45.99964" lon="5.65422">
        <ele>846</ele>
        <time>2025-07-12T12:26:19.253Z</time>
      </trkpt>
      <trkpt lat="45.99964" lon="5.65421">
        <ele>846</ele>
        <time>2025-07-12T12:26:23.737Z</time>
      </trkpt>
      <trkpt lat="45.99965" lon="5.65415">
        <ele>846</ele>
        <time>2025-07-12T12:26:28.741Z</time>
      </trkpt>
      <trkpt lat="45.99965" lon="5.65413">
        <ele>846</ele>
        <time>2025-07-12T12:26:32.733Z</time>
      </trkpt>
      <trkpt lat="45.99965" lon="5.65411">
        <ele>846</ele>
        <time>2025-07-12T12:26:36.745Z</time>
      </trkpt>
      <trkpt lat="45.99965" lon="5.65402">
        <ele>850</ele>
        <time>2025-07-12T12:26:41.218Z</time>
      </trkpt>
      <trkpt lat="45.99963" lon="5.6539">
        <ele>850</ele>
        <time>2025-07-12T12:26:45.734Z</time>
      </trkpt>
      <trkpt lat="45.99962" lon="5.65383">
        <ele>850</ele>
        <time>2025-07-12T12:26:50.674Z</time>
      </trkpt>
      <trkpt lat="45.99962" lon="5.65381">
        <ele>850</ele>
        <time>2025-07-12T12:26:54.747Z</time>
      </trkpt>
      <trkpt lat="45.99963" lon="5.65383">
        <ele>850</ele>
        <time>2025-07-12T12:27:04.746Z</time>
      </trkpt>
      <trkpt lat="45.99963" lon="5.65383">
        <ele>850</ele>
        <time>2025-07-12T12:27:09.016Z</time>
      </trkpt>
      <trkpt lat="45.99963" lon="5.65382">
        <ele>850</ele>
        <time>2025-07-12T12:27:13.215Z</time>
      </trkpt>
      <trkpt lat="45.99964" lon="5.65374">
        <ele>854</ele>
        <time>2025-07-12T12:27:17.740Z</time>
      </trkpt>
      <trkpt lat="45.99963" lon="5.6536">
        <ele>854</ele>
        <time>2025-07-12T12:27:22.739Z</time>
      </trkpt>
      <trkpt lat="45.99963" lon="5.65348">
        <ele>854</ele>
        <time>2025-07-12T12:27:27.535Z</time>
      </trkpt>
      <trkpt lat="45.99961" lon="5.65334">
        <ele>859</ele>
        <time>2025-07-12T12:27:32.494Z</time>
      </trkpt>
      <trkpt lat="45.99957" lon="5.65322">
        <ele>861</ele>
        <time>2025-07-12T12:27:36.651Z</time>
      </trkpt>
      <trkpt lat="45.99956" lon="5.65309">
        <ele>866</ele>
        <time>2025-07-12T12:27:41.029Z</time>
      </trkpt>
      <trkpt lat="45.99951" lon="5.65289">
        <ele>874</ele>
        <time>2025-07-12T12:28:24.732Z</time>
      </trkpt>
      <trkpt lat="45.99951" lon="5.65289">
        <ele>874</ele>
        <time>2025-07-12T12:28:30.730Z</time>
      </trkpt>
      <trkpt lat="45.99952" lon="5.65289">
        <ele>874</ele>
        <time>2025-07-12T12:28:35.731Z</time>
      </trkpt>
      <trkpt lat="45.99952" lon="5.65288">
        <ele>874</ele>
        <time>2025-07-12T12:28:39.730Z</time>
      </trkpt>
      <trkpt lat="45.99952" lon="5.65284">
        <ele>874</ele>
        <time>2025-07-12T12:28:44.729Z</time>
      </trkpt>
      <trkpt lat="45.99952" lon="5.65271">
        <ele>874</ele>
        <time>2025-07-12T12:31:17.715Z</time>
      </trkpt>
      <trkpt lat="45.99951" lon="5.65271">
        <ele>874</ele>
        <time>2025-07-12T12:31:22.722Z</time>
      </trkpt>
      <trkpt lat="45.99951" lon="5.65271">
        <ele>874</ele>
        <time>2025-07-12T12:31:27.729Z</time>
      </trkpt>
      <trkpt lat="45.99951" lon="5.6527">
        <ele>874</ele>
        <time>2025-07-12T12:31:33.729Z</time>
      </trkpt>
      <trkpt lat="45.9995" lon="5.65267">
        <ele>874</ele>
        <time>2025-07-12T12:31:37.731Z</time>
      </trkpt>
      <trkpt lat="45.99952" lon="5.6526">
        <ele>880</ele>
        <time>2025-07-12T12:31:42.736Z</time>
      </trkpt>
      <trkpt lat="45.99955" lon="5.65255">
        <ele>880</ele>
        <time>2025-07-12T12:31:46.751Z</time>
      </trkpt>
      <trkpt lat="45.99956" lon="5.65249">
        <ele>880</ele>
        <time>2025-07-12T12:31:51.735Z</time>
      </trkpt>
      <trkpt lat="45.99958" lon="5.65244">
        <ele>880</ele>
        <time>2025-07-12T12:31:56.740Z</time>
      </trkpt>
      <trkpt lat="45.99959" lon="5.65243">
        <ele>879</ele>
        <time>2025-07-12T12:32:01.750Z</time>
      </trkpt>
      <trkpt lat="45.99959" lon="5.65242">
        <ele>879</ele>
        <time>2025-07-12T12:32:05.746Z</time>
      </trkpt>
      <trkpt lat="45.99961" lon="5.65237">
        <ele>879</ele>
        <time>2025-07-12T12:32:10.728Z</time>
      </trkpt>
      <trkpt lat="45.99965" lon="5.65229">
        <ele>885</ele>
        <time>2025-07-12T12:32:14.742Z</time>
      </trkpt>
      <trkpt lat="45.99969" lon="5.65225">
        <ele>885</ele>
        <time>2025-07-12T12:32:19.729Z</time>
      </trkpt>
      <trkpt lat="45.9997" lon="5.65225">
        <ele>885</ele>
        <time>2025-07-12T12:32:23.744Z</time>
      </trkpt>
      <trkpt lat="45.9997" lon="5.65223">
        <ele>885</ele>
        <time>2025-07-12T12:32:28.746Z</time>
      </trkpt>
      <trkpt lat="45.99971" lon="5.65222">
        <ele>885</ele>
        <time>2025-07-12T12:32:33.745Z</time>
      </trkpt>
      <trkpt lat="45.99976" lon="5.6521">
        <ele>885</ele>
        <time>2025-07-12T12:32:38.739Z</time>
      </trkpt>
      <trkpt lat="45.99983" lon="5.65198">
        <ele>890</ele>
        <time>2025-07-12T12:32:43.747Z</time>
      </trkpt>
      <trkpt lat="45.99986" lon="5.65193">
        <ele>890</ele>
        <time>2025-07-12T12:32:48.757Z</time>
      </trkpt>
      <trkpt lat="45.99988" lon="5.6519">
        <ele>888</ele>
        <time>2025-07-12T12:32:52.830Z</time>
      </trkpt>
      <trkpt lat="45.9999" lon="5.65179">
        <ele>893</ele>
        <time>2025-07-12T12:32:57.511Z</time>
      </trkpt>
      <trkpt lat="45.99991" lon="5.65169">
        <ele>893</ele>
        <time>2025-07-12T12:33:01.741Z</time>
      </trkpt>
      <trkpt lat="45.99995" lon="5.65161">
        <ele>893</ele>
        <time>2025-07-12T12:33:05.744Z</time>
      </trkpt>
      <trkpt lat="45.99997" lon="5.65159">
        <ele>893</ele>
        <time>2025-07-12T12:33:10.752Z</time>
      </trkpt>
      <trkpt lat="45.99997" lon="5.65158">
        <ele>893</ele>
        <time>2025-07-12T12:33:14.939Z</time>
      </trkpt>
      <trkpt lat="45.99997" lon="5.65158">
        <ele>893</ele>
        <time>2025-07-12T12:33:19.751Z</time>
      </trkpt>
      <trkpt lat="45.99998" lon="5.65156">
        <ele>893</ele>
        <time>2025-07-12T12:33:24.216Z</time>
      </trkpt>
      <trkpt lat="45.99998" lon="5.65155">
        <ele>893</ele>
        <time>2025-07-12T12:33:28.238Z</time>
      </trkpt>
      <trkpt lat="45.99999" lon="5.65143">
        <ele>897</ele>
        <time>2025-07-12T12:33:32.277Z</time>
      </trkpt>
      <trkpt lat="46.00001" lon="5.65131">
        <ele>897</ele>
        <time>2025-07-12T12:33:36.746Z</time>
      </trkpt>
      <trkpt lat="46.00001" lon="5.65117">
        <ele>899</ele>
        <time>2025-07-12T12:33:41.297Z</time>
      </trkpt>
      <trkpt lat="46" lon="5.65105">
        <ele>899</ele>
        <time>2025-07-12T12:33:45.738Z</time>
      </trkpt>
      <trkpt lat="45.99999" lon="5.65095">
        <ele>901</ele>
        <time>2025-07-12T12:33:50.535Z</time>
      </trkpt>
      <trkpt lat="45.99997" lon="5.65088">
        <ele>901</ele>
        <time>2025-07-12T12:33:54.748Z</time>
      </trkpt>
      <trkpt lat="45.99997" lon="5.65087">
        <ele>901</ele>
        <time>2025-07-12T12:33:59.195Z</time>
      </trkpt>
      <trkpt lat="45.99995" lon="5.65079">
        <ele>901</ele>
        <time>2025-07-12T12:34:03.695Z</time>
      </trkpt>
      <trkpt lat="45.99993" lon="5.65071">
        <ele>901</ele>
        <time>2025-07-12T12:34:07.737Z</time>
      </trkpt>
      <trkpt lat="45.99992" lon="5.65063">
        <ele>903</ele>
        <time>2025-07-12T12:34:11.741Z</time>
      </trkpt>
      <trkpt lat="45.99988" lon="5.65054">
        <ele>903</ele>
        <time>2025-07-12T12:34:16.353Z</time>
      </trkpt>
      <trkpt lat="45.99987" lon="5.65046">
        <ele>903</ele>
        <time>2025-07-12T12:34:20.474Z</time>
      </trkpt>
      <trkpt lat="45.99989" lon="5.65041">
        <ele>906</ele>
        <time>2025-07-12T12:34:24.749Z</time>
      </trkpt>
      <trkpt lat="45.99988" lon="5.65037">
        <ele>906</ele>
        <time>2025-07-12T12:34:29.739Z</time>
      </trkpt>
      <trkpt lat="45.99989" lon="5.65038">
        <ele>906</ele>
        <time>2025-07-12T12:34:33.750Z</time>
      </trkpt>
      <trkpt lat="45.99989" lon="5.65038">
        <ele>906</ele>
        <time>2025-07-12T12:34:38.741Z</time>
      </trkpt>
      <trkpt lat="45.99992" lon="5.65038">
        <ele>906</ele>
        <time>2025-07-12T12:34:42.737Z</time>
      </trkpt>
      <trkpt lat="46.00001" lon="5.6504">
        <ele>906</ele>
        <time>2025-07-12T12:34:47.747Z</time>
      </trkpt>
      <trkpt lat="46.00007" lon="5.6504">
        <ele>906</ele>
        <time>2025-07-12T12:34:51.747Z</time>
      </trkpt>
      <trkpt lat="46.00011" lon="5.6504">
        <ele>906</ele>
        <time>2025-07-12T12:34:56.738Z</time>
      </trkpt>
      <trkpt lat="46.00014" lon="5.65042">
        <ele>902</ele>
        <time>2025-07-12T12:35:00.737Z</time>
      </trkpt>
      <trkpt lat="46.00015" lon="5.65043">
        <ele>902</ele>
        <time>2025-07-12T12:35:05.735Z</time>
      </trkpt>
      <trkpt lat="46.00025" lon="5.65046">
        <ele>902</ele>
        <time>2025-07-12T12:35:10.743Z</time>
      </trkpt>
      <trkpt lat="46.00032" lon="5.65045">
        <ele>902</ele>
        <time>2025-07-12T12:35:15.739Z</time>
      </trkpt>
      <trkpt lat="46.00039" lon="5.65045">
        <ele>902</ele>
        <time>2025-07-12T12:35:20.740Z</time>
      </trkpt>
      <trkpt lat="46.00047" lon="5.65044">
        <ele>901</ele>
        <time>2025-07-12T12:35:25.740Z</time>
      </trkpt>
      <trkpt lat="46.00054" lon="5.6504">
        <ele>906</ele>
        <time>2025-07-12T12:35:30.739Z</time>
      </trkpt>
      <trkpt lat="46.0006" lon="5.65038">
        <ele>906</ele>
        <time>2025-07-12T12:35:35.741Z</time>
      </trkpt>
      <trkpt lat="46.00065" lon="5.65037">
        <ele>906</ele>
        <time>2025-07-12T12:35:40.735Z</time>
      </trkpt>
      <trkpt lat="46.0007" lon="5.65037">
        <ele>904</ele>
        <time>2025-07-12T12:35:44.752Z</time>
      </trkpt>
      <trkpt lat="46.00075" lon="5.65037">
        <ele>904</ele>
        <time>2025-07-12T12:35:48.756Z</time>
      </trkpt>
      <trkpt lat="46.00081" lon="5.65039">
        <ele>904</ele>
        <time>2025-07-12T12:35:53.550Z</time>
      </trkpt>
      <trkpt lat="46.00083" lon="5.65042">
        <ele>898</ele>
        <time>2025-07-12T12:35:57.570Z</time>
      </trkpt>
      <trkpt lat="46.00089" lon="5.65045">
        <ele>898</ele>
        <time>2025-07-12T12:36:02.200Z</time>
      </trkpt>
      <trkpt lat="46.00095" lon="5.65046">
        <ele>898</ele>
        <time>2025-07-12T12:36:06.719Z</time>
      </trkpt>
      <trkpt lat="46.00101" lon="5.65047">
        <ele>895</ele>
        <time>2025-07-12T12:36:11.721Z</time>
      </trkpt>
      <trkpt lat="46.00107" lon="5.65049">
        <ele>895</ele>
        <time>2025-07-12T12:36:16.154Z</time>
      </trkpt>
      <trkpt lat="46.00112" lon="5.65049">
        <ele>895</ele>
        <time>2025-07-12T12:36:20.592Z</time>
      </trkpt>
      <trkpt lat="46.00117" lon="5.65047">
        <ele>895</ele>
        <time>2025-07-12T12:36:24.743Z</time>
      </trkpt>
      <trkpt lat="46.00121" lon="5.65046">
        <ele>895</ele>
        <time>2025-07-12T12:36:29.094Z</time>
      </trkpt>
      <trkpt lat="46.00126" lon="5.65047">
        <ele>892</ele>
        <time>2025-07-12T12:36:33.573Z</time>
      </trkpt>
      <trkpt lat="46.00132" lon="5.65051">
        <ele>892</ele>
        <time>2025-07-12T12:36:38.571Z</time>
      </trkpt>
      <trkpt lat="46.00137" lon="5.65055">
        <ele>892</ele>
        <time>2025-07-12T12:36:43.731Z</time>
      </trkpt>
      <trkpt lat="46.00143" lon="5.65063">
        <ele>892</ele>
        <time>2025-07-12T12:36:48.559Z</time>
      </trkpt>
      <trkpt lat="46.00149" lon="5.65071">
        <ele>888</ele>
        <time>2025-07-12T12:36:52.938Z</time>
      </trkpt>
      <trkpt lat="46.00152" lon="5.65077">
        <ele>888</ele>
        <time>2025-07-12T12:36:57.419Z</time>
      </trkpt>
      <trkpt lat="46.00155" lon="5.65081">
        <ele>888</ele>
        <time>2025-07-12T12:37:01.620Z</time>
      </trkpt>
      <trkpt lat="46.00154" lon="5.6508">
        <ele>888</ele>
        <time>2025-07-12T12:37:16.729Z</time>
      </trkpt>
      <trkpt lat="46.00158" lon="5.65085">
        <ele>888</ele>
        <time>2025-07-12T12:37:20.731Z</time>
      </trkpt>
      <trkpt lat="46.00161" lon="5.65089">
        <ele>888</ele>
        <time>2025-07-12T12:37:25.743Z</time>
      </trkpt>
      <trkpt lat="46.00162" lon="5.6509">
        <ele>888</ele>
        <time>2025-07-12T12:37:30.731Z</time>
      </trkpt>
      <trkpt lat="46.00165" lon="5.65093">
        <ele>888</ele>
        <time>2025-07-12T12:37:34.734Z</time>
      </trkpt>
      <trkpt lat="46.00167" lon="5.65095">
        <ele>888</ele>
        <time>2025-07-12T12:37:39.730Z</time>
      </trkpt>
      <trkpt lat="46.00169" lon="5.65096">
        <ele>888</ele>
        <time>2025-07-12T12:37:44.730Z</time>
      </trkpt>
      <trkpt lat="46.00173" lon="5.65098">
        <ele>881</ele>
        <time>2025-07-12T12:37:49.724Z</time>
      </trkpt>
      <trkpt lat="46.00177" lon="5.65098">
        <ele>881</ele>
        <time>2025-07-12T12:37:54.737Z</time>
      </trkpt>
      <trkpt lat="46.00181" lon="5.65099">
        <ele>882</ele>
        <time>2025-07-12T12:37:58.741Z</time>
      </trkpt>
      <trkpt lat="46.00186" lon="5.651">
        <ele>882</ele>
        <time>2025-07-12T12:38:03.724Z</time>
      </trkpt>
      <trkpt lat="46.00192" lon="5.65102">
        <ele>882</ele>
        <time>2025-07-12T12:38:07.719Z</time>
      </trkpt>
      <trkpt lat="46.00197" lon="5.65104">
        <ele>882</ele>
        <time>2025-07-12T12:38:12.739Z</time>
      </trkpt>
      <trkpt lat="46.00206" lon="5.65108">
        <ele>882</ele>
        <time>2025-07-12T12:38:16.726Z</time>
      </trkpt>
      <trkpt lat="46.00221" lon="5.65111">
        <ele>878</ele>
        <time>2025-07-12T12:38:21.734Z</time>
      </trkpt>
      <trkpt lat="46.00238" lon="5.65112">
        <ele>872</ele>
        <time>2025-07-12T12:38:26.728Z</time>
      </trkpt>
      <trkpt lat="46.00247" lon="5.65114">
        <ele>872</ele>
        <time>2025-07-12T12:38:31.741Z</time>
      </trkpt>
      <trkpt lat="46.00254" lon="5.65101">
        <ele>872</ele>
        <time>2025-07-12T12:38:46.741Z</time>
      </trkpt>
      <trkpt lat="46.00263" lon="5.65098">
        <ele>872</ele>
        <time>2025-07-12T12:38:51.358Z</time>
      </trkpt>
      <trkpt lat="46.00268" lon="5.65088">
        <ele>871</ele>
        <time>2025-07-12T12:38:55.877Z</time>
      </trkpt>
      <trkpt lat="46.00274" lon="5.65079">
        <ele>871</ele>
        <time>2025-07-12T12:39:00.277Z</time>
      </trkpt>
      <trkpt lat="46.0028" lon="5.65071">
        <ele>871</ele>
        <time>2025-07-12T12:39:04.732Z</time>
      </trkpt>
      <trkpt lat="46.00286" lon="5.65061">
        <ele>874</ele>
        <time>2025-07-12T12:39:09.057Z</time>
      </trkpt>
      <trkpt lat="46.00291" lon="5.65056">
        <ele>874</ele>
        <time>2025-07-12T12:39:13.736Z</time>
      </trkpt>
      <trkpt lat="46.00295" lon="5.65049">
        <ele>866</ele>
        <time>2025-07-12T12:39:18.280Z</time>
      </trkpt>
      <trkpt lat="46.00299" lon="5.65043">
        <ele>866</ele>
        <time>2025-07-12T12:39:22.479Z</time>
      </trkpt>
      <trkpt lat="46.003" lon="5.65035">
        <ele>864</ele>
        <time>2025-07-12T12:39:26.744Z</time>
      </trkpt>
      <trkpt lat="46.00301" lon="5.65025">
        <ele>864</ele>
        <time>2025-07-12T12:39:31.275Z</time>
      </trkpt>
      <trkpt lat="46.00301" lon="5.65015">
        <ele>864</ele>
        <time>2025-07-12T12:39:35.397Z</time>
      </trkpt>
      <trkpt lat="46.00301" lon="5.65006">
        <ele>862</ele>
        <time>2025-07-12T12:39:40.216Z</time>
      </trkpt>
      <trkpt lat="46.003" lon="5.64994">
        <ele>862</ele>
        <time>2025-07-12T12:39:44.741Z</time>
      </trkpt>
      <trkpt lat="46.00299" lon="5.64985">
        <ele>861</ele>
        <time>2025-07-12T12:39:49.316Z</time>
      </trkpt>
      <trkpt lat="46.003" lon="5.64976">
        <ele>861</ele>
        <time>2025-07-12T12:39:53.728Z</time>
      </trkpt>
      <trkpt lat="46.00299" lon="5.6497">
        <ele>861</ele>
        <time>2025-07-12T12:39:57.745Z</time>
      </trkpt>
      <trkpt lat="46.00297" lon="5.64962">
        <ele>861</ele>
        <time>2025-07-12T12:40:02.740Z</time>
      </trkpt>
      <trkpt lat="46.00296" lon="5.64956">
        <ele>858</ele>
        <time>2025-07-12T12:40:06.748Z</time>
      </trkpt>
      <trkpt lat="46.00295" lon="5.64948">
        <ele>858</ele>
        <time>2025-07-12T12:40:11.738Z</time>
      </trkpt>
      <trkpt lat="46.00294" lon="5.64942">
        <ele>858</ele>
        <time>2025-07-12T12:40:15.745Z</time>
      </trkpt>
      <trkpt lat="46.00293" lon="5.64936">
        <ele>858</ele>
        <time>2025-07-12T12:40:20.740Z</time>
      </trkpt>
      <trkpt lat="46.00293" lon="5.64927">
        <ele>858</ele>
        <time>2025-07-12T12:40:25.736Z</time>
      </trkpt>
      <trkpt lat="46.00292" lon="5.6492">
        <ele>869</ele>
        <time>2025-07-12T12:40:29.744Z</time>
      </trkpt>
      <trkpt lat="46.00291" lon="5.64913">
        <ele>869</ele>
        <time>2025-07-12T12:40:33.747Z</time>
      </trkpt>
      <trkpt lat="46.0029" lon="5.64904">
        <ele>869</ele>
        <time>2025-07-12T12:40:38.757Z</time>
      </trkpt>
      <trkpt lat="46.0029" lon="5.64898">
        <ele>864</ele>
        <time>2025-07-12T12:40:43.744Z</time>
      </trkpt>
      <trkpt lat="46.00289" lon="5.64891">
        <ele>864</ele>
        <time>2025-07-12T12:40:48.754Z</time>
      </trkpt>
      <trkpt lat="46.0029" lon="5.6488">
        <ele>864</ele>
        <time>2025-07-12T12:40:53.753Z</time>
      </trkpt>
      <trkpt lat="46.00291" lon="5.64869">
        <ele>864</ele>
        <time>2025-07-12T12:40:58.745Z</time>
      </trkpt>
      <trkpt lat="46.00293" lon="5.6486">
        <ele>859</ele>
        <time>2025-07-12T12:41:03.754Z</time>
      </trkpt>
      <trkpt lat="46.00295" lon="5.64855">
        <ele>859</ele>
        <time>2025-07-12T12:41:08.338Z</time>
      </trkpt>
      <trkpt lat="46.00298" lon="5.64847">
        <ele>861</ele>
        <time>2025-07-12T12:41:12.737Z</time>
      </trkpt>
      <trkpt lat="46.00301" lon="5.64837">
        <ele>861</ele>
        <time>2025-07-12T12:41:17.652Z</time>
      </trkpt>
      <trkpt lat="46.00304" lon="5.64831">
        <ele>861</ele>
        <time>2025-07-12T12:41:21.716Z</time>
      </trkpt>
      <trkpt lat="46.0031" lon="5.64825">
        <ele>861</ele>
        <time>2025-07-12T12:41:26.619Z</time>
      </trkpt>
      <trkpt lat="46.00317" lon="5.64822">
        <ele>861</ele>
        <time>2025-07-12T12:41:30.747Z</time>
      </trkpt>
      <trkpt lat="46.00321" lon="5.64825">
        <ele>863</ele>
        <time>2025-07-12T12:41:49.756Z</time>
      </trkpt>
      <trkpt lat="46.00321" lon="5.64825">
        <ele>863</ele>
        <time>2025-07-12T12:41:54.738Z</time>
      </trkpt>
      <trkpt lat="46.00324" lon="5.64828">
        <ele>863</ele>
        <time>2025-07-12T12:41:58.746Z</time>
      </trkpt>
      <trkpt lat="46.00327" lon="5.64833">
        <ele>863</ele>
        <time>2025-07-12T12:42:03.272Z</time>
      </trkpt>
      <trkpt lat="46.00332" lon="5.64837">
        <ele>863</ele>
        <time>2025-07-12T12:42:07.755Z</time>
      </trkpt>
      <trkpt lat="46.00334" lon="5.64839">
        <ele>863</ele>
        <time>2025-07-12T12:42:12.730Z</time>
      </trkpt>
      <trkpt lat="46.00338" lon="5.64846">
        <ele>863</ele>
        <time>2025-07-12T12:42:16.751Z</time>
      </trkpt>
      <trkpt lat="46.0034" lon="5.64853">
        <ele>859</ele>
        <time>2025-07-12T12:42:21.212Z</time>
      </trkpt>
      <trkpt lat="46.00343" lon="5.64861">
        <ele>859</ele>
        <time>2025-07-12T12:42:25.592Z</time>
      </trkpt>
      <trkpt lat="46.00342" lon="5.6487">
        <ele>859</ele>
        <time>2025-07-12T12:42:29.736Z</time>
      </trkpt>
      <trkpt lat="46.00344" lon="5.64883">
        <ele>858</ele>
        <time>2025-07-12T12:42:34.744Z</time>
      </trkpt>
      <trkpt lat="46.00347" lon="5.64895">
        <ele>858</ele>
        <time>2025-07-12T12:42:39.430Z</time>
      </trkpt>
      <trkpt lat="46.00352" lon="5.64902">
        <ele>862</ele>
        <time>2025-07-12T12:42:44.499Z</time>
      </trkpt>
      <trkpt lat="46.00356" lon="5.64909">
        <ele>859</ele>
        <time>2025-07-12T12:42:49.099Z</time>
      </trkpt>
      <trkpt lat="46.0036" lon="5.64916">
        <ele>859</ele>
        <time>2025-07-12T12:42:53.697Z</time>
      </trkpt>
      <trkpt lat="46.00365" lon="5.64923">
        <ele>859</ele>
        <time>2025-07-12T12:42:58.077Z</time>
      </trkpt>
      <trkpt lat="46.00369" lon="5.64928">
        <ele>859</ele>
        <time>2025-07-12T12:43:02.159Z</time>
      </trkpt>
      <trkpt lat="46.00371" lon="5.64936">
        <ele>857</ele>
        <time>2025-07-12T12:43:06.517Z</time>
      </trkpt>
      <trkpt lat="46.00375" lon="5.64942">
        <ele>857</ele>
        <time>2025-07-12T12:43:10.750Z</time>
      </trkpt>
      <trkpt lat="46.00379" lon="5.64948">
        <ele>862</ele>
        <time>2025-07-12T12:43:15.378Z</time>
      </trkpt>
      <trkpt lat="46.00383" lon="5.64957">
        <ele>862</ele>
        <time>2025-07-12T12:43:19.961Z</time>
      </trkpt>
      <trkpt lat="46.00386" lon="5.64964">
        <ele>861</ele>
        <time>2025-07-12T12:43:23.956Z</time>
      </trkpt>
      <trkpt lat="46.00389" lon="5.6497">
        <ele>861</ele>
        <time>2025-07-12T12:43:28.038Z</time>
      </trkpt>
      <trkpt lat="46.00392" lon="5.64979">
        <ele>861</ele>
        <time>2025-07-12T12:43:32.557Z</time>
      </trkpt>
      <trkpt lat="46.00396" lon="5.64985">
        <ele>861</ele>
        <time>2025-07-12T12:43:36.733Z</time>
      </trkpt>
      <trkpt lat="46.00401" lon="5.64991">
        <ele>860</ele>
        <time>2025-07-12T12:43:41.137Z</time>
      </trkpt>
      <trkpt lat="46.00406" lon="5.64995">
        <ele>866</ele>
        <time>2025-07-12T12:43:45.316Z</time>
      </trkpt>
      <trkpt lat="46.00411" lon="5.64998">
        <ele>866</ele>
        <time>2025-07-12T12:43:49.577Z</time>
      </trkpt>
      <trkpt lat="46.00416" lon="5.65004">
        <ele>866</ele>
        <time>2025-07-12T12:43:54.175Z</time>
      </trkpt>
      <trkpt lat="46.00422" lon="5.65009">
        <ele>866</ele>
        <time>2025-07-12T12:43:58.276Z</time>
      </trkpt>
      <trkpt lat="46.00426" lon="5.65015">
        <ele>862</ele>
        <time>2025-07-12T12:44:02.554Z</time>
      </trkpt>
      <trkpt lat="46.0043" lon="5.65021">
        <ele>862</ele>
        <time>2025-07-12T12:44:07.097Z</time>
      </trkpt>
      <trkpt lat="46.00432" lon="5.65026">
        <ele>866</ele>
        <time>2025-07-12T12:44:11.494Z</time>
      </trkpt>
      <trkpt lat="46.00434" lon="5.65031">
        <ele>866</ele>
        <time>2025-07-12T12:44:16.036Z</time>
      </trkpt>
      <trkpt lat="46.00437" lon="5.65037">
        <ele>866</ele>
        <time>2025-07-12T12:44:20.535Z</time>
      </trkpt>
      <trkpt lat="46.00442" lon="5.65041">
        <ele>866</ele>
        <time>2025-07-12T12:44:25.395Z</time>
      </trkpt>
      <trkpt lat="46.00446" lon="5.65041">
        <ele>866</ele>
        <time>2025-07-12T12:44:29.692Z</time>
      </trkpt>
      <trkpt lat="46.00453" lon="5.65036">
        <ele>866</ele>
        <time>2025-07-12T12:44:34.157Z</time>
      </trkpt>
      <trkpt lat="46.00459" lon="5.65031">
        <ele>869</ele>
        <time>2025-07-12T12:44:38.191Z</time>
      </trkpt>
      <trkpt lat="46.00465" lon="5.65025">
        <ele>869</ele>
        <time>2025-07-12T12:44:42.672Z</time>
      </trkpt>
      <trkpt lat="46.0047" lon="5.65024">
        <ele>869</ele>
        <time>2025-07-12T12:44:46.738Z</time>
      </trkpt>
      <trkpt lat="46.00473" lon="5.65022">
        <ele>869</ele>
        <time>2025-07-12T12:44:50.748Z</time>
      </trkpt>
      <trkpt lat="46.00477" lon="5.65019">
        <ele>869</ele>
        <time>2025-07-12T12:44:54.751Z</time>
      </trkpt>
      <trkpt lat="46.00479" lon="5.65017">
        <ele>869</ele>
        <time>2025-07-12T12:44:59.745Z</time>
      </trkpt>
      <trkpt lat="46.0048" lon="5.65016">
        <ele>869</ele>
        <time>2025-07-12T12:45:04.743Z</time>
      </trkpt>
      <trkpt lat="46.00486" lon="5.65011">
        <ele>875</ele>
        <time>2025-07-12T12:45:09.341Z</time>
      </trkpt>
      <trkpt lat="46.00492" lon="5.65005">
        <ele>874</ele>
        <time>2025-07-12T12:45:13.379Z</time>
      </trkpt>
      <trkpt lat="46.00497" lon="5.64999">
        <ele>874</ele>
        <time>2025-07-12T12:45:17.735Z</time>
      </trkpt>
      <trkpt lat="46.00502" lon="5.64995">
        <ele>874</ele>
        <time>2025-07-12T12:45:21.738Z</time>
      </trkpt>
      <trkpt lat="46.00506" lon="5.64993">
        <ele>874</ele>
        <time>2025-07-12T12:45:26.600Z</time>
      </trkpt>
      <trkpt lat="46.0051" lon="5.64988">
        <ele>874</ele>
        <time>2025-07-12T12:45:31.498Z</time>
      </trkpt>
      <trkpt lat="46.00514" lon="5.64982">
        <ele>880</ele>
        <time>2025-07-12T12:45:35.539Z</time>
      </trkpt>
      <trkpt lat="46.00518" lon="5.64978">
        <ele>880</ele>
        <time>2025-07-12T12:45:39.752Z</time>
      </trkpt>
      <trkpt lat="46.00523" lon="5.64973">
        <ele>880</ele>
        <time>2025-07-12T12:45:43.877Z</time>
      </trkpt>
      <trkpt lat="46.00528" lon="5.64968">
        <ele>880</ele>
        <time>2025-07-12T12:45:48.753Z</time>
      </trkpt>
      <trkpt lat="46.00533" lon="5.64964">
        <ele>880</ele>
        <time>2025-07-12T12:45:53.357Z</time>
      </trkpt>
      <trkpt lat="46.00538" lon="5.64959">
        <ele>880</ele>
        <time>2025-07-12T12:45:57.716Z</time>
      </trkpt>
      <trkpt lat="46.00543" lon="5.64951">
        <ele>886</ele>
        <time>2025-07-12T12:46:02.156Z</time>
      </trkpt>
      <trkpt lat="46.00548" lon="5.64945">
        <ele>886</ele>
        <time>2025-07-12T12:46:06.417Z</time>
      </trkpt>
      <trkpt lat="46.00554" lon="5.64939">
        <ele>886</ele>
        <time>2025-07-12T12:46:10.749Z</time>
      </trkpt>
      <trkpt lat="46.00559" lon="5.64932">
        <ele>886</ele>
        <time>2025-07-12T12:46:15.755Z</time>
      </trkpt>
      <trkpt lat="46.00563" lon="5.64927">
        <ele>892</ele>
        <time>2025-07-12T12:46:20.214Z</time>
      </trkpt>
      <trkpt lat="46.00566" lon="5.64921">
        <ele>892</ele>
        <time>2025-07-12T12:46:24.553Z</time>
      </trkpt>
      <trkpt lat="46.0057" lon="5.64915">
        <ele>891</ele>
        <time>2025-07-12T12:46:28.744Z</time>
      </trkpt>
      <trkpt lat="46.00576" lon="5.64908">
        <ele>891</ele>
        <time>2025-07-12T12:46:33.740Z</time>
      </trkpt>
      <trkpt lat="46.00581" lon="5.64904">
        <ele>891</ele>
        <time>2025-07-12T12:46:37.746Z</time>
      </trkpt>
      <trkpt lat="46.00586" lon="5.649">
        <ele>895</ele>
        <time>2025-07-12T12:46:42.747Z</time>
      </trkpt>
      <trkpt lat="46.0059" lon="5.64891">
        <ele>895</ele>
        <time>2025-07-12T12:46:47.740Z</time>
      </trkpt>
      <trkpt lat="46.00592" lon="5.64886">
        <ele>895</ele>
        <time>2025-07-12T12:46:51.994Z</time>
      </trkpt>
      <trkpt lat="46.00594" lon="5.64878">
        <ele>895</ele>
        <time>2025-07-12T12:46:56.113Z</time>
      </trkpt>
      <trkpt lat="46.00595" lon="5.64871">
        <ele>897</ele>
        <time>2025-07-12T12:47:00.313Z</time>
      </trkpt>
      <trkpt lat="46.00598" lon="5.64866">
        <ele>894</ele>
        <time>2025-07-12T12:47:04.749Z</time>
      </trkpt>
      <trkpt lat="46.00599" lon="5.64858">
        <ele>894</ele>
        <time>2025-07-12T12:47:08.744Z</time>
      </trkpt>
      <trkpt lat="46.00604" lon="5.64851">
        <ele>894</ele>
        <time>2025-07-12T12:47:13.757Z</time>
      </trkpt>
      <trkpt lat="46.0061" lon="5.6485">
        <ele>894</ele>
        <time>2025-07-12T12:47:18.132Z</time>
      </trkpt>
      <trkpt lat="46.00615" lon="5.64852">
        <ele>894</ele>
        <time>2025-07-12T12:47:22.748Z</time>
      </trkpt>
      <trkpt lat="46.0062" lon="5.64853">
        <ele>894</ele>
        <time>2025-07-12T12:47:27.239Z</time>
      </trkpt>
      <trkpt lat="46.00625" lon="5.64854">
        <ele>889</ele>
        <time>2025-07-12T12:47:31.280Z</time>
      </trkpt>
      <trkpt lat="46.0063" lon="5.64855">
        <ele>889</ele>
        <time>2025-07-12T12:47:35.319Z</time>
      </trkpt>
      <trkpt lat="46.00637" lon="5.64856">
        <ele>889</ele>
        <time>2025-07-12T12:47:39.753Z</time>
      </trkpt>
      <trkpt lat="46.00644" lon="5.64857">
        <ele>889</ele>
        <time>2025-07-12T12:47:44.098Z</time>
      </trkpt>
      <trkpt lat="46.00651" lon="5.64858">
        <ele>889</ele>
        <time>2025-07-12T12:47:48.368Z</time>
      </trkpt>
      <trkpt lat="46.00659" lon="5.64859">
        <ele>885</ele>
        <time>2025-07-12T12:47:52.751Z</time>
      </trkpt>
      <trkpt lat="46.00666" lon="5.64861">
        <ele>885</ele>
        <time>2025-07-12T12:47:57.756Z</time>
      </trkpt>
      <trkpt lat="46.00672" lon="5.64862">
        <ele>885</ele>
        <time>2025-07-12T12:48:02.095Z</time>
      </trkpt>
      <trkpt lat="46.00678" lon="5.64864">
        <ele>885</ele>
        <time>2025-07-12T12:48:06.336Z</time>
      </trkpt>
      <trkpt lat="46.00683" lon="5.64864">
        <ele>883</ele>
        <time>2025-07-12T12:48:10.374Z</time>
      </trkpt>
      <trkpt lat="46.00689" lon="5.64865">
        <ele>883</ele>
        <time>2025-07-12T12:48:14.737Z</time>
      </trkpt>
      <trkpt lat="46.00696" lon="5.64865">
        <ele>883</ele>
        <time>2025-07-12T12:48:19.492Z</time>
      </trkpt>
      <trkpt lat="46.007" lon="5.64867">
        <ele>883</ele>
        <time>2025-07-12T12:48:23.493Z</time>
      </trkpt>
      <trkpt lat="46.00708" lon="5.64864">
        <ele>883</ele>
        <time>2025-07-12T12:48:28.191Z</time>
      </trkpt>
      <trkpt lat="46.00714" lon="5.64862">
        <ele>885</ele>
        <time>2025-07-12T12:48:32.551Z</time>
      </trkpt>
      <trkpt lat="46.0072" lon="5.64858">
        <ele>885</ele>
        <time>2025-07-12T12:48:36.755Z</time>
      </trkpt>
      <trkpt lat="46.00726" lon="5.64855">
        <ele>885</ele>
        <time>2025-07-12T12:48:40.880Z</time>
      </trkpt>
      <trkpt lat="46.00731" lon="5.64852">
        <ele>885</ele>
        <time>2025-07-12T12:48:45Z</time>
      </trkpt>
      <trkpt lat="46.00734" lon="5.64848">
        <ele>885</ele>
        <time>2025-07-12T12:48:49.257Z</time>
      </trkpt>
      <trkpt lat="46.00739" lon="5.64844">
        <ele>895</ele>
        <time>2025-07-12T12:48:53.317Z</time>
      </trkpt>
      <trkpt lat="46.00744" lon="5.64841">
        <ele>895</ele>
        <time>2025-07-12T12:48:57.517Z</time>
      </trkpt>
      <trkpt lat="46.0075" lon="5.64839">
        <ele>895</ele>
        <time>2025-07-12T12:49:01.759Z</time>
      </trkpt>
      <trkpt lat="46.00756" lon="5.64833">
        <ele>895</ele>
        <time>2025-07-12T12:49:06.237Z</time>
      </trkpt>
      <trkpt lat="46.0076" lon="5.64832">
        <ele>895</ele>
        <time>2025-07-12T12:49:10.418Z</time>
      </trkpt>
      <trkpt lat="46.00766" lon="5.64829">
        <ele>898</ele>
        <time>2025-07-12T12:49:14.697Z</time>
      </trkpt>
      <trkpt lat="46.0077" lon="5.64824">
        <ele>898</ele>
        <time>2025-07-12T12:49:18.976Z</time>
      </trkpt>
      <trkpt lat="46.00774" lon="5.64818">
        <ele>903</ele>
        <time>2025-07-12T12:49:23.749Z</time>
      </trkpt>
      <trkpt lat="46.00779" lon="5.64813">
        <ele>903</ele>
        <time>2025-07-12T12:49:28.055Z</time>
      </trkpt>
      <trkpt lat="46.0078" lon="5.64806">
        <ele>903</ele>
        <time>2025-07-12T12:49:32.254Z</time>
      </trkpt>
      <trkpt lat="46.00785" lon="5.64798">
        <ele>903</ele>
        <time>2025-07-12T12:49:36.534Z</time>
      </trkpt>
      <trkpt lat="46.0079" lon="5.64792">
        <ele>903</ele>
        <time>2025-07-12T12:49:40.733Z</time>
      </trkpt>
      <trkpt lat="46.00794" lon="5.64784">
        <ele>905</ele>
        <time>2025-07-12T12:49:44.751Z</time>
      </trkpt>
      <trkpt lat="46.00799" lon="5.64778">
        <ele>905</ele>
        <time>2025-07-12T12:49:49.747Z</time>
      </trkpt>
      <trkpt lat="46.00804" lon="5.64773">
        <ele>905</ele>
        <time>2025-07-12T12:49:53.756Z</time>
      </trkpt>
      <trkpt lat="46.0081" lon="5.64768">
        <ele>905</ele>
        <time>2025-07-12T12:49:58.755Z</time>
      </trkpt>
      <trkpt lat="46.00815" lon="5.64766">
        <ele>905</ele>
        <time>2025-07-12T12:50:03.572Z</time>
      </trkpt>
      <trkpt lat="46.00822" lon="5.64764">
        <ele>907</ele>
        <time>2025-07-12T12:50:08.633Z</time>
      </trkpt>
      <trkpt lat="46.00827" lon="5.64762">
        <ele>907</ele>
        <time>2025-07-12T12:50:13.350Z</time>
      </trkpt>
      <trkpt lat="46.00832" lon="5.64764">
        <ele>902</ele>
        <time>2025-07-12T12:50:17.748Z</time>
      </trkpt>
      <trkpt lat="46.00838" lon="5.6477">
        <ele>902</ele>
        <time>2025-07-12T12:50:21.890Z</time>
      </trkpt>
      <trkpt lat="46.00843" lon="5.64777">
        <ele>902</ele>
        <time>2025-07-12T12:50:25.940Z</time>
      </trkpt>
      <trkpt lat="46.0085" lon="5.64783">
        <ele>904</ele>
        <time>2025-07-12T12:50:30.497Z</time>
      </trkpt>
      <trkpt lat="46.00854" lon="5.64791">
        <ele>904</ele>
        <time>2025-07-12T12:50:34.655Z</time>
      </trkpt>
      <trkpt lat="46.00858" lon="5.64799">
        <ele>900</ele>
        <time>2025-07-12T12:50:38.740Z</time>
      </trkpt>
      <trkpt lat="46.00861" lon="5.64805">
        <ele>900</ele>
        <time>2025-07-12T12:50:42.934Z</time>
      </trkpt>
      <trkpt lat="46.00864" lon="5.6481">
        <ele>900</ele>
        <time>2025-07-12T12:50:47.236Z</time>
      </trkpt>
      <trkpt lat="46.00868" lon="5.64818">
        <ele>900</ele>
        <time>2025-07-12T12:50:51.748Z</time>
      </trkpt>
      <trkpt lat="46.00871" lon="5.64823">
        <ele>894</ele>
        <time>2025-07-12T12:50:56.134Z</time>
      </trkpt>
      <trkpt lat="46.00876" lon="5.64828">
        <ele>897</ele>
        <time>2025-07-12T12:51:00.751Z</time>
      </trkpt>
      <trkpt lat="46.00883" lon="5.6483">
        <ele>897</ele>
        <time>2025-07-12T12:51:05.114Z</time>
      </trkpt>
      <trkpt lat="46.00889" lon="5.64832">
        <ele>897</ele>
        <time>2025-07-12T12:51:09.753Z</time>
      </trkpt>
      <trkpt lat="46.00895" lon="5.64834">
        <ele>897</ele>
        <time>2025-07-12T12:51:14.174Z</time>
      </trkpt>
      <trkpt lat="46.00901" lon="5.64836">
        <ele>897</ele>
        <time>2025-07-12T12:51:18.375Z</time>
      </trkpt>
      <trkpt lat="46.0091" lon="5.64834">
        <ele>898</ele>
        <time>2025-07-12T12:51:23.453Z</time>
      </trkpt>
      <trkpt lat="46.00916" lon="5.64832">
        <ele>898</ele>
        <time>2025-07-12T12:51:27.473Z</time>
      </trkpt>
      <trkpt lat="46.00922" lon="5.64833">
        <ele>898</ele>
        <time>2025-07-12T12:51:31.759Z</time>
      </trkpt>
      <trkpt lat="46.00928" lon="5.64837">
        <ele>898</ele>
        <time>2025-07-12T12:51:36.750Z</time>
      </trkpt>
      <trkpt lat="46.00934" lon="5.64841">
        <ele>899</ele>
        <time>2025-07-12T12:51:41.732Z</time>
      </trkpt>
      <trkpt lat="46.00937" lon="5.64843">
        <ele>899</ele>
        <time>2025-07-12T12:51:45.747Z</time>
      </trkpt>
      <trkpt lat="46.00941" lon="5.64846">
        <ele>899</ele>
        <time>2025-07-12T12:51:50.741Z</time>
      </trkpt>
      <trkpt lat="46.00943" lon="5.64845">
        <ele>899</ele>
        <time>2025-07-12T12:51:55.748Z</time>
      </trkpt>
      <trkpt lat="46.0095" lon="5.64843">
        <ele>899</ele>
        <time>2025-07-12T12:52:23.613Z</time>
      </trkpt>
      <trkpt lat="46.00951" lon="5.64843">
        <ele>899</ele>
        <time>2025-07-12T12:52:27.750Z</time>
      </trkpt>
      <trkpt lat="46.00951" lon="5.64842">
        <ele>899</ele>
        <time>2025-07-12T12:52:31.754Z</time>
      </trkpt>
      <trkpt lat="46.00951" lon="5.64842">
        <ele>899</ele>
        <time>2025-07-12T12:52:36.754Z</time>
      </trkpt>
      <trkpt lat="46.00958" lon="5.64838">
        <ele>899</ele>
        <time>2025-07-12T12:52:40.752Z</time>
      </trkpt>
      <trkpt lat="46.0097" lon="5.64831">
        <ele>894</ele>
        <time>2025-07-12T12:52:45.761Z</time>
      </trkpt>
      <trkpt lat="46.00979" lon="5.64823">
        <ele>894</ele>
        <time>2025-07-12T12:52:50.752Z</time>
      </trkpt>
      <trkpt lat="46.00985" lon="5.64815">
        <ele>900</ele>
        <time>2025-07-12T12:52:55.749Z</time>
      </trkpt>
      <trkpt lat="46.00989" lon="5.64806">
        <ele>891</ele>
        <time>2025-07-12T12:53:00.751Z</time>
      </trkpt>
      <trkpt lat="46.00995" lon="5.64793">
        <ele>891</ele>
        <time>2025-07-12T12:53:05.744Z</time>
      </trkpt>
      <trkpt lat="46.00998" lon="5.64785">
        <ele>897</ele>
        <time>2025-07-12T12:53:09.744Z</time>
      </trkpt>
      <trkpt lat="46.01" lon="5.6478">
        <ele>897</ele>
        <time>2025-07-12T12:53:14.317Z</time>
      </trkpt>
      <trkpt lat="46.01005" lon="5.64773">
        <ele>897</ele>
        <time>2025-07-12T12:53:18.658Z</time>
      </trkpt>
      <trkpt lat="46.01008" lon="5.64768">
        <ele>897</ele>
        <time>2025-07-12T12:53:23.056Z</time>
      </trkpt>
      <trkpt lat="46.01011" lon="5.64761">
        <ele>903</ele>
        <time>2025-07-12T12:53:27.379Z</time>
      </trkpt>
      <trkpt lat="46.01013" lon="5.64754">
        <ele>903</ele>
        <time>2025-07-12T12:53:31.518Z</time>
      </trkpt>
      <trkpt lat="46.01016" lon="5.64747">
        <ele>894</ele>
        <time>2025-07-12T12:53:35.579Z</time>
      </trkpt>
      <trkpt lat="46.01018" lon="5.6474">
        <ele>894</ele>
        <time>2025-07-12T12:53:39.697Z</time>
      </trkpt>
      <trkpt lat="46.01023" lon="5.64736">
        <ele>900</ele>
        <time>2025-07-12T12:53:43.745Z</time>
      </trkpt>
      <trkpt lat="46.01027" lon="5.64729">
        <ele>900</ele>
        <time>2025-07-12T12:53:47.930Z</time>
      </trkpt>
      <trkpt lat="46.01033" lon="5.64724">
        <ele>900</ele>
        <time>2025-07-12T12:53:52.655Z</time>
      </trkpt>
      <trkpt lat="46.01037" lon="5.64722">
        <ele>900</ele>
        <time>2025-07-12T12:53:57.091Z</time>
      </trkpt>
      <trkpt lat="46.0104" lon="5.64725">
        <ele>900</ele>
        <time>2025-07-12T12:54:01.313Z</time>
      </trkpt>
      <trkpt lat="46.01041" lon="5.64729">
        <ele>900</ele>
        <time>2025-07-12T12:54:05.762Z</time>
      </trkpt>
      <trkpt lat="46.01046" lon="5.64731">
        <ele>898</ele>
        <time>2025-07-12T12:54:10.192Z</time>
      </trkpt>
      <trkpt lat="46.0105" lon="5.64736">
        <ele>898</ele>
        <time>2025-07-12T12:54:14.746Z</time>
      </trkpt>
      <trkpt lat="46.01052" lon="5.64741">
        <ele>895</ele>
        <time>2025-07-12T12:54:18.746Z</time>
      </trkpt>
      <trkpt lat="46.01054" lon="5.64746">
        <ele>895</ele>
        <time>2025-07-12T12:54:23.055Z</time>
      </trkpt>
      <trkpt lat="46.01057" lon="5.64752">
        <ele>895</ele>
        <time>2025-07-12T12:54:27.351Z</time>
      </trkpt>
      <trkpt lat="46.01061" lon="5.64759">
        <ele>895</ele>
        <time>2025-07-12T12:54:31.730Z</time>
      </trkpt>
      <trkpt lat="46.01064" lon="5.64767">
        <ele>891</ele>
        <time>2025-07-12T12:54:36.741Z</time>
      </trkpt>
      <trkpt lat="46.01065" lon="5.64773">
        <ele>891</ele>
        <time>2025-07-12T12:54:41.420Z</time>
      </trkpt>
      <trkpt lat="46.01065" lon="5.64774">
        <ele>891</ele>
        <time>2025-07-12T12:54:45.741Z</time>
      </trkpt>
      <trkpt lat="46.01071" lon="5.64784">
        <ele>899</ele>
        <time>2025-07-12T12:54:50.038Z</time>
      </trkpt>
      <trkpt lat="46.01074" lon="5.64794">
        <ele>894</ele>
        <time>2025-07-12T12:54:54.179Z</time>
      </trkpt>
      <trkpt lat="46.01077" lon="5.64805">
        <ele>894</ele>
        <time>2025-07-12T12:54:58.438Z</time>
      </trkpt>
      <trkpt lat="46.01078" lon="5.64815">
        <ele>894</ele>
        <time>2025-07-12T12:55:02.520Z</time>
      </trkpt>
      <trkpt lat="46.01079" lon="5.64826">
        <ele>890</ele>
        <time>2025-07-12T12:55:07.179Z</time>
      </trkpt>
      <trkpt lat="46.0108" lon="5.64836">
        <ele>890</ele>
        <time>2025-07-12T12:55:11.219Z</time>
      </trkpt>
      <trkpt lat="46.01081" lon="5.64843">
        <ele>890</ele>
        <time>2025-07-12T12:55:15.750Z</time>
      </trkpt>
      <trkpt lat="46.01084" lon="5.64848">
        <ele>886</ele>
        <time>2025-07-12T12:55:19.746Z</time>
      </trkpt>
      <trkpt lat="46.01093" lon="5.64854">
        <ele>886</ele>
        <time>2025-07-12T12:55:35.158Z</time>
      </trkpt>
      <trkpt lat="46.01098" lon="5.64855">
        <ele>892</ele>
        <time>2025-07-12T12:55:39.579Z</time>
      </trkpt>
      <trkpt lat="46.01106" lon="5.64855">
        <ele>892</ele>
        <time>2025-07-12T12:55:44.436Z</time>
      </trkpt>
      <trkpt lat="46.0111" lon="5.64854">
        <ele>892</ele>
        <time>2025-07-12T12:55:48.496Z</time>
      </trkpt>
      <trkpt lat="46.01115" lon="5.64851">
        <ele>892</ele>
        <time>2025-07-12T12:55:52.745Z</time>
      </trkpt>
      <trkpt lat="46.01121" lon="5.64847">
        <ele>895</ele>
        <time>2025-07-12T12:55:57.095Z</time>
      </trkpt>
      <trkpt lat="46.01129" lon="5.64841">
        <ele>898</ele>
        <time>2025-07-12T12:56:01.731Z</time>
      </trkpt>
      <trkpt lat="46.01135" lon="5.64838">
        <ele>898</ele>
        <time>2025-07-12T12:56:05.793Z</time>
      </trkpt>
      <trkpt lat="46.01139" lon="5.64834">
        <ele>898</ele>
        <time>2025-07-12T12:56:09.954Z</time>
      </trkpt>
      <trkpt lat="46.01145" lon="5.64832">
        <ele>898</ele>
        <time>2025-07-12T12:56:14.737Z</time>
      </trkpt>
      <trkpt lat="46.01153" lon="5.64829">
        <ele>898</ele>
        <time>2025-07-12T12:56:19.111Z</time>
      </trkpt>
      <trkpt lat="46.01156" lon="5.64824">
        <ele>900</ele>
        <time>2025-07-12T12:56:23.742Z</time>
      </trkpt>
      <trkpt lat="46.01157" lon="5.64824">
        <ele>900</ele>
        <time>2025-07-12T12:56:28.534Z</time>
      </trkpt>
      <trkpt lat="46.01162" lon="5.64817">
        <ele>903</ele>
        <time>2025-07-12T12:56:33.133Z</time>
      </trkpt>
      <trkpt lat="46.01168" lon="5.64809">
        <ele>903</ele>
        <time>2025-07-12T12:56:37.653Z</time>
      </trkpt>
      <trkpt lat="46.01171" lon="5.64801">
        <ele>903</ele>
        <time>2025-07-12T12:56:42.410Z</time>
      </trkpt>
      <trkpt lat="46.01175" lon="5.64796">
        <ele>903</ele>
        <time>2025-07-12T12:56:46.744Z</time>
      </trkpt>
      <trkpt lat="46.01178" lon="5.6479">
        <ele>907</ele>
        <time>2025-07-12T12:56:51.332Z</time>
      </trkpt>
      <trkpt lat="46.0118" lon="5.64783">
        <ele>907</ele>
        <time>2025-07-12T12:56:55.747Z</time>
      </trkpt>
      <trkpt lat="46.0118" lon="5.64783">
        <ele>907</ele>
        <time>2025-07-12T12:57:00.738Z</time>
      </trkpt>
      <trkpt lat="46.0118" lon="5.64783">
        <ele>907</ele>
        <time>2025-07-12T12:57:05.518Z</time>
      </trkpt>
      <trkpt lat="46.01182" lon="5.64776">
        <ele>907</ele>
        <time>2025-07-12T12:57:09.750Z</time>
      </trkpt>
      <trkpt lat="46.01187" lon="5.64762">
        <ele>910</ele>
        <time>2025-07-12T12:57:18.747Z</time>
      </trkpt>
      <trkpt lat="46.01187" lon="5.64762">
        <ele>910</ele>
        <time>2025-07-12T12:57:22.743Z</time>
      </trkpt>
      <trkpt lat="46.01189" lon="5.6476">
        <ele>910</ele>
        <time>2025-07-12T12:57:27.749Z</time>
      </trkpt>
      <trkpt lat="46.0119" lon="5.64759">
        <ele>910</ele>
        <time>2025-07-12T12:57:31.752Z</time>
      </trkpt>
      <trkpt lat="46.0119" lon="5.64757">
        <ele>910</ele>
        <time>2025-07-12T12:57:35.751Z</time>
      </trkpt>
      <trkpt lat="46.01192" lon="5.64744">
        <ele>910</ele>
        <time>2025-07-12T12:58:15.735Z</time>
      </trkpt>
      <trkpt lat="46.01192" lon="5.64744">
        <ele>910</ele>
        <time>2025-07-12T12:58:20.705Z</time>
      </trkpt>
      <trkpt lat="46.01192" lon="5.64743">
        <ele>910</ele>
        <time>2025-07-12T12:58:25.704Z</time>
      </trkpt>
      <trkpt lat="46.01193" lon="5.64742">
        <ele>910</ele>
        <time>2025-07-12T12:58:30.699Z</time>
      </trkpt>
      <trkpt lat="46.01193" lon="5.6474">
        <ele>910</ele>
        <time>2025-07-12T12:58:34.711Z</time>
      </trkpt>
      <trkpt lat="46.01199" lon="5.64733">
        <ele>914</ele>
        <time>2025-07-12T13:01:31.701Z</time>
      </trkpt>
      <trkpt lat="46.012" lon="5.64733">
        <ele>914</ele>
        <time>2025-07-12T13:01:36.709Z</time>
      </trkpt>
      <trkpt lat="46.012" lon="5.64733">
        <ele>914</ele>
        <time>2025-07-12T13:01:40.709Z</time>
      </trkpt>
      <trkpt lat="46.012" lon="5.64732">
        <ele>914</ele>
        <time>2025-07-12T13:01:46.696Z</time>
      </trkpt>
      <trkpt lat="46.01201" lon="5.64732">
        <ele>914</ele>
        <time>2025-07-12T13:01:50.706Z</time>
      </trkpt>
      <trkpt lat="46.01201" lon="5.64732">
        <ele>914</ele>
        <time>2025-07-12T13:01:54.706Z</time>
      </trkpt>
      <trkpt lat="46.01202" lon="5.64731">
        <ele>914</ele>
        <time>2025-07-12T13:01:59.707Z</time>
      </trkpt>
      <trkpt lat="46.01206" lon="5.64726">
        <ele>914</ele>
        <time>2025-07-12T13:02:03.731Z</time>
      </trkpt>
      <trkpt lat="46.01208" lon="5.64726">
        <ele>914</ele>
        <time>2025-07-12T13:02:07.733Z</time>
      </trkpt>
      <trkpt lat="46.01209" lon="5.64726">
        <ele>914</ele>
        <time>2025-07-12T13:02:12.739Z</time>
      </trkpt>
      <trkpt lat="46.01216" lon="5.64721">
        <ele>914</ele>
        <time>2025-07-12T13:04:19.697Z</time>
      </trkpt>
      <trkpt lat="46.01216" lon="5.64721">
        <ele>914</ele>
        <time>2025-07-12T13:04:28.694Z</time>
      </trkpt>
      <trkpt lat="46.01217" lon="5.6472">
        <ele>914</ele>
        <time>2025-07-12T13:04:34.707Z</time>
      </trkpt>
      <trkpt lat="46.0122" lon="5.64719">
        <ele>914</ele>
        <time>2025-07-12T13:04:38.743Z</time>
      </trkpt>
      <trkpt lat="46.01226" lon="5.64717">
        <ele>914</ele>
        <time>2025-07-12T13:04:42.745Z</time>
      </trkpt>
      <trkpt lat="46.01233" lon="5.64716">
        <ele>914</ele>
        <time>2025-07-12T13:04:47.756Z</time>
      </trkpt>
      <trkpt lat="46.0124" lon="5.64721">
        <ele>914</ele>
        <time>2025-07-12T13:04:52.739Z</time>
      </trkpt>
      <trkpt lat="46.01244" lon="5.64729">
        <ele>914</ele>
        <time>2025-07-12T13:04:56.752Z</time>
      </trkpt>
      <trkpt lat="46.01249" lon="5.64739">
        <ele>911</ele>
        <time>2025-07-12T13:05:01.741Z</time>
      </trkpt>
      <trkpt lat="46.01253" lon="5.64749">
        <ele>911</ele>
        <time>2025-07-12T13:05:06.747Z</time>
      </trkpt>
      <trkpt lat="46.01256" lon="5.64758">
        <ele>911</ele>
        <time>2025-07-12T13:05:11.746Z</time>
      </trkpt>
      <trkpt lat="46.01258" lon="5.64764">
        <ele>911</ele>
        <time>2025-07-12T13:05:15.741Z</time>
      </trkpt>
      <trkpt lat="46.01261" lon="5.64771">
        <ele>909</ele>
        <time>2025-07-12T13:05:20.756Z</time>
      </trkpt>
      <trkpt lat="46.01264" lon="5.64777">
        <ele>909</ele>
        <time>2025-07-12T13:05:25.533Z</time>
      </trkpt>
      <trkpt lat="46.01266" lon="5.64785">
        <ele>910</ele>
        <time>2025-07-12T13:05:29.952Z</time>
      </trkpt>
      <trkpt lat="46.01269" lon="5.64792">
        <ele>907</ele>
        <time>2025-07-12T13:05:34.572Z</time>
      </trkpt>
      <trkpt lat="46.01272" lon="5.64799">
        <ele>907</ele>
        <time>2025-07-12T13:05:38.748Z</time>
      </trkpt>
      <trkpt lat="46.01275" lon="5.64808">
        <ele>907</ele>
        <time>2025-07-12T13:05:43.211Z</time>
      </trkpt>
      <trkpt lat="46.01279" lon="5.64814">
        <ele>907</ele>
        <time>2025-07-12T13:05:47.515Z</time>
      </trkpt>
      <trkpt lat="46.01282" lon="5.64822">
        <ele>905</ele>
        <time>2025-07-12T13:05:51.691Z</time>
      </trkpt>
      <trkpt lat="46.01283" lon="5.64827">
        <ele>905</ele>
        <time>2025-07-12T13:05:55.743Z</time>
      </trkpt>
      <trkpt lat="46.01283" lon="5.64826">
        <ele>905</ele>
        <time>2025-07-12T13:06:00.050Z</time>
      </trkpt>
      <trkpt lat="46.01283" lon="5.64829">
        <ele>905</ele>
        <time>2025-07-12T13:06:04.592Z</time>
      </trkpt>
      <trkpt lat="46.01286" lon="5.64837">
        <ele>905</ele>
        <time>2025-07-12T13:06:08.748Z</time>
      </trkpt>
      <trkpt lat="46.01289" lon="5.64844">
        <ele>905</ele>
        <time>2025-07-12T13:06:13.030Z</time>
      </trkpt>
      <trkpt lat="46.01294" lon="5.64851">
        <ele>905</ele>
        <time>2025-07-12T13:06:17.446Z</time>
      </trkpt>
      <trkpt lat="46.01297" lon="5.64858">
        <ele>905</ele>
        <time>2025-07-12T13:06:21.717Z</time>
      </trkpt>
      <trkpt lat="46.01301" lon="5.64863">
        <ele>905</ele>
        <time>2025-07-12T13:06:25.747Z</time>
      </trkpt>
      <trkpt lat="46.01304" lon="5.64865">
        <ele>905</ele>
        <time>2025-07-12T13:06:29.755Z</time>
      </trkpt>
      <trkpt lat="46.01304" lon="5.64864">
        <ele>905</ele>
        <time>2025-07-12T13:06:35.217Z</time>
      </trkpt>
      <trkpt lat="46.01307" lon="5.64866">
        <ele>905</ele>
        <time>2025-07-12T13:06:39.740Z</time>
      </trkpt>
      <trkpt lat="46.01311" lon="5.64874">
        <ele>905</ele>
        <time>2025-07-12T13:06:44.746Z</time>
      </trkpt>
      <trkpt lat="46.01317" lon="5.64878">
        <ele>902</ele>
        <time>2025-07-12T13:06:49.236Z</time>
      </trkpt>
      <trkpt lat="46.01328" lon="5.64887">
        <ele>904</ele>
        <time>2025-07-12T13:07:38.740Z</time>
      </trkpt>
      <trkpt lat="46.01328" lon="5.64887">
        <ele>904</ele>
        <time>2025-07-12T13:07:48.716Z</time>
      </trkpt>
      <trkpt lat="46.01329" lon="5.64887">
        <ele>904</ele>
        <time>2025-07-12T13:07:53.708Z</time>
      </trkpt>
      <trkpt lat="46.01329" lon="5.64885">
        <ele>904</ele>
        <time>2025-07-12T13:07:57.974Z</time>
      </trkpt>
      <trkpt lat="46.0133" lon="5.64877">
        <ele>904</ele>
        <time>2025-07-12T13:08:02.153Z</time>
      </trkpt>
      <trkpt lat="46.01328" lon="5.64867">
        <ele>908</ele>
        <time>2025-07-12T13:08:47.742Z</time>
      </trkpt>
      <trkpt lat="46.01329" lon="5.64866">
        <ele>908</ele>
        <time>2025-07-12T13:08:51.755Z</time>
      </trkpt>
      <trkpt lat="46.01332" lon="5.64858">
        <ele>908</ele>
        <time>2025-07-12T13:08:56.747Z</time>
      </trkpt>
      <trkpt lat="46.01333" lon="5.64849">
        <ele>908</ele>
        <time>2025-07-12T13:09:00.752Z</time>
      </trkpt>
      <trkpt lat="46.01332" lon="5.64839">
        <ele>913</ele>
        <time>2025-07-12T13:09:05.750Z</time>
      </trkpt>
      <trkpt lat="46.01332" lon="5.6483">
        <ele>913</ele>
        <time>2025-07-12T13:09:10.752Z</time>
      </trkpt>
      <trkpt lat="46.01334" lon="5.64824">
        <ele>913</ele>
        <time>2025-07-12T13:09:14.759Z</time>
      </trkpt>
      <trkpt lat="46.01334" lon="5.64817">
        <ele>917</ele>
        <time>2025-07-12T13:09:19.754Z</time>
      </trkpt>
      <trkpt lat="46.01338" lon="5.64809">
        <ele>917</ele>
        <time>2025-07-12T13:09:24.757Z</time>
      </trkpt>
      <trkpt lat="46.0134" lon="5.648">
        <ele>917</ele>
        <time>2025-07-12T13:09:29.741Z</time>
      </trkpt>
      <trkpt lat="46.01342" lon="5.64792">
        <ele>919</ele>
        <time>2025-07-12T13:09:33.746Z</time>
      </trkpt>
      <trkpt lat="46.01345" lon="5.64784">
        <ele>919</ele>
        <time>2025-07-12T13:09:38.743Z</time>
      </trkpt>
      <trkpt lat="46.0135" lon="5.64777">
        <ele>921</ele>
        <time>2025-07-12T13:09:43.745Z</time>
      </trkpt>
      <trkpt lat="46.01349" lon="5.6477">
        <ele>921</ele>
        <time>2025-07-12T13:09:47.747Z</time>
      </trkpt>
      <trkpt lat="46.01348" lon="5.64762">
        <ele>922</ele>
        <time>2025-07-12T13:09:51.745Z</time>
      </trkpt>
      <trkpt lat="46.01348" lon="5.64759">
        <ele>922</ele>
        <time>2025-07-12T13:09:56.750Z</time>
      </trkpt>
      <trkpt lat="46.01348" lon="5.64749">
        <ele>922</ele>
        <time>2025-07-12T13:10:01.749Z</time>
      </trkpt>
      <trkpt lat="46.01346" lon="5.6474">
        <ele>921</ele>
        <time>2025-07-12T13:10:06.749Z</time>
      </trkpt>
      <trkpt lat="46.01343" lon="5.64731">
        <ele>923</ele>
        <time>2025-07-12T13:10:11.739Z</time>
      </trkpt>
      <trkpt lat="46.01341" lon="5.64724">
        <ele>923</ele>
        <time>2025-07-12T13:10:15.744Z</time>
      </trkpt>
      <trkpt lat="46.01341" lon="5.64714">
        <ele>923</ele>
        <time>2025-07-12T13:10:20.473Z</time>
      </trkpt>
      <trkpt lat="46.01341" lon="5.64707">
        <ele>927</ele>
        <time>2025-07-12T13:10:25.089Z</time>
      </trkpt>
      <trkpt lat="46.01339" lon="5.64698">
        <ele>927</ele>
        <time>2025-07-12T13:10:29.754Z</time>
      </trkpt>
      <trkpt lat="46.01337" lon="5.64691">
        <ele>927</ele>
        <time>2025-07-12T13:10:33.757Z</time>
      </trkpt>
      <trkpt lat="46.01335" lon="5.64683">
        <ele>927</ele>
        <time>2025-07-12T13:10:38.748Z</time>
      </trkpt>
      <trkpt lat="46.01332" lon="5.64673">
        <ele>931</ele>
        <time>2025-07-12T13:11:06.749Z</time>
      </trkpt>
      <trkpt lat="46.01333" lon="5.64673">
        <ele>931</ele>
        <time>2025-07-12T13:11:11.751Z</time>
      </trkpt>
      <trkpt lat="46.01332" lon="5.6467">
        <ele>931</ele>
        <time>2025-07-12T13:11:16.095Z</time>
      </trkpt>
      <trkpt lat="46.0133" lon="5.64665">
        <ele>931</ele>
        <time>2025-07-12T13:11:20.753Z</time>
      </trkpt>
      <trkpt lat="46.01329" lon="5.64663">
        <ele>931</ele>
        <time>2025-07-12T13:11:25.748Z</time>
      </trkpt>
      <trkpt lat="46.01328" lon="5.64659">
        <ele>931</ele>
        <time>2025-07-12T13:12:00.738Z</time>
      </trkpt>
      <trkpt lat="46.01328" lon="5.64658">
        <ele>931</ele>
        <time>2025-07-12T13:12:06.704Z</time>
      </trkpt>
      <trkpt lat="46.01328" lon="5.64658">
        <ele>931</ele>
        <time>2025-07-12T13:12:11.705Z</time>
      </trkpt>
      <trkpt lat="46.01328" lon="5.64657">
        <ele>931</ele>
        <time>2025-07-12T13:12:16.700Z</time>
      </trkpt>
      <trkpt lat="46.01328" lon="5.64648">
        <ele>933</ele>
        <time>2025-07-12T13:12:21.743Z</time>
      </trkpt>
      <trkpt lat="46.01328" lon="5.64635">
        <ele>933</ele>
        <time>2025-07-12T13:12:25.745Z</time>
      </trkpt>
      <trkpt lat="46.01328" lon="5.64619">
        <ele>935</ele>
        <time>2025-07-12T13:12:30.747Z</time>
      </trkpt>
      <trkpt lat="46.01327" lon="5.64614">
        <ele>935</ele>
        <time>2025-07-12T13:12:34.746Z</time>
      </trkpt>
      <trkpt lat="46.01327" lon="5.64612">
        <ele>935</ele>
        <time>2025-07-12T13:12:38.747Z</time>
      </trkpt>
      <trkpt lat="46.01329" lon="5.64604">
        <ele>935</ele>
        <time>2025-07-12T13:12:43.747Z</time>
      </trkpt>
      <trkpt lat="46.01329" lon="5.64596">
        <ele>938</ele>
        <time>2025-07-12T13:12:48.745Z</time>
      </trkpt>
      <trkpt lat="46.01331" lon="5.64586">
        <ele>938</ele>
        <time>2025-07-12T13:12:53.398Z</time>
      </trkpt>
      <trkpt lat="46.01335" lon="5.64575">
        <ele>938</ele>
        <time>2025-07-12T13:12:58.231Z</time>
      </trkpt>
      <trkpt lat="46.01338" lon="5.64564">
        <ele>941</ele>
        <time>2025-07-12T13:13:02.753Z</time>
      </trkpt>
      <trkpt lat="46.0134" lon="5.64556">
        <ele>941</ele>
        <time>2025-07-12T13:13:06.750Z</time>
      </trkpt>
      <trkpt lat="46.0134" lon="5.64553">
        <ele>941</ele>
        <time>2025-07-12T13:13:11.741Z</time>
      </trkpt>
      <trkpt lat="46.01341" lon="5.64551">
        <ele>941</ele>
        <time>2025-07-12T13:13:16.739Z</time>
      </trkpt>
      <trkpt lat="46.01344" lon="5.64543">
        <ele>941</ele>
        <time>2025-07-12T13:13:20.744Z</time>
      </trkpt>
      <trkpt lat="46.0135" lon="5.64535">
        <ele>952</ele>
        <time>2025-07-12T13:13:25.751Z</time>
      </trkpt>
      <trkpt lat="46.01352" lon="5.64528">
        <ele>952</ele>
        <time>2025-07-12T13:13:30.430Z</time>
      </trkpt>
      <trkpt lat="46.01354" lon="5.64523">
        <ele>952</ele>
        <time>2025-07-12T13:13:34.742Z</time>
      </trkpt>
      <trkpt lat="46.01356" lon="5.64515">
        <ele>952</ele>
        <time>2025-07-12T13:13:39.159Z</time>
      </trkpt>
      <trkpt lat="46.01359" lon="5.64506">
        <ele>955</ele>
        <time>2025-07-12T13:13:43.636Z</time>
      </trkpt>
      <trkpt lat="46.01362" lon="5.645">
        <ele>955</ele>
        <time>2025-07-12T13:13:47.736Z</time>
      </trkpt>
      <trkpt lat="46.01367" lon="5.64497">
        <ele>955</ele>
        <time>2025-07-12T13:13:52.176Z</time>
      </trkpt>
      <trkpt lat="46.01371" lon="5.64494">
        <ele>955</ele>
        <time>2025-07-12T13:13:56.315Z</time>
      </trkpt>
      <trkpt lat="46.01375" lon="5.64487">
        <ele>955</ele>
        <time>2025-07-12T13:14:01.756Z</time>
      </trkpt>
      <trkpt lat="46.01378" lon="5.64483">
        <ele>963</ele>
        <time>2025-07-12T13:14:06.113Z</time>
      </trkpt>
      <trkpt lat="46.01382" lon="5.64475">
        <ele>963</ele>
        <time>2025-07-12T13:14:10.743Z</time>
      </trkpt>
      <trkpt lat="46.01384" lon="5.64469">
        <ele>963</ele>
        <time>2025-07-12T13:14:15.233Z</time>
      </trkpt>
      <trkpt lat="46.01385" lon="5.64464">
        <ele>963</ele>
        <time>2025-07-12T13:14:19.331Z</time>
      </trkpt>
      <trkpt lat="46.01385" lon="5.64457">
        <ele>965</ele>
        <time>2025-07-12T13:14:23.491Z</time>
      </trkpt>
      <trkpt lat="46.01389" lon="5.64451">
        <ele>965</ele>
        <time>2025-07-12T13:14:28.232Z</time>
      </trkpt>
      <trkpt lat="46.01394" lon="5.64444">
        <ele>965</ele>
        <time>2025-07-12T13:14:32.292Z</time>
      </trkpt>
      <trkpt lat="46.01397" lon="5.64437">
        <ele>965</ele>
        <time>2025-07-12T13:14:36.433Z</time>
      </trkpt>
      <trkpt lat="46.01401" lon="5.64431">
        <ele>965</ele>
        <time>2025-07-12T13:14:40.850Z</time>
      </trkpt>
      <trkpt lat="46.01405" lon="5.64425">
        <ele>970</ele>
        <time>2025-07-12T13:14:45.092Z</time>
      </trkpt>
      <trkpt lat="46.01409" lon="5.64419">
        <ele>970</ele>
        <time>2025-07-12T13:14:49.754Z</time>
      </trkpt>
      <trkpt lat="46.01411" lon="5.64409">
        <ele>970</ele>
        <time>2025-07-12T13:14:54.751Z</time>
      </trkpt>
      <trkpt lat="46.01412" lon="5.64402">
        <ele>973</ele>
        <time>2025-07-12T13:14:59.531Z</time>
      </trkpt>
      <trkpt lat="46.01416" lon="5.64394">
        <ele>973</ele>
        <time>2025-07-12T13:15:03.670Z</time>
      </trkpt>
      <trkpt lat="46.01421" lon="5.64384">
        <ele>973</ele>
        <time>2025-07-12T13:15:17.218Z</time>
      </trkpt>
      <trkpt lat="46.0142" lon="5.64383">
        <ele>973</ele>
        <time>2025-07-12T13:15:21.438Z</time>
      </trkpt>
      <trkpt lat="46.0142" lon="5.64374">
        <ele>977</ele>
        <time>2025-07-12T13:15:25.737Z</time>
      </trkpt>
      <trkpt lat="46.0142" lon="5.64364">
        <ele>977</ele>
        <time>2025-07-12T13:15:30.740Z</time>
      </trkpt>
      <trkpt lat="46.0142" lon="5.64357">
        <ele>977</ele>
        <time>2025-07-12T13:15:34.745Z</time>
      </trkpt>
      <trkpt lat="46.01422" lon="5.64349">
        <ele>977</ele>
        <time>2025-07-12T13:15:39.745Z</time>
      </trkpt>
      <trkpt lat="46.01423" lon="5.64347">
        <ele>980</ele>
        <time>2025-07-12T13:15:44.255Z</time>
      </trkpt>
      <trkpt lat="46.01423" lon="5.64345">
        <ele>980</ele>
        <time>2025-07-12T13:15:48.749Z</time>
      </trkpt>
      <trkpt lat="46.01423" lon="5.64344">
        <ele>980</ele>
        <time>2025-07-12T13:15:52.753Z</time>
      </trkpt>
      <trkpt lat="46.01429" lon="5.64338">
        <ele>980</ele>
        <time>2025-07-12T13:15:57.745Z</time>
      </trkpt>
      <trkpt lat="46.01431" lon="5.64331">
        <ele>983</ele>
        <time>2025-07-12T13:16:02.232Z</time>
      </trkpt>
      <trkpt lat="46.01434" lon="5.64323">
        <ele>983</ele>
        <time>2025-07-12T13:16:06.737Z</time>
      </trkpt>
      <trkpt lat="46.01439" lon="5.64318">
        <ele>985</ele>
        <time>2025-07-12T13:16:11.131Z</time>
      </trkpt>
      <trkpt lat="46.01442" lon="5.64312">
        <ele>985</ele>
        <time>2025-07-12T13:16:15.473Z</time>
      </trkpt>
      <trkpt lat="46.01442" lon="5.64311">
        <ele>985</ele>
        <time>2025-07-12T13:16:28.748Z</time>
      </trkpt>
      <trkpt lat="46.01441" lon="5.64312">
        <ele>985</ele>
        <time>2025-07-12T13:16:33.170Z</time>
      </trkpt>
      <trkpt lat="46.01437" lon="5.64315">
        <ele>985</ele>
        <time>2025-07-12T13:16:37.451Z</time>
      </trkpt>
      <trkpt lat="46.01434" lon="5.64309">
        <ele>985</ele>
        <time>2025-07-12T13:16:41.737Z</time>
      </trkpt>
      <trkpt lat="46.01434" lon="5.64301">
        <ele>985</ele>
        <time>2025-07-12T13:16:45.754Z</time>
      </trkpt>
      <trkpt lat="46.01435" lon="5.64295">
        <ele>985</ele>
        <time>2025-07-12T13:16:50.217Z</time>
      </trkpt>
      <trkpt lat="46.01433" lon="5.64287">
        <ele>989</ele>
        <time>2025-07-12T13:16:54.417Z</time>
      </trkpt>
      <trkpt lat="46.01433" lon="5.64282">
        <ele>989</ele>
        <time>2025-07-12T13:16:58.749Z</time>
      </trkpt>
      <trkpt lat="46.01433" lon="5.64278">
        <ele>989</ele>
        <time>2025-07-12T13:17:03.316Z</time>
      </trkpt>
      <trkpt lat="46.01436" lon="5.64267">
        <ele>989</ele>
        <time>2025-07-12T13:17:07.729Z</time>
      </trkpt>
      <trkpt lat="46.01439" lon="5.64258">
        <ele>995</ele>
        <time>2025-07-12T13:17:12.731Z</time>
      </trkpt>
      <trkpt lat="46.01444" lon="5.64252">
        <ele>995</ele>
        <time>2025-07-12T13:17:16.760Z</time>
      </trkpt>
      <trkpt lat="46.01451" lon="5.64255">
        <ele>995</ele>
        <time>2025-07-12T13:17:21.751Z</time>
      </trkpt>
      <trkpt lat="46.0146" lon="5.64259">
        <ele>995</ele>
        <time>2025-07-12T13:17:34.743Z</time>
      </trkpt>
      <trkpt lat="46.01462" lon="5.64259">
        <ele>995</ele>
        <time>2025-07-12T13:17:38.748Z</time>
      </trkpt>
      <trkpt lat="46.01463" lon="5.6426">
        <ele>995</ele>
        <time>2025-07-12T13:17:43.740Z</time>
      </trkpt>
      <trkpt lat="46.01464" lon="5.64261">
        <ele>995</ele>
        <time>2025-07-12T13:17:48.763Z</time>
      </trkpt>
      <trkpt lat="46.01464" lon="5.64261">
        <ele>995</ele>
        <time>2025-07-12T13:17:53.748Z</time>
      </trkpt>
      <trkpt lat="46.01464" lon="5.64264">
        <ele>995</ele>
        <time>2025-07-12T13:18:12.710Z</time>
      </trkpt>
      <trkpt lat="46.01463" lon="5.64264">
        <ele>991</ele>
        <time>2025-07-12T13:18:17.698Z</time>
      </trkpt>
      <trkpt lat="46.01462" lon="5.64265">
        <ele>991</ele>
        <time>2025-07-12T13:18:21.707Z</time>
      </trkpt>
      <trkpt lat="46.01457" lon="5.64263">
        <ele>995</ele>
        <time>2025-07-12T13:18:25.703Z</time>
      </trkpt>
      <trkpt lat="46.01453" lon="5.64263">
        <ele>995</ele>
        <time>2025-07-12T13:18:30.747Z</time>
      </trkpt>
      <trkpt lat="46.01448" lon="5.64269">
        <ele>989</ele>
        <time>2025-07-12T13:18:35.749Z</time>
      </trkpt>
      <trkpt lat="46.01443" lon="5.6428">
        <ele>989</ele>
        <time>2025-07-12T13:18:40.753Z</time>
      </trkpt>
      <trkpt lat="46.01442" lon="5.64286">
        <ele>989</ele>
        <time>2025-07-12T13:18:44.746Z</time>
      </trkpt>
      <trkpt lat="46.01441" lon="5.64293">
        <ele>985</ele>
        <time>2025-07-12T13:18:49.753Z</time>
      </trkpt>
      <trkpt lat="46.01441" lon="5.64297">
        <ele>985</ele>
        <time>2025-07-12T13:18:57.731Z</time>
      </trkpt>
      <trkpt lat="46.01441" lon="5.64297">
        <ele>985</ele>
        <time>2025-07-12T13:19:01.750Z</time>
      </trkpt>
      <trkpt lat="46.01443" lon="5.64296">
        <ele>985</ele>
        <time>2025-07-12T13:19:06.750Z</time>
      </trkpt>
      <trkpt lat="46.01445" lon="5.64295">
        <ele>985</ele>
        <time>2025-07-12T13:19:10.747Z</time>
      </trkpt>
      <trkpt lat="46.01453" lon="5.6429">
        <ele>989</ele>
        <time>2025-07-12T13:19:15.752Z</time>
      </trkpt>
      <trkpt lat="46.01461" lon="5.64285">
        <ele>991</ele>
        <time>2025-07-12T13:19:19.748Z</time>
      </trkpt>
      <trkpt lat="46.01468" lon="5.64282">
        <ele>991</ele>
        <time>2025-07-12T13:19:24.746Z</time>
      </trkpt>
      <trkpt lat="46.01473" lon="5.6428">
        <ele>991</ele>
        <time>2025-07-12T13:19:29.749Z</time>
      </trkpt>
      <trkpt lat="46.01478" lon="5.64278">
        <ele>991</ele>
        <time>2025-07-12T13:19:34.739Z</time>
      </trkpt>
      <trkpt lat="46.0148" lon="5.64277">
        <ele>991</ele>
        <time>2025-07-12T13:19:38.736Z</time>
      </trkpt>
      <trkpt lat="46.01483" lon="5.64274">
        <ele>991</ele>
        <time>2025-07-12T13:19:43.746Z</time>
      </trkpt>
      <trkpt lat="46.01491" lon="5.64269">
        <ele>991</ele>
        <time>2025-07-12T13:19:48.743Z</time>
      </trkpt>
      <trkpt lat="46.01497" lon="5.64267">
        <ele>991</ele>
        <time>2025-07-12T13:19:52.744Z</time>
      </trkpt>
      <trkpt lat="46.01501" lon="5.64265">
        <ele>991</ele>
        <time>2025-07-12T13:19:57.278Z</time>
      </trkpt>
      <trkpt lat="46.01506" lon="5.64263">
        <ele>994</ele>
        <time>2025-07-12T13:20:01.278Z</time>
      </trkpt>
      <trkpt lat="46.01513" lon="5.6426">
        <ele>994</ele>
        <time>2025-07-12T13:20:05.745Z</time>
      </trkpt>
      <trkpt lat="46.01518" lon="5.64258">
        <ele>994</ele>
        <time>2025-07-12T13:20:10.739Z</time>
      </trkpt>
      <trkpt lat="46.01526" lon="5.64255">
        <ele>994</ele>
        <time>2025-07-12T13:20:15.733Z</time>
      </trkpt>
      <trkpt lat="46.01532" lon="5.64252">
        <ele>994</ele>
        <time>2025-07-12T13:20:19.745Z</time>
      </trkpt>
      <trkpt lat="46.0154" lon="5.64248">
        <ele>994</ele>
        <time>2025-07-12T13:20:24.752Z</time>
      </trkpt>
      <trkpt lat="46.01546" lon="5.64246">
        <ele>1000</ele>
        <time>2025-07-12T13:20:29.746Z</time>
      </trkpt>
      <trkpt lat="46.01552" lon="5.64244">
        <ele>1000</ele>
        <time>2025-07-12T13:20:33.741Z</time>
      </trkpt>
      <trkpt lat="46.01557" lon="5.64241">
        <ele>1000</ele>
        <time>2025-07-12T13:20:38.741Z</time>
      </trkpt>
      <trkpt lat="46.01563" lon="5.64237">
        <ele>1000</ele>
        <time>2025-07-12T13:20:43.751Z</time>
      </trkpt>
      <trkpt lat="46.01569" lon="5.6423">
        <ele>1004</ele>
        <time>2025-07-12T13:20:47.742Z</time>
      </trkpt>
      <trkpt lat="46.01575" lon="5.64228">
        <ele>1007</ele>
        <time>2025-07-12T13:20:52.737Z</time>
      </trkpt>
      <trkpt lat="46.0158" lon="5.64228">
        <ele>1007</ele>
        <time>2025-07-12T13:20:56.748Z</time>
      </trkpt>
      <trkpt lat="46.01585" lon="5.64227">
        <ele>1007</ele>
        <time>2025-07-12T13:21:01.748Z</time>
      </trkpt>
      <trkpt lat="46.01591" lon="5.64225">
        <ele>1007</ele>
        <time>2025-07-12T13:21:06.740Z</time>
      </trkpt>
      <trkpt lat="46.01595" lon="5.64223">
        <ele>1007</ele>
        <time>2025-07-12T13:21:10.751Z</time>
      </trkpt>
      <trkpt lat="46.01601" lon="5.64225">
        <ele>1010</ele>
        <time>2025-07-12T13:21:15.735Z</time>
      </trkpt>
      <trkpt lat="46.01604" lon="5.64227">
        <ele>1010</ele>
        <time>2025-07-12T13:21:19.734Z</time>
      </trkpt>
      <trkpt lat="46.01609" lon="5.64227">
        <ele>1010</ele>
        <time>2025-07-12T13:21:24.759Z</time>
      </trkpt>
      <trkpt lat="46.01614" lon="5.64227">
        <ele>1010</ele>
        <time>2025-07-12T13:21:29.759Z</time>
      </trkpt>
      <trkpt lat="46.01616" lon="5.64228">
        <ele>1010</ele>
        <time>2025-07-12T13:21:34.748Z</time>
      </trkpt>
      <trkpt lat="46.01624" lon="5.64227">
        <ele>1010</ele>
        <time>2025-07-12T13:21:39.743Z</time>
      </trkpt>
      <trkpt lat="46.01631" lon="5.64227">
        <ele>1012</ele>
        <time>2025-07-12T13:21:44.745Z</time>
      </trkpt>
      <trkpt lat="46.01635" lon="5.6423">
        <ele>1012</ele>
        <time>2025-07-12T13:21:49.739Z</time>
      </trkpt>
      <trkpt lat="46.01636" lon="5.6423">
        <ele>1012</ele>
        <time>2025-07-12T13:21:55.750Z</time>
      </trkpt>
      <trkpt lat="46.01638" lon="5.64231">
        <ele>1012</ele>
        <time>2025-07-12T13:22:00.761Z</time>
      </trkpt>
      <trkpt lat="46.01646" lon="5.64232">
        <ele>1012</ele>
        <time>2025-07-12T13:22:05.745Z</time>
      </trkpt>
      <trkpt lat="46.01652" lon="5.64232">
        <ele>1012</ele>
        <time>2025-07-12T13:22:10.750Z</time>
      </trkpt>
      <trkpt lat="46.01659" lon="5.64229">
        <ele>1016</ele>
        <time>2025-07-12T13:22:14.751Z</time>
      </trkpt>
      <trkpt lat="46.01667" lon="5.64227">
        <ele>1016</ele>
        <time>2025-07-12T13:22:19.742Z</time>
      </trkpt>
      <trkpt lat="46.0167" lon="5.64227">
        <ele>1016</ele>
        <time>2025-07-12T13:22:24.746Z</time>
      </trkpt>
      <trkpt lat="46.01675" lon="5.64226">
        <ele>1016</ele>
        <time>2025-07-12T13:22:28.749Z</time>
      </trkpt>
      <trkpt lat="46.01682" lon="5.64226">
        <ele>1023</ele>
        <time>2025-07-12T13:22:33.743Z</time>
      </trkpt>
      <trkpt lat="46.01686" lon="5.64225">
        <ele>1023</ele>
        <time>2025-07-12T13:22:37.752Z</time>
      </trkpt>
      <trkpt lat="46.01694" lon="5.64222">
        <ele>1023</ele>
        <time>2025-07-12T13:22:42.742Z</time>
      </trkpt>
      <trkpt lat="46.01696" lon="5.64223">
        <ele>1023</ele>
        <time>2025-07-12T13:23:09.746Z</time>
      </trkpt>
      <trkpt lat="46.01696" lon="5.64223">
        <ele>1023</ele>
        <time>2025-07-12T13:23:14.701Z</time>
      </trkpt>
      <trkpt lat="46.01697" lon="5.64223">
        <ele>1023</ele>
        <time>2025-07-12T13:23:20.703Z</time>
      </trkpt>
      <trkpt lat="46.01698" lon="5.64223">
        <ele>1023</ele>
        <time>2025-07-12T13:23:24.737Z</time>
      </trkpt>
      <trkpt lat="46.01706" lon="5.64218">
        <ele>1023</ele>
        <time>2025-07-12T13:23:29.745Z</time>
      </trkpt>
      <trkpt lat="46.01711" lon="5.64215">
        <ele>1026</ele>
        <time>2025-07-12T13:23:33.762Z</time>
      </trkpt>
      <trkpt lat="46.01717" lon="5.64208">
        <ele>1033</ele>
        <time>2025-07-12T13:23:38.747Z</time>
      </trkpt>
      <trkpt lat="46.01727" lon="5.642">
        <ele>1033</ele>
        <time>2025-07-12T13:23:43.741Z</time>
      </trkpt>
      <trkpt lat="46.01733" lon="5.64193">
        <ele>1033</ele>
        <time>2025-07-12T13:23:48.748Z</time>
      </trkpt>
      <trkpt lat="46.01735" lon="5.64191">
        <ele>1033</ele>
        <time>2025-07-12T13:23:53.741Z</time>
      </trkpt>
      <trkpt lat="46.01736" lon="5.64191">
        <ele>1033</ele>
        <time>2025-07-12T13:23:57.753Z</time>
      </trkpt>
      <trkpt lat="46.01736" lon="5.6419">
        <ele>1034</ele>
        <time>2025-07-12T13:24:02.761Z</time>
      </trkpt>
      <trkpt lat="46.01738" lon="5.64188">
        <ele>1034</ele>
        <time>2025-07-12T13:24:07.747Z</time>
      </trkpt>
      <trkpt lat="46.01743" lon="5.64182">
        <ele>1034</ele>
        <time>2025-07-12T13:24:11.745Z</time>
      </trkpt>
      <trkpt lat="46.01747" lon="5.64177">
        <ele>1039</ele>
        <time>2025-07-12T13:24:16.742Z</time>
      </trkpt>
      <trkpt lat="46.01753" lon="5.64168">
        <ele>1039</ele>
        <time>2025-07-12T13:24:21.749Z</time>
      </trkpt>
      <trkpt lat="46.01757" lon="5.64161">
        <ele>1039</ele>
        <time>2025-07-12T13:24:26.733Z</time>
      </trkpt>
      <trkpt lat="46.01757" lon="5.64161">
        <ele>1039</ele>
        <time>2025-07-12T13:24:30.742Z</time>
      </trkpt>
      <trkpt lat="46.01758" lon="5.64161">
        <ele>1039</ele>
        <time>2025-07-12T13:24:49.741Z</time>
      </trkpt>
      <trkpt lat="46.01758" lon="5.64161">
        <ele>1039</ele>
        <time>2025-07-12T13:24:54.750Z</time>
      </trkpt>
      <trkpt lat="46.01758" lon="5.64161">
        <ele>1039</ele>
        <time>2025-07-12T13:24:59.711Z</time>
      </trkpt>
      <trkpt lat="46.0176" lon="5.64158">
        <ele>1039</ele>
        <time>2025-07-12T13:25:04.695Z</time>
      </trkpt>
      <trkpt lat="46.01765" lon="5.64151">
        <ele>1043</ele>
        <time>2025-07-12T13:25:08.744Z</time>
      </trkpt>
      <trkpt lat="46.0177" lon="5.6414">
        <ele>1043</ele>
        <time>2025-07-12T13:25:12.746Z</time>
      </trkpt>
      <trkpt lat="46.01771" lon="5.64131">
        <ele>1043</ele>
        <time>2025-07-12T13:25:17.750Z</time>
      </trkpt>
      <trkpt lat="46.01774" lon="5.64117">
        <ele>1048</ele>
        <time>2025-07-12T13:25:22.747Z</time>
      </trkpt>
      <trkpt lat="46.01775" lon="5.64115">
        <ele>1048</ele>
        <time>2025-07-12T13:25:27.729Z</time>
      </trkpt>
      <trkpt lat="46.01775" lon="5.64115">
        <ele>1048</ele>
        <time>2025-07-12T13:25:38.750Z</time>
      </trkpt>
      <trkpt lat="46.01775" lon="5.64116">
        <ele>1048</ele>
        <time>2025-07-12T13:25:44.742Z</time>
      </trkpt>
      <trkpt lat="46.01775" lon="5.64115">
        <ele>1048</ele>
        <time>2025-07-12T13:25:48.750Z</time>
      </trkpt>
      <trkpt lat="46.01776" lon="5.6411">
        <ele>1048</ele>
        <time>2025-07-12T13:25:52.745Z</time>
      </trkpt>
      <trkpt lat="46.01775" lon="5.64102">
        <ele>1048</ele>
        <time>2025-07-12T13:25:57.735Z</time>
      </trkpt>
      <trkpt lat="46.01774" lon="5.64094">
        <ele>1057</ele>
        <time>2025-07-12T13:26:01.757Z</time>
      </trkpt>
      <trkpt lat="46.01773" lon="5.64085">
        <ele>1057</ele>
        <time>2025-07-12T13:26:06.745Z</time>
      </trkpt>
      <trkpt lat="46.01771" lon="5.64075">
        <ele>1057</ele>
        <time>2025-07-12T13:26:10.740Z</time>
      </trkpt>
      <trkpt lat="46.01769" lon="5.64064">
        <ele>1064</ele>
        <time>2025-07-12T13:26:15.738Z</time>
      </trkpt>
      <trkpt lat="46.01767" lon="5.64059">
        <ele>1064</ele>
        <time>2025-07-12T13:26:19.751Z</time>
      </trkpt>
      <trkpt lat="46.01767" lon="5.6405">
        <ele>1064</ele>
        <time>2025-07-12T13:26:24.748Z</time>
      </trkpt>
      <trkpt lat="46.01765" lon="5.64046">
        <ele>1064</ele>
        <time>2025-07-12T13:26:28.747Z</time>
      </trkpt>
      <trkpt lat="46.01765" lon="5.64043">
        <ele>1064</ele>
        <time>2025-07-12T13:26:32.742Z</time>
      </trkpt>
      <trkpt lat="46.01765" lon="5.64043">
        <ele>1064</ele>
        <time>2025-07-12T13:26:43.744Z</time>
      </trkpt>
      <trkpt lat="46.01764" lon="5.6404">
        <ele>1069</ele>
        <time>2025-07-12T13:26:48.750Z</time>
      </trkpt>
      <trkpt lat="46.01764" lon="5.6404">
        <ele>1067</ele>
        <time>2025-07-12T13:26:52.747Z</time>
      </trkpt>
      <trkpt lat="46.0176" lon="5.64035">
        <ele>1067</ele>
        <time>2025-07-12T13:26:57.752Z</time>
      </trkpt>
      <trkpt lat="46.01755" lon="5.64024">
        <ele>1067</ele>
        <time>2025-07-12T13:27:02.744Z</time>
      </trkpt>
      <trkpt lat="46.01752" lon="5.64015">
        <ele>1067</ele>
        <time>2025-07-12T13:27:07.743Z</time>
      </trkpt>
      <trkpt lat="46.01752" lon="5.64014">
        <ele>1067</ele>
        <time>2025-07-12T13:27:12.726Z</time>
      </trkpt>
      <trkpt lat="46.01748" lon="5.64009">
        <ele>1073</ele>
        <time>2025-07-12T13:27:16.742Z</time>
      </trkpt>
      <trkpt lat="46.01746" lon="5.64003">
        <ele>1073</ele>
        <time>2025-07-12T13:27:21.747Z</time>
      </trkpt>
      <trkpt lat="46.01743" lon="5.63995">
        <ele>1073</ele>
        <time>2025-07-12T13:27:26.739Z</time>
      </trkpt>
      <trkpt lat="46.0174" lon="5.63984">
        <ele>1080</ele>
        <time>2025-07-12T13:27:30.744Z</time>
      </trkpt>
      <trkpt lat="46.01737" lon="5.63976">
        <ele>1080</ele>
        <time>2025-07-12T13:27:35.756Z</time>
      </trkpt>
      <trkpt lat="46.01734" lon="5.63968">
        <ele>1077</ele>
        <time>2025-07-12T13:27:40.755Z</time>
      </trkpt>
      <trkpt lat="46.01731" lon="5.63959">
        <ele>1077</ele>
        <time>2025-07-12T13:27:45.751Z</time>
      </trkpt>
      <trkpt lat="46.01728" lon="5.63952">
        <ele>1082</ele>
        <time>2025-07-12T13:27:49.758Z</time>
      </trkpt>
      <trkpt lat="46.01727" lon="5.63943">
        <ele>1082</ele>
        <time>2025-07-12T13:27:54.754Z</time>
      </trkpt>
      <trkpt lat="46.01728" lon="5.63936">
        <ele>1082</ele>
        <time>2025-07-12T13:27:59.744Z</time>
      </trkpt>
      <trkpt lat="46.01728" lon="5.63934">
        <ele>1082</ele>
        <time>2025-07-12T13:28:04.741Z</time>
      </trkpt>
      <trkpt lat="46.01727" lon="5.63923">
        <ele>1085</ele>
        <time>2025-07-12T13:28:09.743Z</time>
      </trkpt>
      <trkpt lat="46.01726" lon="5.63914">
        <ele>1085</ele>
        <time>2025-07-12T13:28:13.738Z</time>
      </trkpt>
      <trkpt lat="46.01727" lon="5.63909">
        <ele>1085</ele>
        <time>2025-07-12T13:28:17.747Z</time>
      </trkpt>
      <trkpt lat="46.01728" lon="5.6391">
        <ele>1085</ele>
        <time>2025-07-12T13:28:22.752Z</time>
      </trkpt>
      <trkpt lat="46.01729" lon="5.63906">
        <ele>1085</ele>
        <time>2025-07-12T13:28:27.750Z</time>
      </trkpt>
      <trkpt lat="46.01729" lon="5.63906">
        <ele>1085</ele>
        <time>2025-07-12T13:28:32.734Z</time>
      </trkpt>
      <trkpt lat="46.01731" lon="5.63904">
        <ele>1085</ele>
        <time>2025-07-12T13:28:36.749Z</time>
      </trkpt>
      <trkpt lat="46.01737" lon="5.63898">
        <ele>1092</ele>
        <time>2025-07-12T13:28:41.748Z</time>
      </trkpt>
      <trkpt lat="46.01743" lon="5.63893">
        <ele>1092</ele>
        <time>2025-07-12T13:28:46.744Z</time>
      </trkpt>
      <trkpt lat="46.01748" lon="5.6389">
        <ele>1092</ele>
        <time>2025-07-12T13:28:50.749Z</time>
      </trkpt>
      <trkpt lat="46.01751" lon="5.63886">
        <ele>1092</ele>
        <time>2025-07-12T13:28:55.748Z</time>
      </trkpt>
      <trkpt lat="46.01752" lon="5.63884">
        <ele>1092</ele>
        <time>2025-07-12T13:28:59.746Z</time>
      </trkpt>
      <trkpt lat="46.01755" lon="5.63884">
        <ele>1092</ele>
        <time>2025-07-12T13:29:04.749Z</time>
      </trkpt>
      <trkpt lat="46.01758" lon="5.63883">
        <ele>1092</ele>
        <time>2025-07-12T13:29:09.760Z</time>
      </trkpt>
      <trkpt lat="46.01761" lon="5.63882">
        <ele>1092</ele>
        <time>2025-07-12T13:29:14.753Z</time>
      </trkpt>
      <trkpt lat="46.01766" lon="5.63881">
        <ele>1097</ele>
        <time>2025-07-12T13:29:18.750Z</time>
      </trkpt>
      <trkpt lat="46.01773" lon="5.63882">
        <ele>1097</ele>
        <time>2025-07-12T13:29:45.736Z</time>
      </trkpt>
      <trkpt lat="46.01773" lon="5.63882">
        <ele>1097</ele>
        <time>2025-07-12T13:29:50.741Z</time>
      </trkpt>
      <trkpt lat="46.01775" lon="5.63882">
        <ele>1097</ele>
        <time>2025-07-12T13:29:54.745Z</time>
      </trkpt>
      <trkpt lat="46.01778" lon="5.63883">
        <ele>1097</ele>
        <time>2025-07-12T13:29:58.746Z</time>
      </trkpt>
      <trkpt lat="46.01784" lon="5.63883">
        <ele>1097</ele>
        <time>2025-07-12T13:30:03.742Z</time>
      </trkpt>
      <trkpt lat="46.0179" lon="5.63884">
        <ele>1097</ele>
        <time>2025-07-12T13:30:07.750Z</time>
      </trkpt>
      <trkpt lat="46.01797" lon="5.63885">
        <ele>1101</ele>
        <time>2025-07-12T13:30:11.742Z</time>
      </trkpt>
      <trkpt lat="46.01804" lon="5.63886">
        <ele>1101</ele>
        <time>2025-07-12T13:30:16.739Z</time>
      </trkpt>
      <trkpt lat="46.01811" lon="5.63884">
        <ele>1101</ele>
        <time>2025-07-12T13:30:20.748Z</time>
      </trkpt>
      <trkpt lat="46.01822" lon="5.63882">
        <ele>1102</ele>
        <time>2025-07-12T13:30:35.756Z</time>
      </trkpt>
      <trkpt lat="46.01824" lon="5.63882">
        <ele>1102</ele>
        <time>2025-07-12T13:30:39.759Z</time>
      </trkpt>
      <trkpt lat="46.01825" lon="5.63883">
        <ele>1102</ele>
        <time>2025-07-12T13:30:45.747Z</time>
      </trkpt>
      <trkpt lat="46.01826" lon="5.63883">
        <ele>1102</ele>
        <time>2025-07-12T13:30:50.754Z</time>
      </trkpt>
      <trkpt lat="46.01826" lon="5.63883">
        <ele>1102</ele>
        <time>2025-07-12T13:30:54.764Z</time>
      </trkpt>
      <trkpt lat="46.01828" lon="5.63886">
        <ele>1102</ele>
        <time>2025-07-12T13:32:03.695Z</time>
      </trkpt>
      <trkpt lat="46.01828" lon="5.63886">
        <ele>1102</ele>
        <time>2025-07-12T13:32:09.697Z</time>
      </trkpt>
      <trkpt lat="46.01829" lon="5.63885">
        <ele>1102</ele>
        <time>2025-07-12T13:32:14.693Z</time>
      </trkpt>
      <trkpt lat="46.01835" lon="5.63883">
        <ele>1102</ele>
        <time>2025-07-12T13:32:18.735Z</time>
      </trkpt>
      <trkpt lat="46.0184" lon="5.63883">
        <ele>1102</ele>
        <time>2025-07-12T13:32:23.744Z</time>
      </trkpt>
      <trkpt lat="46.01845" lon="5.63882">
        <ele>1102</ele>
        <time>2025-07-12T13:32:28.010Z</time>
      </trkpt>
      <trkpt lat="46.01852" lon="5.63881">
        <ele>1102</ele>
        <time>2025-07-12T13:32:32.737Z</time>
      </trkpt>
      <trkpt lat="46.01859" lon="5.63877">
        <ele>1102</ele>
        <time>2025-07-12T13:32:37.139Z</time>
      </trkpt>
      <trkpt lat="46.01865" lon="5.6388">
        <ele>1102</ele>
        <time>2025-07-12T13:32:41.520Z</time>
      </trkpt>
      <trkpt lat="46.01871" lon="5.63884">
        <ele>1102</ele>
        <time>2025-07-12T13:32:45.679Z</time>
      </trkpt>
      <trkpt lat="46.01874" lon="5.63884">
        <ele>1102</ele>
        <time>2025-07-12T13:32:49.745Z</time>
      </trkpt>
      <trkpt lat="46.01878" lon="5.63884">
        <ele>1102</ele>
        <time>2025-07-12T13:32:54.179Z</time>
      </trkpt>
      <trkpt lat="46.01885" lon="5.63882">
        <ele>1102</ele>
        <time>2025-07-12T13:32:58.755Z</time>
      </trkpt>
      <trkpt lat="46.01894" lon="5.63885">
        <ele>1102</ele>
        <time>2025-07-12T13:33:54.737Z</time>
      </trkpt>
      <trkpt lat="46.01893" lon="5.63885">
        <ele>1102</ele>
        <time>2025-07-12T13:33:58.739Z</time>
      </trkpt>
      <trkpt lat="46.01888" lon="5.63885">
        <ele>1102</ele>
        <time>2025-07-12T13:34:03.740Z</time>
      </trkpt>
      <trkpt lat="46.01879" lon="5.63884">
        <ele>1102</ele>
        <time>2025-07-12T13:34:07.737Z</time>
      </trkpt>
      <trkpt lat="46.01873" lon="5.63884">
        <ele>1102</ele>
        <time>2025-07-12T13:34:11.738Z</time>
      </trkpt>
      <trkpt lat="46.01868" lon="5.63883">
        <ele>1102</ele>
        <time>2025-07-12T13:34:32.731Z</time>
      </trkpt>
      <trkpt lat="46.01868" lon="5.63883">
        <ele>1102</ele>
        <time>2025-07-12T13:34:36.742Z</time>
      </trkpt>
      <trkpt lat="46.01868" lon="5.63883">
        <ele>1102</ele>
        <time>2025-07-12T13:34:41.744Z</time>
      </trkpt>
      <trkpt lat="46.01865" lon="5.63882">
        <ele>1102</ele>
        <time>2025-07-12T13:34:46.745Z</time>
      </trkpt>
      <trkpt lat="46.01858" lon="5.63885">
        <ele>1102</ele>
        <time>2025-07-12T13:34:51.738Z</time>
      </trkpt>
      <trkpt lat="46.01853" lon="5.63885">
        <ele>1102</ele>
        <time>2025-07-12T13:34:55.754Z</time>
      </trkpt>
      <trkpt lat="46.01848" lon="5.63884">
        <ele>1102</ele>
        <time>2025-07-12T13:34:59.751Z</time>
      </trkpt>
      <trkpt lat="46.01845" lon="5.63884">
        <ele>1102</ele>
        <time>2025-07-12T13:35:04.017Z</time>
      </trkpt>
      <trkpt lat="46.0184" lon="5.63883">
        <ele>1102</ele>
        <time>2025-07-12T13:35:08.739Z</time>
      </trkpt>
      <trkpt lat="46.01839" lon="5.63883">
        <ele>1102</ele>
        <time>2025-07-12T13:35:45.130Z</time>
      </trkpt>
      <trkpt lat="46.01846" lon="5.63883">
        <ele>1102</ele>
        <time>2025-07-12T13:35:49.492Z</time>
      </trkpt>
      <trkpt lat="46.01855" lon="5.63881">
        <ele>1102</ele>
        <time>2025-07-12T13:35:53.746Z</time>
      </trkpt>
      <trkpt lat="46.01864" lon="5.63882">
        <ele>1102</ele>
        <time>2025-07-12T13:35:58.731Z</time>
      </trkpt>
      <trkpt lat="46.01866" lon="5.63883">
        <ele>1102</ele>
        <time>2025-07-12T13:36:03.269Z</time>
      </trkpt>
      <trkpt lat="46.01869" lon="5.63884">
        <ele>1102</ele>
        <time>2025-07-12T13:36:07.745Z</time>
      </trkpt>
      <trkpt lat="46.01877" lon="5.63886">
        <ele>1102</ele>
        <time>2025-07-12T13:36:12.190Z</time>
      </trkpt>
      <trkpt lat="46.01882" lon="5.63886">
        <ele>1102</ele>
        <time>2025-07-12T13:36:16.370Z</time>
      </trkpt>
      <trkpt lat="46.01888" lon="5.63883">
        <ele>1102</ele>
        <time>2025-07-12T13:36:20.581Z</time>
      </trkpt>
      <trkpt lat="46.01896" lon="5.63879">
        <ele>1102</ele>
        <time>2025-07-12T13:36:25.078Z</time>
      </trkpt>
      <trkpt lat="46.01904" lon="5.63879">
        <ele>1102</ele>
        <time>2025-07-12T13:36:29.538Z</time>
      </trkpt>
      <trkpt lat="46.01912" lon="5.63881">
        <ele>1102</ele>
        <time>2025-07-12T13:36:33.731Z</time>
      </trkpt>
      <trkpt lat="46.01921" lon="5.6388">
        <ele>1102</ele>
        <time>2025-07-12T13:36:37.977Z</time>
      </trkpt>
      <trkpt lat="46.01928" lon="5.63879">
        <ele>1102</ele>
        <time>2025-07-12T13:36:42.478Z</time>
      </trkpt>
      <trkpt lat="46.01934" lon="5.63877">
        <ele>1102</ele>
        <time>2025-07-12T13:36:46.578Z</time>
      </trkpt>
      <trkpt lat="46.01939" lon="5.63873">
        <ele>1105</ele>
        <time>2025-07-12T13:36:50.756Z</time>
      </trkpt>
      <trkpt lat="46.01946" lon="5.63869">
        <ele>1105</ele>
        <time>2025-07-12T13:36:55.256Z</time>
      </trkpt>
      <trkpt lat="46.01952" lon="5.63865">
        <ele>1105</ele>
        <time>2025-07-12T13:36:59.714Z</time>
      </trkpt>
      <trkpt lat="46.01957" lon="5.63862">
        <ele>1105</ele>
        <time>2025-07-12T13:37:03.736Z</time>
      </trkpt>
      <trkpt lat="46.01963" lon="5.63859">
        <ele>1106</ele>
        <time>2025-07-12T13:37:07.741Z</time>
      </trkpt>
      <trkpt lat="46.01968" lon="5.63853">
        <ele>1106</ele>
        <time>2025-07-12T13:37:12.555Z</time>
      </trkpt>
      <trkpt lat="46.0197" lon="5.63848">
        <ele>1106</ele>
        <time>2025-07-12T13:37:16.756Z</time>
      </trkpt>
      <trkpt lat="46.01975" lon="5.63842">
        <ele>1109</ele>
        <time>2025-07-12T13:37:21.256Z</time>
      </trkpt>
      <trkpt lat="46.01982" lon="5.63838">
        <ele>1109</ele>
        <time>2025-07-12T13:37:25.315Z</time>
      </trkpt>
      <trkpt lat="46.01988" lon="5.63836">
        <ele>1109</ele>
        <time>2025-07-12T13:37:29.415Z</time>
      </trkpt>
      <trkpt lat="46.01994" lon="5.63835">
        <ele>1109</ele>
        <time>2025-07-12T13:37:33.736Z</time>
      </trkpt>
      <trkpt lat="46.01999" lon="5.63832">
        <ele>1109</ele>
        <time>2025-07-12T13:37:37.912Z</time>
      </trkpt>
      <trkpt lat="46.02004" lon="5.63826">
        <ele>1109</ele>
        <time>2025-07-12T13:37:42.735Z</time>
      </trkpt>
      <trkpt lat="46.02008" lon="5.63822">
        <ele>1109</ele>
        <time>2025-07-12T13:37:46.750Z</time>
      </trkpt>
      <trkpt lat="46.0201" lon="5.63821">
        <ele>1109</ele>
        <time>2025-07-12T13:37:56.735Z</time>
      </trkpt>
      <trkpt lat="46.02011" lon="5.63821">
        <ele>1109</ele>
        <time>2025-07-12T13:38:00.744Z</time>
      </trkpt>
      <trkpt lat="46.02011" lon="5.63821">
        <ele>1109</ele>
        <time>2025-07-12T13:38:04.747Z</time>
      </trkpt>
      <trkpt lat="46.02013" lon="5.63821">
        <ele>1109</ele>
        <time>2025-07-12T13:38:09.018Z</time>
      </trkpt>
      <trkpt lat="46.0202" lon="5.63817">
        <ele>1110</ele>
        <time>2025-07-12T13:38:13.419Z</time>
      </trkpt>
      <trkpt lat="46.02027" lon="5.63817">
        <ele>1110</ele>
        <time>2025-07-12T13:38:18.538Z</time>
      </trkpt>
      <trkpt lat="46.02034" lon="5.63816">
        <ele>1110</ele>
        <time>2025-07-12T13:38:22.743Z</time>
      </trkpt>
      <trkpt lat="46.02039" lon="5.63817">
        <ele>1110</ele>
        <time>2025-07-12T13:38:26.749Z</time>
      </trkpt>
      <trkpt lat="46.02046" lon="5.63815">
        <ele>1107</ele>
        <time>2025-07-12T13:38:31.749Z</time>
      </trkpt>
      <trkpt lat="46.02053" lon="5.63812">
        <ele>1107</ele>
        <time>2025-07-12T13:38:35.750Z</time>
      </trkpt>
      <trkpt lat="46.0206" lon="5.63811">
        <ele>1107</ele>
        <time>2025-07-12T13:38:40.076Z</time>
      </trkpt>
      <trkpt lat="46.02067" lon="5.63811">
        <ele>1107</ele>
        <time>2025-07-12T13:38:44.394Z</time>
      </trkpt>
      <trkpt lat="46.02071" lon="5.63813">
        <ele>1107</ele>
        <time>2025-07-12T13:38:48.739Z</time>
      </trkpt>
      <trkpt lat="46.02078" lon="5.63815">
        <ele>1107</ele>
        <time>2025-07-12T13:38:53.739Z</time>
      </trkpt>
      <trkpt lat="46.02082" lon="5.63814">
        <ele>1107</ele>
        <time>2025-07-12T13:38:57.748Z</time>
      </trkpt>
      <trkpt lat="46.02088" lon="5.63814">
        <ele>1107</ele>
        <time>2025-07-12T13:39:02.303Z</time>
      </trkpt>
      <trkpt lat="46.02093" lon="5.63812">
        <ele>1107</ele>
        <time>2025-07-12T13:39:06.593Z</time>
      </trkpt>
      <trkpt lat="46.02099" lon="5.63811">
        <ele>1110</ele>
        <time>2025-07-12T13:39:11.673Z</time>
      </trkpt>
      <trkpt lat="46.02104" lon="5.63809">
        <ele>1110</ele>
        <time>2025-07-12T13:39:15.737Z</time>
      </trkpt>
      <trkpt lat="46.0211" lon="5.63805">
        <ele>1110</ele>
        <time>2025-07-12T13:39:19.742Z</time>
      </trkpt>
      <trkpt lat="46.02117" lon="5.63804">
        <ele>1110</ele>
        <time>2025-07-12T13:39:23.749Z</time>
      </trkpt>
      <trkpt lat="46.02124" lon="5.63803">
        <ele>1110</ele>
        <time>2025-07-12T13:39:28.352Z</time>
      </trkpt>
      <trkpt lat="46.0213" lon="5.638">
        <ele>1109</ele>
        <time>2025-07-12T13:39:32.572Z</time>
      </trkpt>
      <trkpt lat="46.02136" lon="5.63796">
        <ele>1109</ele>
        <time>2025-07-12T13:39:36.632Z</time>
      </trkpt>
      <trkpt lat="46.02141" lon="5.63791">
        <ele>1111</ele>
        <time>2025-07-12T13:39:40.634Z</time>
      </trkpt>
      <trkpt lat="46.02151" lon="5.63781">
        <ele>1111</ele>
        <time>2025-07-12T13:40:03.755Z</time>
      </trkpt>
      <trkpt lat="46.02151" lon="5.63781">
        <ele>1111</ele>
        <time>2025-07-12T13:40:08.159Z</time>
      </trkpt>
      <trkpt lat="46.02152" lon="5.63781">
        <ele>1111</ele>
        <time>2025-07-12T13:40:13.750Z</time>
      </trkpt>
      <trkpt lat="46.02152" lon="5.6378">
        <ele>1111</ele>
        <time>2025-07-12T13:40:18.499Z</time>
      </trkpt>
      <trkpt lat="46.02156" lon="5.63771">
        <ele>1110</ele>
        <time>2025-07-12T13:40:23.509Z</time>
      </trkpt>
      <trkpt lat="46.02163" lon="5.63765">
        <ele>1110</ele>
        <time>2025-07-12T13:40:27.870Z</time>
      </trkpt>
      <trkpt lat="46.0217" lon="5.63762">
        <ele>1114</ele>
        <time>2025-07-12T13:40:32.281Z</time>
      </trkpt>
      <trkpt lat="46.02176" lon="5.6376">
        <ele>1114</ele>
        <time>2025-07-12T13:40:36.744Z</time>
      </trkpt>
      <trkpt lat="46.02183" lon="5.6376">
        <ele>1115</ele>
        <time>2025-07-12T13:40:41.748Z</time>
      </trkpt>
      <trkpt lat="46.02188" lon="5.63754">
        <ele>1115</ele>
        <time>2025-07-12T13:40:46.315Z</time>
      </trkpt>
      <trkpt lat="46.02194" lon="5.63752">
        <ele>1115</ele>
        <time>2025-07-12T13:40:50.557Z</time>
      </trkpt>
      <trkpt lat="46.02199" lon="5.63748">
        <ele>1115</ele>
        <time>2025-07-12T13:40:55.034Z</time>
      </trkpt>
      <trkpt lat="46.02205" lon="5.63741">
        <ele>1115</ele>
        <time>2025-07-12T13:40:59.394Z</time>
      </trkpt>
      <trkpt lat="46.0221" lon="5.63733">
        <ele>1120</ele>
        <time>2025-07-12T13:41:03.635Z</time>
      </trkpt>
      <trkpt lat="46.02215" lon="5.63726">
        <ele>1120</ele>
        <time>2025-07-12T13:41:07.747Z</time>
      </trkpt>
      <trkpt lat="46.02219" lon="5.6372">
        <ele>1120</ele>
        <time>2025-07-12T13:41:11.914Z</time>
      </trkpt>
      <trkpt lat="46.02224" lon="5.63713">
        <ele>1120</ele>
        <time>2025-07-12T13:41:16.435Z</time>
      </trkpt>
      <trkpt lat="46.02225" lon="5.63707">
        <ele>1126</ele>
        <time>2025-07-12T13:41:20.745Z</time>
      </trkpt>
      <trkpt lat="46.02229" lon="5.63697">
        <ele>1126</ele>
        <time>2025-07-12T13:41:25.741Z</time>
      </trkpt>
      <trkpt lat="46.02232" lon="5.6369">
        <ele>1126</ele>
        <time>2025-07-12T13:41:30.740Z</time>
      </trkpt>
      <trkpt lat="46.02235" lon="5.6368">
        <ele>1129</ele>
        <time>2025-07-12T13:41:35.742Z</time>
      </trkpt>
      <trkpt lat="46.02238" lon="5.63673">
        <ele>1130</ele>
        <time>2025-07-12T13:41:39.757Z</time>
      </trkpt>
      <trkpt lat="46.02241" lon="5.63662">
        <ele>1130</ele>
        <time>2025-07-12T13:41:44.745Z</time>
      </trkpt>
      <trkpt lat="46.02242" lon="5.63651">
        <ele>1132</ele>
        <time>2025-07-12T13:41:49.747Z</time>
      </trkpt>
      <trkpt lat="46.02241" lon="5.63638">
        <ele>1132</ele>
        <time>2025-07-12T13:41:54.740Z</time>
      </trkpt>
      <trkpt lat="46.0224" lon="5.63626">
        <ele>1132</ele>
        <time>2025-07-12T13:41:59.745Z</time>
      </trkpt>
      <trkpt lat="46.02239" lon="5.63617">
        <ele>1136</ele>
        <time>2025-07-12T13:42:04.748Z</time>
      </trkpt>
      <trkpt lat="46.02241" lon="5.63607">
        <ele>1136</ele>
        <time>2025-07-12T13:42:09.731Z</time>
      </trkpt>
      <trkpt lat="46.02243" lon="5.63598">
        <ele>1136</ele>
        <time>2025-07-12T13:42:13.743Z</time>
      </trkpt>
      <trkpt lat="46.02245" lon="5.63591">
        <ele>1139</ele>
        <time>2025-07-12T13:42:18.743Z</time>
      </trkpt>
      <trkpt lat="46.02245" lon="5.63582">
        <ele>1139</ele>
        <time>2025-07-12T13:42:23.745Z</time>
      </trkpt>
      <trkpt lat="46.02246" lon="5.63573">
        <ele>1139</ele>
        <time>2025-07-12T13:42:27.753Z</time>
      </trkpt>
      <trkpt lat="46.02248" lon="5.63563">
        <ele>1140</ele>
        <time>2025-07-12T13:42:32.728Z</time>
      </trkpt>
      <trkpt lat="46.02248" lon="5.63554">
        <ele>1140</ele>
        <time>2025-07-12T13:42:36.740Z</time>
      </trkpt>
      <trkpt lat="46.02248" lon="5.63547">
        <ele>1140</ele>
        <time>2025-07-12T13:42:40.740Z</time>
      </trkpt>
      <trkpt lat="46.02248" lon="5.63543">
        <ele>1140</ele>
        <time>2025-07-12T13:42:44.743Z</time>
      </trkpt>
      <trkpt lat="46.0225" lon="5.63535">
        <ele>1141</ele>
        <time>2025-07-12T13:42:49.740Z</time>
      </trkpt>
      <trkpt lat="46.02252" lon="5.63525">
        <ele>1141</ele>
        <time>2025-07-12T13:42:54.745Z</time>
      </trkpt>
      <trkpt lat="46.02255" lon="5.63513">
        <ele>1142</ele>
        <time>2025-07-12T13:42:59.723Z</time>
      </trkpt>
      <trkpt lat="46.02257" lon="5.63505">
        <ele>1142</ele>
        <time>2025-07-12T13:43:03.743Z</time>
      </trkpt>
      <trkpt lat="46.02259" lon="5.63499">
        <ele>1142</ele>
        <time>2025-07-12T13:43:08.742Z</time>
      </trkpt>
      <trkpt lat="46.02261" lon="5.63493">
        <ele>1142</ele>
        <time>2025-07-12T13:43:13.724Z</time>
      </trkpt>
      <trkpt lat="46.02263" lon="5.63486">
        <ele>1143</ele>
        <time>2025-07-12T13:43:17.740Z</time>
      </trkpt>
      <trkpt lat="46.02264" lon="5.63481">
        <ele>1145</ele>
        <time>2025-07-12T13:43:21.752Z</time>
      </trkpt>
      <trkpt lat="46.02266" lon="5.63476">
        <ele>1145</ele>
        <time>2025-07-12T13:43:26.739Z</time>
      </trkpt>
      <trkpt lat="46.02267" lon="5.63467">
        <ele>1145</ele>
        <time>2025-07-12T13:43:50.734Z</time>
      </trkpt>
      <trkpt lat="46.02267" lon="5.63467">
        <ele>1145</ele>
        <time>2025-07-12T13:43:55.729Z</time>
      </trkpt>
      <trkpt lat="46.02268" lon="5.63465">
        <ele>1145</ele>
        <time>2025-07-12T13:43:59.739Z</time>
      </trkpt>
      <trkpt lat="46.0227" lon="5.6346">
        <ele>1145</ele>
        <time>2025-07-12T13:44:04.740Z</time>
      </trkpt>
      <trkpt lat="46.02275" lon="5.63445">
        <ele>1145</ele>
        <time>2025-07-12T13:44:08.742Z</time>
      </trkpt>
      <trkpt lat="46.02264" lon="5.63444">
        <ele>1145</ele>
        <time>2025-07-12T13:44:54.745Z</time>
      </trkpt>
      <trkpt lat="46.02266" lon="5.6345">
        <ele>1145</ele>
        <time>2025-07-12T13:44:59.732Z</time>
      </trkpt>
      <trkpt lat="46.02265" lon="5.6345">
        <ele>1145</ele>
        <time>2025-07-12T13:45:03.737Z</time>
      </trkpt>
      <trkpt lat="46.02265" lon="5.63453">
        <ele>1145</ele>
        <time>2025-07-12T13:45:08.726Z</time>
      </trkpt>
      <trkpt lat="46.02265" lon="5.63456">
        <ele>1145</ele>
        <time>2025-07-12T13:45:12.730Z</time>
      </trkpt>
      <trkpt lat="46.02272" lon="5.63459">
        <ele>1145</ele>
        <time>2025-07-12T13:46:28.740Z</time>
      </trkpt>
      <trkpt lat="46.02272" lon="5.63457">
        <ele>1145</ele>
        <time>2025-07-12T13:46:33.748Z</time>
      </trkpt>
      <trkpt lat="46.02272" lon="5.63453">
        <ele>1145</ele>
        <time>2025-07-12T13:46:38.696Z</time>
      </trkpt>
      <trkpt lat="46.02272" lon="5.6345">
        <ele>1145</ele>
        <time>2025-07-12T13:46:42.745Z</time>
      </trkpt>
      <trkpt lat="46.02273" lon="5.63445">
        <ele>1145</ele>
        <time>2025-07-12T13:46:47.737Z</time>
      </trkpt>
      <trkpt lat="46.02275" lon="5.63441">
        <ele>1145</ele>
        <time>2025-07-12T13:46:52.694Z</time>
      </trkpt>
      <trkpt lat="46.02279" lon="5.63435">
        <ele>1145</ele>
        <time>2025-07-12T13:46:56.738Z</time>
      </trkpt>
      <trkpt lat="46.02282" lon="5.63422">
        <ele>1145</ele>
        <time>2025-07-12T13:47:01.731Z</time>
      </trkpt>
      <trkpt lat="46.02282" lon="5.63411">
        <ele>1145</ele>
        <time>2025-07-12T13:47:06.744Z</time>
      </trkpt>
      <trkpt lat="46.02284" lon="5.63395">
        <ele>1146</ele>
        <time>2025-07-12T13:47:24.741Z</time>
      </trkpt>
      <trkpt lat="46.02284" lon="5.63393">
        <ele>1146</ele>
        <time>2025-07-12T13:47:29.742Z</time>
      </trkpt>
      <trkpt lat="46.02285" lon="5.63392">
        <ele>1146</ele>
        <time>2025-07-12T13:47:33.745Z</time>
      </trkpt>
      <trkpt lat="46.02286" lon="5.63389">
        <ele>1146</ele>
        <time>2025-07-12T13:47:37.738Z</time>
      </trkpt>
      <trkpt lat="46.02286" lon="5.63389">
        <ele>1146</ele>
        <time>2025-07-12T13:47:42.728Z</time>
      </trkpt>
      <trkpt lat="46.02288" lon="5.63385">
        <ele>1146</ele>
        <time>2025-07-12T13:47:46.739Z</time>
      </trkpt>
      <trkpt lat="46.02292" lon="5.63377">
        <ele>1144</ele>
        <time>2025-07-12T13:47:50.736Z</time>
      </trkpt>
      <trkpt lat="46.02295" lon="5.63372">
        <ele>1145</ele>
        <time>2025-07-12T13:47:55.721Z</time>
      </trkpt>
      <trkpt lat="46.023" lon="5.63367">
        <ele>1145</ele>
        <time>2025-07-12T13:47:59.739Z</time>
      </trkpt>
      <trkpt lat="46.02306" lon="5.63361">
        <ele>1145</ele>
        <time>2025-07-12T13:48:04.737Z</time>
      </trkpt>
      <trkpt lat="46.02311" lon="5.63357">
        <ele>1145</ele>
        <time>2025-07-12T13:48:09.735Z</time>
      </trkpt>
      <trkpt lat="46.02315" lon="5.63351">
        <ele>1145</ele>
        <time>2025-07-12T13:48:13.743Z</time>
      </trkpt>
      <trkpt lat="46.02318" lon="5.63342">
        <ele>1145</ele>
        <time>2025-07-12T13:48:18.726Z</time>
      </trkpt>
      <trkpt lat="46.02318" lon="5.63334">
        <ele>1145</ele>
        <time>2025-07-12T13:48:23.742Z</time>
      </trkpt>
      <trkpt lat="46.02312" lon="5.63326">
        <ele>1145</ele>
        <time>2025-07-12T13:48:28.740Z</time>
      </trkpt>
      <trkpt lat="46.02305" lon="5.63319">
        <ele>1145</ele>
        <time>2025-07-12T13:48:33.727Z</time>
      </trkpt>
      <trkpt lat="46.02299" lon="5.63314">
        <ele>1144</ele>
        <time>2025-07-12T13:48:37.743Z</time>
      </trkpt>
      <trkpt lat="46.02294" lon="5.63305">
        <ele>1144</ele>
        <time>2025-07-12T13:48:42.733Z</time>
      </trkpt>
      <trkpt lat="46.0229" lon="5.63299">
        <ele>1146</ele>
        <time>2025-07-12T13:48:47.321Z</time>
      </trkpt>
      <trkpt lat="46.02287" lon="5.63291">
        <ele>1142</ele>
        <time>2025-07-12T13:48:51.744Z</time>
      </trkpt>
      <trkpt lat="46.02284" lon="5.63283">
        <ele>1142</ele>
        <time>2025-07-12T13:48:56.739Z</time>
      </trkpt>
      <trkpt lat="46.0228" lon="5.63276">
        <ele>1142</ele>
        <time>2025-07-12T13:49:00.744Z</time>
      </trkpt>
      <trkpt lat="46.02275" lon="5.6327">
        <ele>1142</ele>
        <time>2025-07-12T13:49:05.199Z</time>
      </trkpt>
      <trkpt lat="46.02271" lon="5.63265">
        <ele>1142</ele>
        <time>2025-07-12T13:49:09.479Z</time>
      </trkpt>
      <trkpt lat="46.02267" lon="5.6326">
        <ele>1142</ele>
        <time>2025-07-12T13:49:13.742Z</time>
      </trkpt>
      <trkpt lat="46.02264" lon="5.63252">
        <ele>1145</ele>
        <time>2025-07-12T13:49:17.750Z</time>
      </trkpt>
      <trkpt lat="46.02262" lon="5.63244">
        <ele>1145</ele>
        <time>2025-07-12T13:49:22.178Z</time>
      </trkpt>
      <trkpt lat="46.0226" lon="5.63235">
        <ele>1145</ele>
        <time>2025-07-12T13:49:26.747Z</time>
      </trkpt>
      <trkpt lat="46.02259" lon="5.63226">
        <ele>1145</ele>
        <time>2025-07-12T13:49:31.316Z</time>
      </trkpt>
      <trkpt lat="46.02256" lon="5.63217">
        <ele>1145</ele>
        <time>2025-07-12T13:49:35.737Z</time>
      </trkpt>
      <trkpt lat="46.02253" lon="5.63208">
        <ele>1145</ele>
        <time>2025-07-12T13:49:40.496Z</time>
      </trkpt>
      <trkpt lat="46.02252" lon="5.63201">
        <ele>1145</ele>
        <time>2025-07-12T13:49:44.517Z</time>
      </trkpt>
      <trkpt lat="46.02249" lon="5.63193">
        <ele>1145</ele>
        <time>2025-07-12T13:49:48.696Z</time>
      </trkpt>
      <trkpt lat="46.02248" lon="5.63184">
        <ele>1145</ele>
        <time>2025-07-12T13:49:53.216Z</time>
      </trkpt>
      <trkpt lat="46.02246" lon="5.63175">
        <ele>1146</ele>
        <time>2025-07-12T13:49:57.750Z</time>
      </trkpt>
      <trkpt lat="46.02246" lon="5.63165">
        <ele>1146</ele>
        <time>2025-07-12T13:50:02.136Z</time>
      </trkpt>
      <trkpt lat="46.02246" lon="5.63157">
        <ele>1146</ele>
        <time>2025-07-12T13:50:06.378Z</time>
      </trkpt>
      <trkpt lat="46.02245" lon="5.63149">
        <ele>1148</ele>
        <time>2025-07-12T13:50:10.748Z</time>
      </trkpt>
      <trkpt lat="46.02246" lon="5.6314">
        <ele>1148</ele>
        <time>2025-07-12T13:50:15.036Z</time>
      </trkpt>
      <trkpt lat="46.02247" lon="5.63132">
        <ele>1148</ele>
        <time>2025-07-12T13:50:19.236Z</time>
      </trkpt>
      <trkpt lat="46.02246" lon="5.63123">
        <ele>1152</ele>
        <time>2025-07-12T13:50:23.416Z</time>
      </trkpt>
      <trkpt lat="46.02246" lon="5.63115">
        <ele>1152</ele>
        <time>2025-07-12T13:50:27.556Z</time>
      </trkpt>
      <trkpt lat="46.02245" lon="5.63107">
        <ele>1152</ele>
        <time>2025-07-12T13:50:31.740Z</time>
      </trkpt>
      <trkpt lat="46.02244" lon="5.63099">
        <ele>1152</ele>
        <time>2025-07-12T13:50:36.114Z</time>
      </trkpt>
      <trkpt lat="46.02245" lon="5.63094">
        <ele>1156</ele>
        <time>2025-07-12T13:50:40.194Z</time>
      </trkpt>
      <trkpt lat="46.02245" lon="5.6309">
        <ele>1156</ele>
        <time>2025-07-12T13:50:44.730Z</time>
      </trkpt>
      <trkpt lat="46.02243" lon="5.63083">
        <ele>1156</ele>
        <time>2025-07-12T13:50:49.054Z</time>
      </trkpt>
      <trkpt lat="46.02241" lon="5.63075">
        <ele>1156</ele>
        <time>2025-07-12T13:50:53.750Z</time>
      </trkpt>
      <trkpt lat="46.02241" lon="5.63072">
        <ele>1156</ele>
        <time>2025-07-12T13:50:58.572Z</time>
      </trkpt>
      <trkpt lat="46.02241" lon="5.63066">
        <ele>1159</ele>
        <time>2025-07-12T13:51:02.691Z</time>
      </trkpt>
      <trkpt lat="46.0224" lon="5.63059">
        <ele>1159</ele>
        <time>2025-07-12T13:51:06.739Z</time>
      </trkpt>
      <trkpt lat="46.02239" lon="5.63051">
        <ele>1159</ele>
        <time>2025-07-12T13:51:11.730Z</time>
      </trkpt>
      <trkpt lat="46.02238" lon="5.63041">
        <ele>1162</ele>
        <time>2025-07-12T13:51:16.351Z</time>
      </trkpt>
      <trkpt lat="46.02237" lon="5.63034">
        <ele>1162</ele>
        <time>2025-07-12T13:51:20.740Z</time>
      </trkpt>
      <trkpt lat="46.02236" lon="5.6303">
        <ele>1163</ele>
        <time>2025-07-12T13:51:25.672Z</time>
      </trkpt>
      <trkpt lat="46.02235" lon="5.63024">
        <ele>1163</ele>
        <time>2025-07-12T13:51:30.311Z</time>
      </trkpt>
      <trkpt lat="46.02234" lon="5.63021">
        <ele>1163</ele>
        <time>2025-07-12T13:51:34.742Z</time>
      </trkpt>
      <trkpt lat="46.02235" lon="5.63017">
        <ele>1163</ele>
        <time>2025-07-12T13:51:38.755Z</time>
      </trkpt>
      <trkpt lat="46.02234" lon="5.63013">
        <ele>1165</ele>
        <time>2025-07-12T13:51:43.560Z</time>
      </trkpt>
      <trkpt lat="46.02232" lon="5.6301">
        <ele>1165</ele>
        <time>2025-07-12T13:51:48.040Z</time>
      </trkpt>
      <trkpt lat="46.02229" lon="5.62999">
        <ele>1165</ele>
        <time>2025-07-12T13:51:52.734Z</time>
      </trkpt>
      <trkpt lat="46.02229" lon="5.62992">
        <ele>1165</ele>
        <time>2025-07-12T13:51:56.732Z</time>
      </trkpt>
      <trkpt lat="46.02226" lon="5.62984">
        <ele>1166</ele>
        <time>2025-07-12T13:52:00.958Z</time>
      </trkpt>
      <trkpt lat="46.02227" lon="5.62975">
        <ele>1166</ele>
        <time>2025-07-12T13:52:05.697Z</time>
      </trkpt>
      <trkpt lat="46.02227" lon="5.62967">
        <ele>1166</ele>
        <time>2025-07-12T13:52:09.735Z</time>
      </trkpt>
      <trkpt lat="46.02226" lon="5.62957">
        <ele>1167</ele>
        <time>2025-07-12T13:52:14.746Z</time>
      </trkpt>
      <trkpt lat="46.02225" lon="5.6295">
        <ele>1167</ele>
        <time>2025-07-12T13:52:19.734Z</time>
      </trkpt>
      <trkpt lat="46.02223" lon="5.62942">
        <ele>1167</ele>
        <time>2025-07-12T13:52:23.740Z</time>
      </trkpt>
      <trkpt lat="46.02223" lon="5.62933">
        <ele>1167</ele>
        <time>2025-07-12T13:52:28.739Z</time>
      </trkpt>
      <trkpt lat="46.02223" lon="5.62925">
        <ele>1166</ele>
        <time>2025-07-12T13:52:33.737Z</time>
      </trkpt>
      <trkpt lat="46.02224" lon="5.62916">
        <ele>1166</ele>
        <time>2025-07-12T13:52:37.739Z</time>
      </trkpt>
      <trkpt lat="46.02223" lon="5.62908">
        <ele>1166</ele>
        <time>2025-07-12T13:52:41.741Z</time>
      </trkpt>
      <trkpt lat="46.0222" lon="5.62895">
        <ele>1165</ele>
        <time>2025-07-12T13:52:46.720Z</time>
      </trkpt>
      <trkpt lat="46.02219" lon="5.62887">
        <ele>1165</ele>
        <time>2025-07-12T13:52:50.737Z</time>
      </trkpt>
      <trkpt lat="46.02219" lon="5.62879">
        <ele>1165</ele>
        <time>2025-07-12T13:52:54.738Z</time>
      </trkpt>
      <trkpt lat="46.02219" lon="5.6287">
        <ele>1164</ele>
        <time>2025-07-12T13:52:59.745Z</time>
      </trkpt>
      <trkpt lat="46.0222" lon="5.62865">
        <ele>1164</ele>
        <time>2025-07-12T13:53:05.740Z</time>
      </trkpt>
      <trkpt lat="46.02222" lon="5.62863">
        <ele>1164</ele>
        <time>2025-07-12T13:57:29.689Z</time>
      </trkpt>
      <trkpt lat="46.02222" lon="5.62858">
        <ele>1164</ele>
        <time>2025-07-12T13:57:33.691Z</time>
      </trkpt>
      <trkpt lat="46.0222" lon="5.6285">
        <ele>1164</ele>
        <time>2025-07-12T13:57:37.736Z</time>
      </trkpt>
      <trkpt lat="46.02218" lon="5.62843">
        <ele>1163</ele>
        <time>2025-07-12T13:57:41.736Z</time>
      </trkpt>
      <trkpt lat="46.02218" lon="5.62833">
        <ele>1163</ele>
        <time>2025-07-12T13:57:46.745Z</time>
      </trkpt>
      <trkpt lat="46.02218" lon="5.62823">
        <ele>1163</ele>
        <time>2025-07-12T13:57:51.750Z</time>
      </trkpt>
      <trkpt lat="46.02217" lon="5.62811">
        <ele>1161</ele>
        <time>2025-07-12T13:57:56.739Z</time>
      </trkpt>
      <trkpt lat="46.02216" lon="5.62799">
        <ele>1161</ele>
        <time>2025-07-12T13:58:01.745Z</time>
      </trkpt>
      <trkpt lat="46.02214" lon="5.62789">
        <ele>1160</ele>
        <time>2025-07-12T13:58:06.745Z</time>
      </trkpt>
      <trkpt lat="46.02213" lon="5.6278">
        <ele>1160</ele>
        <time>2025-07-12T13:58:11.743Z</time>
      </trkpt>
      <trkpt lat="46.02211" lon="5.62772">
        <ele>1160</ele>
        <time>2025-07-12T13:58:16.728Z</time>
      </trkpt>
      <trkpt lat="46.0221" lon="5.62767">
        <ele>1160</ele>
        <time>2025-07-12T13:58:20.740Z</time>
      </trkpt>
      <trkpt lat="46.0221" lon="5.62761">
        <ele>1159</ele>
        <time>2025-07-12T13:58:25.732Z</time>
      </trkpt>
      <trkpt lat="46.02209" lon="5.62757">
        <ele>1159</ele>
        <time>2025-07-12T13:58:29.742Z</time>
      </trkpt>
      <trkpt lat="46.02206" lon="5.62752">
        <ele>1158</ele>
        <time>2025-07-12T13:58:34.736Z</time>
      </trkpt>
      <trkpt lat="46.02204" lon="5.62745">
        <ele>1158</ele>
        <time>2025-07-12T13:58:38.742Z</time>
      </trkpt>
      <trkpt lat="46.02202" lon="5.62743">
        <ele>1158</ele>
        <time>2025-07-12T13:58:44.739Z</time>
      </trkpt>
      <trkpt lat="46.02199" lon="5.62736">
        <ele>1158</ele>
        <time>2025-07-12T13:58:48.752Z</time>
      </trkpt>
      <trkpt lat="46.02198" lon="5.6273">
        <ele>1155</ele>
        <time>2025-07-12T13:58:53.733Z</time>
      </trkpt>
      <trkpt lat="46.02198" lon="5.62727">
        <ele>1155</ele>
        <time>2025-07-12T13:58:57.741Z</time>
      </trkpt>
      <trkpt lat="46.02199" lon="5.62724">
        <ele>1155</ele>
        <time>2025-07-12T13:59:02.746Z</time>
      </trkpt>
      <trkpt lat="46.022" lon="5.62713">
        <ele>1155</ele>
        <time>2025-07-12T13:59:07.738Z</time>
      </trkpt>
      <trkpt lat="46.02201" lon="5.62703">
        <ele>1154</ele>
        <time>2025-07-12T13:59:11.746Z</time>
      </trkpt>
      <trkpt lat="46.02203" lon="5.62693">
        <ele>1154</ele>
        <time>2025-07-12T13:59:16.740Z</time>
      </trkpt>
      <trkpt lat="46.02204" lon="5.62684">
        <ele>1154</ele>
        <time>2025-07-12T13:59:20.742Z</time>
      </trkpt>
      <trkpt lat="46.02203" lon="5.62673">
        <ele>1152</ele>
        <time>2025-07-12T13:59:25.739Z</time>
      </trkpt>
      <trkpt lat="46.02198" lon="5.62664">
        <ele>1152</ele>
        <time>2025-07-12T13:59:35.729Z</time>
      </trkpt>
      <trkpt lat="46.02197" lon="5.62663">
        <ele>1152</ele>
        <time>2025-07-12T13:59:39.740Z</time>
      </trkpt>
      <trkpt lat="46.02199" lon="5.62659">
        <ele>1152</ele>
        <time>2025-07-12T13:59:43.741Z</time>
      </trkpt>
      <trkpt lat="46.022" lon="5.62654">
        <ele>1152</ele>
        <time>2025-07-12T13:59:47.745Z</time>
      </trkpt>
      <trkpt lat="46.02204" lon="5.62641">
        <ele>1149</ele>
        <time>2025-07-12T13:59:52.745Z</time>
      </trkpt>
      <trkpt lat="46.02207" lon="5.62634">
        <ele>1149</ele>
        <time>2025-07-12T13:59:57.769Z</time>
      </trkpt>
      <trkpt lat="46.0221" lon="5.62624">
        <ele>1148</ele>
        <time>2025-07-12T14:00:02.748Z</time>
      </trkpt>
      <trkpt lat="46.02213" lon="5.62618">
        <ele>1148</ele>
        <time>2025-07-12T14:00:07.743Z</time>
      </trkpt>
      <trkpt lat="46.02215" lon="5.62613">
        <ele>1148</ele>
        <time>2025-07-12T14:00:11.746Z</time>
      </trkpt>
      <trkpt lat="46.02218" lon="5.62604">
        <ele>1148</ele>
        <time>2025-07-12T14:00:16.735Z</time>
      </trkpt>
      <trkpt lat="46.02218" lon="5.62597">
        <ele>1148</ele>
        <time>2025-07-12T14:00:20.749Z</time>
      </trkpt>
      <trkpt lat="46.02218" lon="5.62587">
        <ele>1143</ele>
        <time>2025-07-12T14:00:25.748Z</time>
      </trkpt>
      <trkpt lat="46.02221" lon="5.6258">
        <ele>1143</ele>
        <time>2025-07-12T14:00:29.734Z</time>
      </trkpt>
      <trkpt lat="46.02222" lon="5.62578">
        <ele>1143</ele>
        <time>2025-07-12T14:00:34.739Z</time>
      </trkpt>
      <trkpt lat="46.02222" lon="5.62577">
        <ele>1143</ele>
        <time>2025-07-12T14:00:38.738Z</time>
      </trkpt>
      <trkpt lat="46.02221" lon="5.62576">
        <ele>1143</ele>
        <time>2025-07-12T14:00:43.755Z</time>
      </trkpt>
      <trkpt lat="46.02224" lon="5.62573">
        <ele>1143</ele>
        <time>2025-07-12T14:00:48.748Z</time>
      </trkpt>
      <trkpt lat="46.0223" lon="5.6257">
        <ele>1143</ele>
        <time>2025-07-12T14:00:53.743Z</time>
      </trkpt>
      <trkpt lat="46.02237" lon="5.62566">
        <ele>1142</ele>
        <time>2025-07-12T14:00:58.741Z</time>
      </trkpt>
      <trkpt lat="46.02241" lon="5.62562">
        <ele>1142</ele>
        <time>2025-07-12T14:01:02.755Z</time>
      </trkpt>
      <trkpt lat="46.02245" lon="5.62559">
        <ele>1142</ele>
        <time>2025-07-12T14:01:06.747Z</time>
      </trkpt>
      <trkpt lat="46.02254" lon="5.62556">
        <ele>1142</ele>
        <time>2025-07-12T14:01:11.744Z</time>
      </trkpt>
      <trkpt lat="46.0226" lon="5.62556">
        <ele>1142</ele>
        <time>2025-07-12T14:01:15.742Z</time>
      </trkpt>
      <trkpt lat="46.02264" lon="5.62556">
        <ele>1142</ele>
        <time>2025-07-12T14:01:20.170Z</time>
      </trkpt>
      <trkpt lat="46.02268" lon="5.62552">
        <ele>1146</ele>
        <time>2025-07-12T14:01:24.699Z</time>
      </trkpt>
      <trkpt lat="46.02273" lon="5.62547">
        <ele>1146</ele>
        <time>2025-07-12T14:01:29.100Z</time>
      </trkpt>
      <trkpt lat="46.02279" lon="5.62542">
        <ele>1146</ele>
        <time>2025-07-12T14:01:33.539Z</time>
      </trkpt>
      <trkpt lat="46.02285" lon="5.62536">
        <ele>1144</ele>
        <time>2025-07-12T14:01:38.091Z</time>
      </trkpt>
      <trkpt lat="46.0229" lon="5.62531">
        <ele>1144</ele>
        <time>2025-07-12T14:01:42.098Z</time>
      </trkpt>
      <trkpt lat="46.02296" lon="5.62526">
        <ele>1146</ele>
        <time>2025-07-12T14:01:46.179Z</time>
      </trkpt>
      <trkpt lat="46.02302" lon="5.62522">
        <ele>1146</ele>
        <time>2025-07-12T14:01:50.197Z</time>
      </trkpt>
      <trkpt lat="46.02308" lon="5.62517">
        <ele>1146</ele>
        <time>2025-07-12T14:01:54.717Z</time>
      </trkpt>
      <trkpt lat="46.02314" lon="5.62511">
        <ele>1146</ele>
        <time>2025-07-12T14:01:58.725Z</time>
      </trkpt>
      <trkpt lat="46.0232" lon="5.62505">
        <ele>1146</ele>
        <time>2025-07-12T14:02:02.877Z</time>
      </trkpt>
      <trkpt lat="46.02324" lon="5.62502">
        <ele>1146</ele>
        <time>2025-07-12T14:02:06.999Z</time>
      </trkpt>
      <trkpt lat="46.0233" lon="5.62501">
        <ele>1146</ele>
        <time>2025-07-12T14:02:11.456Z</time>
      </trkpt>
      <trkpt lat="46.02335" lon="5.625">
        <ele>1146</ele>
        <time>2025-07-12T14:02:15.916Z</time>
      </trkpt>
      <trkpt lat="46.0234" lon="5.62497">
        <ele>1146</ele>
        <time>2025-07-12T14:02:19.975Z</time>
      </trkpt>
      <trkpt lat="46.02347" lon="5.62494">
        <ele>1146</ele>
        <time>2025-07-12T14:02:24.435Z</time>
      </trkpt>
      <trkpt lat="46.02354" lon="5.62494">
        <ele>1147</ele>
        <time>2025-07-12T14:02:28.516Z</time>
      </trkpt>
      <trkpt lat="46.02362" lon="5.62492">
        <ele>1147</ele>
        <time>2025-07-12T14:02:32.693Z</time>
      </trkpt>
      <trkpt lat="46.0237" lon="5.62491">
        <ele>1147</ele>
        <time>2025-07-12T14:02:37.632Z</time>
      </trkpt>
      <trkpt lat="46.02376" lon="5.62491">
        <ele>1148</ele>
        <time>2025-07-12T14:02:41.952Z</time>
      </trkpt>
      <trkpt lat="46.02382" lon="5.6249">
        <ele>1148</ele>
        <time>2025-07-12T14:02:46.174Z</time>
      </trkpt>
      <trkpt lat="46.02389" lon="5.62487">
        <ele>1148</ele>
        <time>2025-07-12T14:02:50.573Z</time>
      </trkpt>
      <trkpt lat="46.02397" lon="5.62485">
        <ele>1144</ele>
        <time>2025-07-12T14:02:54.727Z</time>
      </trkpt>
      <trkpt lat="46.02403" lon="5.62482">
        <ele>1145</ele>
        <time>2025-07-12T14:02:59.114Z</time>
      </trkpt>
      <trkpt lat="46.0241" lon="5.62477">
        <ele>1145</ele>
        <time>2025-07-12T14:03:03.511Z</time>
      </trkpt>
      <trkpt lat="46.02416" lon="5.62473">
        <ele>1145</ele>
        <time>2025-07-12T14:03:07.949Z</time>
      </trkpt>
      <trkpt lat="46.02422" lon="5.62466">
        <ele>1145</ele>
        <time>2025-07-12T14:03:12.471Z</time>
      </trkpt>
      <trkpt lat="46.02427" lon="5.62457">
        <ele>1142</ele>
        <time>2025-07-12T14:03:16.870Z</time>
      </trkpt>
      <trkpt lat="46.02432" lon="5.6245">
        <ele>1145</ele>
        <time>2025-07-12T14:03:21.351Z</time>
      </trkpt>
      <trkpt lat="46.02437" lon="5.62443">
        <ele>1145</ele>
        <time>2025-07-12T14:03:25.737Z</time>
      </trkpt>
      <trkpt lat="46.02442" lon="5.62436">
        <ele>1145</ele>
        <time>2025-07-12T14:03:30.669Z</time>
      </trkpt>
      <trkpt lat="46.02448" lon="5.6243">
        <ele>1141</ele>
        <time>2025-07-12T14:03:35.708Z</time>
      </trkpt>
      <trkpt lat="46.02453" lon="5.62425">
        <ele>1141</ele>
        <time>2025-07-12T14:03:39.808Z</time>
      </trkpt>
      <trkpt lat="46.02457" lon="5.62421">
        <ele>1141</ele>
        <time>2025-07-12T14:03:43.997Z</time>
      </trkpt>
      <trkpt lat="46.02464" lon="5.62417">
        <ele>1141</ele>
        <time>2025-07-12T14:03:48.618Z</time>
      </trkpt>
      <trkpt lat="46.02471" lon="5.62413">
        <ele>1141</ele>
        <time>2025-07-12T14:03:52.718Z</time>
      </trkpt>
      <trkpt lat="46.02476" lon="5.62413">
        <ele>1141</ele>
        <time>2025-07-12T14:03:56.728Z</time>
      </trkpt>
      <trkpt lat="46.02481" lon="5.62409">
        <ele>1141</ele>
        <time>2025-07-12T14:04:01.057Z</time>
      </trkpt>
      <trkpt lat="46.02485" lon="5.62407">
        <ele>1141</ele>
        <time>2025-07-12T14:04:05.197Z</time>
      </trkpt>
      <trkpt lat="46.02489" lon="5.62403">
        <ele>1142</ele>
        <time>2025-07-12T14:04:09.729Z</time>
      </trkpt>
      <trkpt lat="46.02492" lon="5.624">
        <ele>1138</ele>
        <time>2025-07-12T14:04:13.735Z</time>
      </trkpt>
      <trkpt lat="46.02498" lon="5.62399">
        <ele>1138</ele>
        <time>2025-07-12T14:04:17.856Z</time>
      </trkpt>
      <trkpt lat="46.02502" lon="5.62399">
        <ele>1138</ele>
        <time>2025-07-12T14:04:22.017Z</time>
      </trkpt>
      <trkpt lat="46.02509" lon="5.62397">
        <ele>1138</ele>
        <time>2025-07-12T14:04:26.556Z</time>
      </trkpt>
      <trkpt lat="46.02515" lon="5.62393">
        <ele>1139</ele>
        <time>2025-07-12T14:04:30.736Z</time>
      </trkpt>
      <trkpt lat="46.02521" lon="5.6239">
        <ele>1139</ele>
        <time>2025-07-12T14:04:34.836Z</time>
      </trkpt>
      <trkpt lat="46.02528" lon="5.62387">
        <ele>1139</ele>
        <time>2025-07-12T14:04:39.697Z</time>
      </trkpt>
      <trkpt lat="46.02534" lon="5.62387">
        <ele>1139</ele>
        <time>2025-07-12T14:04:43.751Z</time>
      </trkpt>
      <trkpt lat="46.0254" lon="5.62385">
        <ele>1139</ele>
        <time>2025-07-12T14:04:48.375Z</time>
      </trkpt>
      <trkpt lat="46.02547" lon="5.62384">
        <ele>1141</ele>
        <time>2025-07-12T14:04:52.971Z</time>
      </trkpt>
      <trkpt lat="46.02552" lon="5.62379">
        <ele>1141</ele>
        <time>2025-07-12T14:04:57.191Z</time>
      </trkpt>
      <trkpt lat="46.02559" lon="5.62374">
        <ele>1137</ele>
        <time>2025-07-12T14:05:01.733Z</time>
      </trkpt>
      <trkpt lat="46.02566" lon="5.62369">
        <ele>1137</ele>
        <time>2025-07-12T14:05:05.871Z</time>
      </trkpt>
      <trkpt lat="46.02571" lon="5.62363">
        <ele>1138</ele>
        <time>2025-07-12T14:05:10.093Z</time>
      </trkpt>
      <trkpt lat="46.02577" lon="5.62359">
        <ele>1138</ele>
        <time>2025-07-12T14:05:14.720Z</time>
      </trkpt>
      <trkpt lat="46.02581" lon="5.62352">
        <ele>1138</ele>
        <time>2025-07-12T14:05:19.371Z</time>
      </trkpt>
      <trkpt lat="46.02586" lon="5.62349">
        <ele>1138</ele>
        <time>2025-07-12T14:05:23.735Z</time>
      </trkpt>
      <trkpt lat="46.0259" lon="5.62348">
        <ele>1138</ele>
        <time>2025-07-12T14:05:28.190Z</time>
      </trkpt>
      <trkpt lat="46.02595" lon="5.62347">
        <ele>1133</ele>
        <time>2025-07-12T14:05:32.371Z</time>
      </trkpt>
      <trkpt lat="46.02599" lon="5.62342">
        <ele>1133</ele>
        <time>2025-07-12T14:05:36.592Z</time>
      </trkpt>
      <trkpt lat="46.02603" lon="5.62337">
        <ele>1133</ele>
        <time>2025-07-12T14:05:40.735Z</time>
      </trkpt>
      <trkpt lat="46.02606" lon="5.62331">
        <ele>1133</ele>
        <time>2025-07-12T14:05:44.972Z</time>
      </trkpt>
      <trkpt lat="46.0261" lon="5.62326">
        <ele>1133</ele>
        <time>2025-07-12T14:05:49.499Z</time>
      </trkpt>
      <trkpt lat="46.02613" lon="5.62319">
        <ele>1128</ele>
        <time>2025-07-12T14:05:53.736Z</time>
      </trkpt>
      <trkpt lat="46.02618" lon="5.62315">
        <ele>1128</ele>
        <time>2025-07-12T14:05:58.519Z</time>
      </trkpt>
      <trkpt lat="46.02624" lon="5.62314">
        <ele>1128</ele>
        <time>2025-07-12T14:06:02.729Z</time>
      </trkpt>
      <trkpt lat="46.02628" lon="5.62312">
        <ele>1133</ele>
        <time>2025-07-12T14:06:07.218Z</time>
      </trkpt>
      <trkpt lat="46.02633" lon="5.62305">
        <ele>1133</ele>
        <time>2025-07-12T14:06:11.258Z</time>
      </trkpt>
      <trkpt lat="46.02639" lon="5.62298">
        <ele>1133</ele>
        <time>2025-07-12T14:06:15.417Z</time>
      </trkpt>
      <trkpt lat="46.02645" lon="5.62291">
        <ele>1128</ele>
        <time>2025-07-12T14:06:19.858Z</time>
      </trkpt>
      <trkpt lat="46.02651" lon="5.62286">
        <ele>1128</ele>
        <time>2025-07-12T14:06:24.317Z</time>
      </trkpt>
      <trkpt lat="46.02655" lon="5.62282">
        <ele>1128</ele>
        <time>2025-07-12T14:06:28.397Z</time>
      </trkpt>
      <trkpt lat="46.0266" lon="5.62277">
        <ele>1128</ele>
        <time>2025-07-12T14:06:32.459Z</time>
      </trkpt>
      <trkpt lat="46.02665" lon="5.62273">
        <ele>1128</ele>
        <time>2025-07-12T14:06:36.458Z</time>
      </trkpt>
      <trkpt lat="46.02671" lon="5.6227">
        <ele>1128</ele>
        <time>2025-07-12T14:06:40.538Z</time>
      </trkpt>
      <trkpt lat="46.02677" lon="5.62269">
        <ele>1128</ele>
        <time>2025-07-12T14:06:44.739Z</time>
      </trkpt>
      <trkpt lat="46.02685" lon="5.6227">
        <ele>1126</ele>
        <time>2025-07-12T14:06:48.749Z</time>
      </trkpt>
      <trkpt lat="46.02692" lon="5.62267">
        <ele>1126</ele>
        <time>2025-07-12T14:06:53.157Z</time>
      </trkpt>
      <trkpt lat="46.02698" lon="5.62266">
        <ele>1126</ele>
        <time>2025-07-12T14:06:57.299Z</time>
      </trkpt>
      <trkpt lat="46.02704" lon="5.62262">
        <ele>1121</ele>
        <time>2025-07-12T14:07:01.438Z</time>
      </trkpt>
      <trkpt lat="46.02709" lon="5.62256">
        <ele>1120</ele>
        <time>2025-07-12T14:07:05.718Z</time>
      </trkpt>
      <trkpt lat="46.02713" lon="5.62249">
        <ele>1120</ele>
        <time>2025-07-12T14:07:09.724Z</time>
      </trkpt>
      <trkpt lat="46.02714" lon="5.62243">
        <ele>1120</ele>
        <time>2025-07-12T14:07:13.739Z</time>
      </trkpt>
      <trkpt lat="46.02712" lon="5.62237">
        <ele>1120</ele>
        <time>2025-07-12T14:07:18.455Z</time>
      </trkpt>
      <trkpt lat="46.02709" lon="5.62232">
        <ele>1115</ele>
        <time>2025-07-12T14:07:22.736Z</time>
      </trkpt>
      <trkpt lat="46.02703" lon="5.62232">
        <ele>1117</ele>
        <time>2025-07-12T14:07:26.874Z</time>
      </trkpt>
      <trkpt lat="46.02697" lon="5.62234">
        <ele>1117</ele>
        <time>2025-07-12T14:07:30.974Z</time>
      </trkpt>
      <trkpt lat="46.02686" lon="5.62237">
        <ele>1121</ele>
        <time>2025-07-12T14:08:32.692Z</time>
      </trkpt>
      <trkpt lat="46.02686" lon="5.62237">
        <ele>1121</ele>
        <time>2025-07-12T14:08:37.690Z</time>
      </trkpt>
      <trkpt lat="46.02683" lon="5.62238">
        <ele>1121</ele>
        <time>2025-07-12T14:08:42.734Z</time>
      </trkpt>
      <trkpt lat="46.02676" lon="5.62239">
        <ele>1123</ele>
        <time>2025-07-12T14:08:47.726Z</time>
      </trkpt>
      <trkpt lat="46.02667" lon="5.6224">
        <ele>1123</ele>
        <time>2025-07-12T14:08:52.736Z</time>
      </trkpt>
      <trkpt lat="46.0266" lon="5.6224">
        <ele>1123</ele>
        <time>2025-07-12T14:08:57.734Z</time>
      </trkpt>
      <trkpt lat="46.02655" lon="5.62238">
        <ele>1123</ele>
        <time>2025-07-12T14:09:01.745Z</time>
      </trkpt>
      <trkpt lat="46.02651" lon="5.62235">
        <ele>1120</ele>
        <time>2025-07-12T14:09:05.742Z</time>
      </trkpt>
      <trkpt lat="46.02647" lon="5.62232">
        <ele>1120</ele>
        <time>2025-07-12T14:09:10.096Z</time>
      </trkpt>
      <trkpt lat="46.02642" lon="5.62227">
        <ele>1120</ele>
        <time>2025-07-12T14:09:14.474Z</time>
      </trkpt>
      <trkpt lat="46.02635" lon="5.62223">
        <ele>1120</ele>
        <time>2025-07-12T14:09:19.273Z</time>
      </trkpt>
      <trkpt lat="46.02631" lon="5.62218">
        <ele>1120</ele>
        <time>2025-07-12T14:09:23.727Z</time>
      </trkpt>
      <trkpt lat="46.02627" lon="5.62216">
        <ele>1120</ele>
        <time>2025-07-12T14:09:28.052Z</time>
      </trkpt>
      <trkpt lat="46.02624" lon="5.62211">
        <ele>1120</ele>
        <time>2025-07-12T14:09:32.552Z</time>
      </trkpt>
      <trkpt lat="46.02621" lon="5.62202">
        <ele>1118</ele>
        <time>2025-07-12T14:09:36.573Z</time>
      </trkpt>
      <trkpt lat="46.02618" lon="5.62194">
        <ele>1118</ele>
        <time>2025-07-12T14:09:40.692Z</time>
      </trkpt>
      <trkpt lat="46.02616" lon="5.62188">
        <ele>1118</ele>
        <time>2025-07-12T14:09:44.724Z</time>
      </trkpt>
      <trkpt lat="46.02612" lon="5.62182">
        <ele>1118</ele>
        <time>2025-07-12T14:09:48.765Z</time>
      </trkpt>
      <trkpt lat="46.02609" lon="5.62175">
        <ele>1115</ele>
        <time>2025-07-12T14:09:53.391Z</time>
      </trkpt>
      <trkpt lat="46.0261" lon="5.62165">
        <ele>1115</ele>
        <time>2025-07-12T14:09:57.571Z</time>
      </trkpt>
      <trkpt lat="46.02611" lon="5.62156">
        <ele>1115</ele>
        <time>2025-07-12T14:10:01.691Z</time>
      </trkpt>
      <trkpt lat="46.02611" lon="5.62147">
        <ele>1111</ele>
        <time>2025-07-12T14:10:05.735Z</time>
      </trkpt>
      <trkpt lat="46.0261" lon="5.62137">
        <ele>1111</ele>
        <time>2025-07-12T14:10:10.731Z</time>
      </trkpt>
      <trkpt lat="46.02609" lon="5.62129">
        <ele>1111</ele>
        <time>2025-07-12T14:10:15.310Z</time>
      </trkpt>
      <trkpt lat="46.0261" lon="5.62121">
        <ele>1108</ele>
        <time>2025-07-12T14:10:19.639Z</time>
      </trkpt>
      <trkpt lat="46.02612" lon="5.62112">
        <ele>1108</ele>
        <time>2025-07-12T14:10:24.518Z</time>
      </trkpt>
      <trkpt lat="46.02611" lon="5.62105">
        <ele>1108</ele>
        <time>2025-07-12T14:10:28.717Z</time>
      </trkpt>
      <trkpt lat="46.02609" lon="5.62096">
        <ele>1107</ele>
        <time>2025-07-12T14:10:32.743Z</time>
      </trkpt>
      <trkpt lat="46.02605" lon="5.62089">
        <ele>1107</ele>
        <time>2025-07-12T14:10:36.742Z</time>
      </trkpt>
      <trkpt lat="46.02602" lon="5.62082">
        <ele>1107</ele>
        <time>2025-07-12T14:10:41.219Z</time>
      </trkpt>
      <trkpt lat="46.02599" lon="5.62076">
        <ele>1107</ele>
        <time>2025-07-12T14:10:45.377Z</time>
      </trkpt>
      <trkpt lat="46.02593" lon="5.62071">
        <ele>1108</ele>
        <time>2025-07-12T14:10:49.556Z</time>
      </trkpt>
      <trkpt lat="46.02587" lon="5.62067">
        <ele>1109</ele>
        <time>2025-07-12T14:10:53.738Z</time>
      </trkpt>
      <trkpt lat="46.02581" lon="5.62064">
        <ele>1109</ele>
        <time>2025-07-12T14:10:58.235Z</time>
      </trkpt>
      <trkpt lat="46.02575" lon="5.62067">
        <ele>1109</ele>
        <time>2025-07-12T14:11:02.728Z</time>
      </trkpt>
      <trkpt lat="46.02568" lon="5.62062">
        <ele>1109</ele>
        <time>2025-07-12T14:11:06.743Z</time>
      </trkpt>
      <trkpt lat="46.02564" lon="5.62057">
        <ele>1109</ele>
        <time>2025-07-12T14:11:11.719Z</time>
      </trkpt>
      <trkpt lat="46.02564" lon="5.62057">
        <ele>1109</ele>
        <time>2025-07-12T14:11:16.746Z</time>
      </trkpt>
      <trkpt lat="46.02562" lon="5.62054">
        <ele>1109</ele>
        <time>2025-07-12T14:11:21.378Z</time>
      </trkpt>
      <trkpt lat="46.0256" lon="5.62045">
        <ele>1109</ele>
        <time>2025-07-12T14:11:25.535Z</time>
      </trkpt>
      <trkpt lat="46.02561" lon="5.62035">
        <ele>1110</ele>
        <time>2025-07-12T14:11:29.952Z</time>
      </trkpt>
      <trkpt lat="46.02567" lon="5.62026">
        <ele>1110</ele>
        <time>2025-07-12T14:11:34.740Z</time>
      </trkpt>
      <trkpt lat="46.02571" lon="5.62017">
        <ele>1112</ele>
        <time>2025-07-12T14:11:39.591Z</time>
      </trkpt>
      <trkpt lat="46.02572" lon="5.62007">
        <ele>1112</ele>
        <time>2025-07-12T14:11:44.670Z</time>
      </trkpt>
      <trkpt lat="46.02573" lon="5.62001">
        <ele>1112</ele>
        <time>2025-07-12T14:11:48.728Z</time>
      </trkpt>
      <trkpt lat="46.02575" lon="5.61994">
        <ele>1112</ele>
        <time>2025-07-12T14:11:53.709Z</time>
      </trkpt>
      <trkpt lat="46.02574" lon="5.61989">
        <ele>1112</ele>
        <time>2025-07-12T14:11:57.981Z</time>
      </trkpt>
      <trkpt lat="46.02575" lon="5.61981">
        <ele>1112</ele>
        <time>2025-07-12T14:12:02.351Z</time>
      </trkpt>
      <trkpt lat="46.02576" lon="5.61976">
        <ele>1112</ele>
        <time>2025-07-12T14:12:06.735Z</time>
      </trkpt>
      <trkpt lat="46.02574" lon="5.61976">
        <ele>1112</ele>
        <time>2025-07-12T14:12:25.732Z</time>
      </trkpt>
      <trkpt lat="46.02574" lon="5.61975">
        <ele>1112</ele>
        <time>2025-07-12T14:12:30.722Z</time>
      </trkpt>
      <trkpt lat="46.02574" lon="5.61973">
        <ele>1112</ele>
        <time>2025-07-12T14:12:35.356Z</time>
      </trkpt>
      <trkpt lat="46.02573" lon="5.61966">
        <ele>1112</ele>
        <time>2025-07-12T14:12:39.476Z</time>
      </trkpt>
      <trkpt lat="46.02574" lon="5.61959">
        <ele>1112</ele>
        <time>2025-07-12T14:12:43.454Z</time>
      </trkpt>
      <trkpt lat="46.02577" lon="5.61951">
        <ele>1110</ele>
        <time>2025-07-12T14:12:47.513Z</time>
      </trkpt>
      <trkpt lat="46.02579" lon="5.61945">
        <ele>1110</ele>
        <time>2025-07-12T14:12:51.743Z</time>
      </trkpt>
      <trkpt lat="46.02579" lon="5.61941">
        <ele>1110</ele>
        <time>2025-07-12T14:12:56.233Z</time>
      </trkpt>
      <trkpt lat="46.02581" lon="5.61939">
        <ele>1110</ele>
        <time>2025-07-12T14:13:00.734Z</time>
      </trkpt>
      <trkpt lat="46.02582" lon="5.61936">
        <ele>1110</ele>
        <time>2025-07-12T14:13:05.213Z</time>
      </trkpt>
      <trkpt lat="46.02582" lon="5.61936">
        <ele>1110</ele>
        <time>2025-07-12T14:13:09.732Z</time>
      </trkpt>
      <trkpt lat="46.02583" lon="5.61936">
        <ele>1110</ele>
        <time>2025-07-12T14:13:13.745Z</time>
      </trkpt>
      <trkpt lat="46.02585" lon="5.61931">
        <ele>1110</ele>
        <time>2025-07-12T14:13:18.613Z</time>
      </trkpt>
      <trkpt lat="46.02586" lon="5.61927">
        <ele>1108</ele>
        <time>2025-07-12T14:13:23.514Z</time>
      </trkpt>
      <trkpt lat="46.02591" lon="5.61919">
        <ele>1108</ele>
        <time>2025-07-12T14:13:28.673Z</time>
      </trkpt>
      <trkpt lat="46.02592" lon="5.61916">
        <ele>1108</ele>
        <time>2025-07-12T14:13:32.735Z</time>
      </trkpt>
      <trkpt lat="46.02592" lon="5.61915">
        <ele>1108</ele>
        <time>2025-07-12T14:13:37.738Z</time>
      </trkpt>
      <trkpt lat="46.02594" lon="5.61907">
        <ele>1108</ele>
        <time>2025-07-12T14:13:42.490Z</time>
      </trkpt>
      <trkpt lat="46.02595" lon="5.61905">
        <ele>1108</ele>
        <time>2025-07-12T14:13:46.729Z</time>
      </trkpt>
      <trkpt lat="46.02598" lon="5.61898">
        <ele>1105</ele>
        <time>2025-07-12T14:13:51.038Z</time>
      </trkpt>
      <trkpt lat="46.02599" lon="5.61894">
        <ele>1105</ele>
        <time>2025-07-12T14:13:55.239Z</time>
      </trkpt>
      <trkpt lat="46.02602" lon="5.6189">
        <ele>1105</ele>
        <time>2025-07-12T14:13:59.740Z</time>
      </trkpt>
      <trkpt lat="46.02605" lon="5.61884">
        <ele>1105</ele>
        <time>2025-07-12T14:14:04.738Z</time>
      </trkpt>
      <trkpt lat="46.02606" lon="5.61878">
        <ele>1105</ele>
        <time>2025-07-12T14:14:09.724Z</time>
      </trkpt>
      <trkpt lat="46.02611" lon="5.6187">
        <ele>1100</ele>
        <time>2025-07-12T14:14:23.730Z</time>
      </trkpt>
      <trkpt lat="46.02611" lon="5.61868">
        <ele>1100</ele>
        <time>2025-07-12T14:14:28.729Z</time>
      </trkpt>
      <trkpt lat="46.02612" lon="5.61868">
        <ele>1100</ele>
        <time>2025-07-12T14:14:32.746Z</time>
      </trkpt>
      <trkpt lat="46.02613" lon="5.61866">
        <ele>1100</ele>
        <time>2025-07-12T14:14:37.275Z</time>
      </trkpt>
      <trkpt lat="46.02614" lon="5.61858">
        <ele>1100</ele>
        <time>2025-07-12T14:14:41.635Z</time>
      </trkpt>
      <trkpt lat="46.02616" lon="5.61852">
        <ele>1100</ele>
        <time>2025-07-12T14:14:45.746Z</time>
      </trkpt>
      <trkpt lat="46.02618" lon="5.61847">
        <ele>1094</ele>
        <time>2025-07-12T14:14:50.093Z</time>
      </trkpt>
      <trkpt lat="46.0262" lon="5.61847">
        <ele>1094</ele>
        <time>2025-07-12T14:14:54.110Z</time>
      </trkpt>
      <trkpt lat="46.02622" lon="5.61843">
        <ele>1094</ele>
        <time>2025-07-12T14:14:58.472Z</time>
      </trkpt>
      <trkpt lat="46.02622" lon="5.61837">
        <ele>1094</ele>
        <time>2025-07-12T14:15:02.738Z</time>
      </trkpt>
      <trkpt lat="46.02623" lon="5.6183">
        <ele>1094</ele>
        <time>2025-07-12T14:15:07.736Z</time>
      </trkpt>
      <trkpt lat="46.02625" lon="5.61825">
        <ele>1092</ele>
        <time>2025-07-12T14:15:11.743Z</time>
      </trkpt>
      <trkpt lat="46.02627" lon="5.61818">
        <ele>1086</ele>
        <time>2025-07-12T14:15:16.727Z</time>
      </trkpt>
      <trkpt lat="46.02629" lon="5.61813">
        <ele>1086</ele>
        <time>2025-07-12T14:15:21.440Z</time>
      </trkpt>
      <trkpt lat="46.02633" lon="5.61809">
        <ele>1086</ele>
        <time>2025-07-12T14:15:25.732Z</time>
      </trkpt>
      <trkpt lat="46.02639" lon="5.61806">
        <ele>1086</ele>
        <time>2025-07-12T14:15:30.734Z</time>
      </trkpt>
      <trkpt lat="46.02642" lon="5.61805">
        <ele>1086</ele>
        <time>2025-07-12T14:15:34.733Z</time>
      </trkpt>
      <trkpt lat="46.02646" lon="5.61802">
        <ele>1086</ele>
        <time>2025-07-12T14:15:39.061Z</time>
      </trkpt>
      <trkpt lat="46.02648" lon="5.61796">
        <ele>1086</ele>
        <time>2025-07-12T14:15:43.736Z</time>
      </trkpt>
      <trkpt lat="46.02654" lon="5.6179">
        <ele>1077</ele>
        <time>2025-07-12T14:15:48.262Z</time>
      </trkpt>
      <trkpt lat="46.02658" lon="5.61785">
        <ele>1077</ele>
        <time>2025-07-12T14:15:52.559Z</time>
      </trkpt>
      <trkpt lat="46.02661" lon="5.61784">
        <ele>1077</ele>
        <time>2025-07-12T14:15:56.738Z</time>
      </trkpt>
      <trkpt lat="46.02665" lon="5.61778">
        <ele>1077</ele>
        <time>2025-07-12T14:16:09.740Z</time>
      </trkpt>
      <trkpt lat="46.02666" lon="5.61778">
        <ele>1077</ele>
        <time>2025-07-12T14:16:14.747Z</time>
      </trkpt>
      <trkpt lat="46.02666" lon="5.61778">
        <ele>1077</ele>
        <time>2025-07-12T14:16:19.918Z</time>
      </trkpt>
      <trkpt lat="46.02668" lon="5.61779">
        <ele>1077</ele>
        <time>2025-07-12T14:16:24.517Z</time>
      </trkpt>
      <trkpt lat="46.02675" lon="5.61783">
        <ele>1077</ele>
        <time>2025-07-12T14:16:29.537Z</time>
      </trkpt>
      <trkpt lat="46.02681" lon="5.61783">
        <ele>1077</ele>
        <time>2025-07-12T14:16:34.455Z</time>
      </trkpt>
      <trkpt lat="46.02685" lon="5.61788">
        <ele>1077</ele>
        <time>2025-07-12T14:16:38.733Z</time>
      </trkpt>
      <trkpt lat="46.02687" lon="5.6179">
        <ele>1077</ele>
        <time>2025-07-12T14:16:42.728Z</time>
      </trkpt>
      <trkpt lat="46.0269" lon="5.61791">
        <ele>1077</ele>
        <time>2025-07-12T14:16:46.758Z</time>
      </trkpt>
      <trkpt lat="46.02691" lon="5.6179">
        <ele>1077</ele>
        <time>2025-07-12T14:16:51.615Z</time>
      </trkpt>
      <trkpt lat="46.02694" lon="5.61788">
        <ele>1077</ele>
        <time>2025-07-12T14:16:55.737Z</time>
      </trkpt>
      <trkpt lat="46.02701" lon="5.61786">
        <ele>1077</ele>
        <time>2025-07-12T14:16:59.733Z</time>
      </trkpt>
      <trkpt lat="46.02708" lon="5.61787">
        <ele>1078</ele>
        <time>2025-07-12T14:17:04.737Z</time>
      </trkpt>
      <trkpt lat="46.02718" lon="5.61789">
        <ele>1078</ele>
        <time>2025-07-12T14:18:04.738Z</time>
      </trkpt>
      <trkpt lat="46.02719" lon="5.6179">
        <ele>1078</ele>
        <time>2025-07-12T14:18:09.692Z</time>
      </trkpt>
      <trkpt lat="46.02718" lon="5.61791">
        <ele>1078</ele>
        <time>2025-07-12T14:18:14.682Z</time>
      </trkpt>
      <trkpt lat="46.02719" lon="5.61792">
        <ele>1078</ele>
        <time>2025-07-12T14:18:18.736Z</time>
      </trkpt>
      <trkpt lat="46.02726" lon="5.61794">
        <ele>1083</ele>
        <time>2025-07-12T14:18:23.295Z</time>
      </trkpt>
      <trkpt lat="46.0273" lon="5.61789">
        <ele>1078</ele>
        <time>2025-07-12T14:18:27.675Z</time>
      </trkpt>
      <trkpt lat="46.02733" lon="5.61782">
        <ele>1078</ele>
        <time>2025-07-12T14:18:31.746Z</time>
      </trkpt>
      <trkpt lat="46.02737" lon="5.61775">
        <ele>1076</ele>
        <time>2025-07-12T14:18:36.315Z</time>
      </trkpt>
      <trkpt lat="46.02741" lon="5.61772">
        <ele>1076</ele>
        <time>2025-07-12T14:18:40.738Z</time>
      </trkpt>
      <trkpt lat="46.02747" lon="5.61769">
        <ele>1076</ele>
        <time>2025-07-12T14:18:45.694Z</time>
      </trkpt>
      <trkpt lat="46.02753" lon="5.61766">
        <ele>1076</ele>
        <time>2025-07-12T14:18:49.735Z</time>
      </trkpt>
      <trkpt lat="46.02758" lon="5.61763">
        <ele>1072</ele>
        <time>2025-07-12T14:18:53.737Z</time>
      </trkpt>
      <trkpt lat="46.02764" lon="5.61762">
        <ele>1072</ele>
        <time>2025-07-12T14:18:58.353Z</time>
      </trkpt>
      <trkpt lat="46.0277" lon="5.61758">
        <ele>1071</ele>
        <time>2025-07-12T14:19:02.493Z</time>
      </trkpt>
      <trkpt lat="46.02775" lon="5.61752">
        <ele>1071</ele>
        <time>2025-07-12T14:19:06.633Z</time>
      </trkpt>
      <trkpt lat="46.0278" lon="5.61751">
        <ele>1071</ele>
        <time>2025-07-12T14:19:10.735Z</time>
      </trkpt>
      <trkpt lat="46.02783" lon="5.61745">
        <ele>1071</ele>
        <time>2025-07-12T14:19:14.735Z</time>
      </trkpt>
      <trkpt lat="46.02788" lon="5.61742">
        <ele>1071</ele>
        <time>2025-07-12T14:19:19.093Z</time>
      </trkpt>
      <trkpt lat="46.02792" lon="5.61741">
        <ele>1070</ele>
        <time>2025-07-12T14:19:23.735Z</time>
      </trkpt>
      <trkpt lat="46.02797" lon="5.61737">
        <ele>1070</ele>
        <time>2025-07-12T14:19:27.745Z</time>
      </trkpt>
      <trkpt lat="46.02799" lon="5.61733">
        <ele>1067</ele>
        <time>2025-07-12T14:19:32.253Z</time>
      </trkpt>
      <trkpt lat="46.02808" lon="5.61718">
        <ele>1067</ele>
        <time>2025-07-12T14:19:49.745Z</time>
      </trkpt>
      <trkpt lat="46.02809" lon="5.61715">
        <ele>1067</ele>
        <time>2025-07-12T14:19:54.512Z</time>
      </trkpt>
      <trkpt lat="46.02811" lon="5.61715">
        <ele>1067</ele>
        <time>2025-07-12T14:19:59.352Z</time>
      </trkpt>
      <trkpt lat="46.02811" lon="5.61714">
        <ele>1067</ele>
        <time>2025-07-12T14:20:03.721Z</time>
      </trkpt>
      <trkpt lat="46.02811" lon="5.61712">
        <ele>1067</ele>
        <time>2025-07-12T14:20:07.742Z</time>
      </trkpt>
      <trkpt lat="46.02812" lon="5.61701">
        <ele>1062</ele>
        <time>2025-07-12T14:20:11.851Z</time>
      </trkpt>
      <trkpt lat="46.02812" lon="5.61689">
        <ele>1062</ele>
        <time>2025-07-12T14:20:16.671Z</time>
      </trkpt>
      <trkpt lat="46.02811" lon="5.61682">
        <ele>1062</ele>
        <time>2025-07-12T14:20:20.735Z</time>
      </trkpt>
      <trkpt lat="46.02809" lon="5.61681">
        <ele>1062</ele>
        <time>2025-07-12T14:20:24.745Z</time>
      </trkpt>
      <trkpt lat="46.02808" lon="5.61679">
        <ele>1054</ele>
        <time>2025-07-12T14:20:49.747Z</time>
      </trkpt>
      <trkpt lat="46.02808" lon="5.61677">
        <ele>1054</ele>
        <time>2025-07-12T14:20:54.750Z</time>
      </trkpt>
      <trkpt lat="46.02806" lon="5.61674">
        <ele>1054</ele>
        <time>2025-07-12T14:20:59.339Z</time>
      </trkpt>
      <trkpt lat="46.02803" lon="5.6167">
        <ele>1054</ele>
        <time>2025-07-12T14:21:03.478Z</time>
      </trkpt>
      <trkpt lat="46.02801" lon="5.61667">
        <ele>1054</ele>
        <time>2025-07-12T14:21:07.578Z</time>
      </trkpt>
      <trkpt lat="46.02801" lon="5.61662">
        <ele>1054</ele>
        <time>2025-07-12T14:21:12.396Z</time>
      </trkpt>
      <trkpt lat="46.02799" lon="5.61658">
        <ele>1054</ele>
        <time>2025-07-12T14:21:16.436Z</time>
      </trkpt>
      <trkpt lat="46.02799" lon="5.61652">
        <ele>1045</ele>
        <time>2025-07-12T14:21:20.735Z</time>
      </trkpt>
      <trkpt lat="46.02799" lon="5.61648">
        <ele>1045</ele>
        <time>2025-07-12T14:21:25.711Z</time>
      </trkpt>
      <trkpt lat="46.02797" lon="5.61636">
        <ele>1045</ele>
        <time>2025-07-12T14:21:59.741Z</time>
      </trkpt>
      <trkpt lat="46.02797" lon="5.61635">
        <ele>1045</ele>
        <time>2025-07-12T14:22:05.677Z</time>
      </trkpt>
      <trkpt lat="46.02797" lon="5.61635">
        <ele>1045</ele>
        <time>2025-07-12T14:22:09.704Z</time>
      </trkpt>
      <trkpt lat="46.02795" lon="5.61633">
        <ele>1045</ele>
        <time>2025-07-12T14:22:13.690Z</time>
      </trkpt>
      <trkpt lat="46.0279" lon="5.61628">
        <ele>1047</ele>
        <time>2025-07-12T14:22:17.741Z</time>
      </trkpt>
      <trkpt lat="46.02787" lon="5.61622">
        <ele>1039</ele>
        <time>2025-07-12T14:22:22.750Z</time>
      </trkpt>
      <trkpt lat="46.02784" lon="5.61616">
        <ele>1039</ele>
        <time>2025-07-12T14:22:27.333Z</time>
      </trkpt>
      <trkpt lat="46.02782" lon="5.6161">
        <ele>1039</ele>
        <time>2025-07-12T14:22:31.729Z</time>
      </trkpt>
      <trkpt lat="46.0278" lon="5.61606">
        <ele>1039</ele>
        <time>2025-07-12T14:22:35.737Z</time>
      </trkpt>
      <trkpt lat="46.0278" lon="5.61602">
        <ele>1039</ele>
        <time>2025-07-12T14:23:01.278Z</time>
      </trkpt>
      <trkpt lat="46.0278" lon="5.61598">
        <ele>1039</ele>
        <time>2025-07-12T14:23:05.657Z</time>
      </trkpt>
      <trkpt lat="46.02773" lon="5.61593">
        <ele>1031</ele>
        <time>2025-07-12T14:23:09.732Z</time>
      </trkpt>
      <trkpt lat="46.02769" lon="5.61585">
        <ele>1031</ele>
        <time>2025-07-12T14:23:14.235Z</time>
      </trkpt>
      <trkpt lat="46.02768" lon="5.61576">
        <ele>1031</ele>
        <time>2025-07-12T14:23:18.747Z</time>
      </trkpt>
      <trkpt lat="46.02764" lon="5.61559">
        <ele>1028</ele>
        <time>2025-07-12T14:23:41.734Z</time>
      </trkpt>
      <trkpt lat="46.02764" lon="5.61558">
        <ele>1027</ele>
        <time>2025-07-12T14:23:46.532Z</time>
      </trkpt>
      <trkpt lat="46.02763" lon="5.61553">
        <ele>1028</ele>
        <time>2025-07-12T14:23:50.710Z</time>
      </trkpt>
      <trkpt lat="46.02762" lon="5.61553">
        <ele>1028</ele>
        <time>2025-07-12T14:23:54.731Z</time>
      </trkpt>
      <trkpt lat="46.02761" lon="5.6155">
        <ele>1028</ele>
        <time>2025-07-12T14:23:59.690Z</time>
      </trkpt>
      <trkpt lat="46.0276" lon="5.61548">
        <ele>1028</ele>
        <time>2025-07-12T14:24:03.733Z</time>
      </trkpt>
      <trkpt lat="46.02757" lon="5.61541">
        <ele>1023</ele>
        <time>2025-07-12T14:24:08.012Z</time>
      </trkpt>
      <trkpt lat="46.02757" lon="5.61533">
        <ele>1023</ele>
        <time>2025-07-12T14:24:12.472Z</time>
      </trkpt>
      <trkpt lat="46.02759" lon="5.61526">
        <ele>1023</ele>
        <time>2025-07-12T14:24:16.729Z</time>
      </trkpt>
      <trkpt lat="46.02763" lon="5.61516">
        <ele>1023</ele>
        <time>2025-07-12T14:24:20.733Z</time>
      </trkpt>
      <trkpt lat="46.02767" lon="5.61507">
        <ele>1017</ele>
        <time>2025-07-12T14:24:25.620Z</time>
      </trkpt>
      <trkpt lat="46.02769" lon="5.61501">
        <ele>1017</ele>
        <time>2025-07-12T14:24:29.739Z</time>
      </trkpt>
      <trkpt lat="46.02772" lon="5.61496">
        <ele>1017</ele>
        <time>2025-07-12T14:24:34.197Z</time>
      </trkpt>
      <trkpt lat="46.02782" lon="5.61496">
        <ele>1017</ele>
        <time>2025-07-12T14:25:16.254Z</time>
      </trkpt>
      <trkpt lat="46.02782" lon="5.61495">
        <ele>1017</ele>
        <time>2025-07-12T14:25:20.453Z</time>
      </trkpt>
      <trkpt lat="46.02786" lon="5.61494">
        <ele>1017</ele>
        <time>2025-07-12T14:25:24.740Z</time>
      </trkpt>
      <trkpt lat="46.02792" lon="5.6149">
        <ele>1015</ele>
        <time>2025-07-12T14:25:28.748Z</time>
      </trkpt>
      <trkpt lat="46.02798" lon="5.61485">
        <ele>1010</ele>
        <time>2025-07-12T14:25:33.332Z</time>
      </trkpt>
      <trkpt lat="46.02802" lon="5.61479">
        <ele>1010</ele>
        <time>2025-07-12T14:25:37.513Z</time>
      </trkpt>
      <trkpt lat="46.02807" lon="5.61474">
        <ele>1010</ele>
        <time>2025-07-12T14:25:41.734Z</time>
      </trkpt>
      <trkpt lat="46.02814" lon="5.6147">
        <ele>1010</ele>
        <time>2025-07-12T14:25:46.511Z</time>
      </trkpt>
      <trkpt lat="46.02819" lon="5.61466">
        <ele>1010</ele>
        <time>2025-07-12T14:25:50.691Z</time>
      </trkpt>
      <trkpt lat="46.02825" lon="5.61463">
        <ele>1008</ele>
        <time>2025-07-12T14:25:54.852Z</time>
      </trkpt>
      <trkpt lat="46.02831" lon="5.61459">
        <ele>1008</ele>
        <time>2025-07-12T14:25:59.743Z</time>
      </trkpt>
      <trkpt lat="46.02835" lon="5.61457">
        <ele>1005</ele>
        <time>2025-07-12T14:26:03.739Z</time>
      </trkpt>
      <trkpt lat="46.0284" lon="5.61454">
        <ele>1005</ele>
        <time>2025-07-12T14:26:08.591Z</time>
      </trkpt>
      <trkpt lat="46.02841" lon="5.61456">
        <ele>1005</ele>
        <time>2025-07-12T14:26:17.728Z</time>
      </trkpt>
      <trkpt lat="46.02841" lon="5.61456">
        <ele>1005</ele>
        <time>2025-07-12T14:26:22.352Z</time>
      </trkpt>
      <trkpt lat="46.02843" lon="5.61454">
        <ele>1005</ele>
        <time>2025-07-12T14:26:26.714Z</time>
      </trkpt>
      <trkpt lat="46.02849" lon="5.6145">
        <ele>1001</ele>
        <time>2025-07-12T14:26:30.743Z</time>
      </trkpt>
      <trkpt lat="46.02851" lon="5.6145">
        <ele>1001</ele>
        <time>2025-07-12T14:26:35.730Z</time>
      </trkpt>
      <trkpt lat="46.02854" lon="5.61446">
        <ele>1001</ele>
        <time>2025-07-12T14:26:39.940Z</time>
      </trkpt>
      <trkpt lat="46.02858" lon="5.61441">
        <ele>1001</ele>
        <time>2025-07-12T14:26:44.718Z</time>
      </trkpt>
      <trkpt lat="46.02859" lon="5.6144">
        <ele>1001</ele>
        <time>2025-07-12T14:26:48.743Z</time>
      </trkpt>
      <trkpt lat="46.02859" lon="5.61438">
        <ele>1001</ele>
        <time>2025-07-12T14:26:53.199Z</time>
      </trkpt>
      <trkpt lat="46.02861" lon="5.61435">
        <ele>1001</ele>
        <time>2025-07-12T14:26:57.656Z</time>
      </trkpt>
      <trkpt lat="46.02861" lon="5.61438">
        <ele>1001</ele>
        <time>2025-07-12T14:27:02.741Z</time>
      </trkpt>
      <trkpt lat="46.02862" lon="5.61436">
        <ele>1001</ele>
        <time>2025-07-12T14:27:07.731Z</time>
      </trkpt>
      <trkpt lat="46.02866" lon="5.61429">
        <ele>998</ele>
        <time>2025-07-12T14:27:12.475Z</time>
      </trkpt>
      <trkpt lat="46.02868" lon="5.6143">
        <ele>998</ele>
        <time>2025-07-12T14:27:16.535Z</time>
      </trkpt>
      <trkpt lat="46.02868" lon="5.61429">
        <ele>998</ele>
        <time>2025-07-12T14:27:21.736Z</time>
      </trkpt>
      <trkpt lat="46.02869" lon="5.61428">
        <ele>998</ele>
        <time>2025-07-12T14:27:26.275Z</time>
      </trkpt>
      <trkpt lat="46.02876" lon="5.61422">
        <ele>998</ele>
        <time>2025-07-12T14:27:30.575Z</time>
      </trkpt>
      <trkpt lat="46.0288" lon="5.61412">
        <ele>998</ele>
        <time>2025-07-12T14:27:34.733Z</time>
      </trkpt>
      <trkpt lat="46.02885" lon="5.61402">
        <ele>994</ele>
        <time>2025-07-12T14:27:39.232Z</time>
      </trkpt>
      <trkpt lat="46.0289" lon="5.61395">
        <ele>994</ele>
        <time>2025-07-12T14:27:43.595Z</time>
      </trkpt>
      <trkpt lat="46.02893" lon="5.6139">
        <ele>994</ele>
        <time>2025-07-12T14:27:47.738Z</time>
      </trkpt>
      <trkpt lat="46.02896" lon="5.61385">
        <ele>994</ele>
        <time>2025-07-12T14:27:51.743Z</time>
      </trkpt>
      <trkpt lat="46.02899" lon="5.61372">
        <ele>989</ele>
        <time>2025-07-12T14:28:13.338Z</time>
      </trkpt>
      <trkpt lat="46.02898" lon="5.61372">
        <ele>989</ele>
        <time>2025-07-12T14:28:17.732Z</time>
      </trkpt>
      <trkpt lat="46.02897" lon="5.61372">
        <ele>989</ele>
        <time>2025-07-12T14:28:22.578Z</time>
      </trkpt>
      <trkpt lat="46.02895" lon="5.61369">
        <ele>989</ele>
        <time>2025-07-12T14:28:26.734Z</time>
      </trkpt>
      <trkpt lat="46.02892" lon="5.6137">
        <ele>989</ele>
        <time>2025-07-12T14:28:31.638Z</time>
      </trkpt>
      <trkpt lat="46.02887" lon="5.6137">
        <ele>989</ele>
        <time>2025-07-12T14:29:50.991Z</time>
      </trkpt>
      <trkpt lat="46.02887" lon="5.6137">
        <ele>989</ele>
        <time>2025-07-12T14:29:55.152Z</time>
      </trkpt>
      <trkpt lat="46.02887" lon="5.6137">
        <ele>989</ele>
        <time>2025-07-12T14:30:00.241Z</time>
      </trkpt>
      <trkpt lat="46.02886" lon="5.6137">
        <ele>989</ele>
        <time>2025-07-12T14:30:04.746Z</time>
      </trkpt>
      <trkpt lat="46.02879" lon="5.61364">
        <ele>989</ele>
        <time>2025-07-12T14:30:09.740Z</time>
      </trkpt>
      <trkpt lat="46.02875" lon="5.61358">
        <ele>989</ele>
        <time>2025-07-12T14:30:14.613Z</time>
      </trkpt>
      <trkpt lat="46.0287" lon="5.61352">
        <ele>990</ele>
        <time>2025-07-12T14:30:18.960Z</time>
      </trkpt>
      <trkpt lat="46.02864" lon="5.61347">
        <ele>990</ele>
        <time>2025-07-12T14:30:23.075Z</time>
      </trkpt>
      <trkpt lat="46.0286" lon="5.61343">
        <ele>986</ele>
        <time>2025-07-12T14:30:27.095Z</time>
      </trkpt>
      <trkpt lat="46.02855" lon="5.61339">
        <ele>986</ele>
        <time>2025-07-12T14:30:31.234Z</time>
      </trkpt>
      <trkpt lat="46.02851" lon="5.61334">
        <ele>986</ele>
        <time>2025-07-12T14:30:35.514Z</time>
      </trkpt>
      <trkpt lat="46.02844" lon="5.61326">
        <ele>989</ele>
        <time>2025-07-12T14:30:40.214Z</time>
      </trkpt>
      <trkpt lat="46.02838" lon="5.61321">
        <ele>989</ele>
        <time>2025-07-12T14:30:44.477Z</time>
      </trkpt>
      <trkpt lat="46.02834" lon="5.61315">
        <ele>987</ele>
        <time>2025-07-12T14:30:48.574Z</time>
      </trkpt>
      <trkpt lat="46.02828" lon="5.61312">
        <ele>987</ele>
        <time>2025-07-12T14:30:52.746Z</time>
      </trkpt>
      <trkpt lat="46.02824" lon="5.61309">
        <ele>987</ele>
        <time>2025-07-12T14:30:57.333Z</time>
      </trkpt>
      <trkpt lat="46.02822" lon="5.61305">
        <ele>987</ele>
        <time>2025-07-12T14:31:01.573Z</time>
      </trkpt>
      <trkpt lat="46.02822" lon="5.61306">
        <ele>987</ele>
        <time>2025-07-12T14:32:05.339Z</time>
      </trkpt>
      <trkpt lat="46.02824" lon="5.61308">
        <ele>987</ele>
        <time>2025-07-12T14:32:09.725Z</time>
      </trkpt>
      <trkpt lat="46.02828" lon="5.61313">
        <ele>987</ele>
        <time>2025-07-12T14:32:13.747Z</time>
      </trkpt>
      <trkpt lat="46.02834" lon="5.61317">
        <ele>987</ele>
        <time>2025-07-12T14:32:18.729Z</time>
      </trkpt>
      <trkpt lat="46.02838" lon="5.61321">
        <ele>989</ele>
        <time>2025-07-12T14:32:23.676Z</time>
      </trkpt>
      <trkpt lat="46.02841" lon="5.61324">
        <ele>989</ele>
        <time>2025-07-12T14:32:27.734Z</time>
      </trkpt>
      <trkpt lat="46.02847" lon="5.61327">
        <ele>989</ele>
        <time>2025-07-12T14:32:31.915Z</time>
      </trkpt>
      <trkpt lat="46.02853" lon="5.6133">
        <ele>986</ele>
        <time>2025-07-12T14:32:36.634Z</time>
      </trkpt>
      <trkpt lat="46.02858" lon="5.61338">
        <ele>986</ele>
        <time>2025-07-12T14:32:41.375Z</time>
      </trkpt>
      <trkpt lat="46.02861" lon="5.61346">
        <ele>986</ele>
        <time>2025-07-12T14:32:45.393Z</time>
      </trkpt>
      <trkpt lat="46.02866" lon="5.61348">
        <ele>990</ele>
        <time>2025-07-12T14:32:49.572Z</time>
      </trkpt>
      <trkpt lat="46.0287" lon="5.61353">
        <ele>990</ele>
        <time>2025-07-12T14:32:53.744Z</time>
      </trkpt>
      <trkpt lat="46.02874" lon="5.61357">
        <ele>990</ele>
        <time>2025-07-12T14:32:58.372Z</time>
      </trkpt>
      <trkpt lat="46.02881" lon="5.61363">
        <ele>989</ele>
        <time>2025-07-12T14:33:02.874Z</time>
      </trkpt>
      <trkpt lat="46.02888" lon="5.61367">
        <ele>989</ele>
        <time>2025-07-12T14:33:07.414Z</time>
      </trkpt>
      <trkpt lat="46.02894" lon="5.61371">
        <ele>989</ele>
        <time>2025-07-12T14:33:11.745Z</time>
      </trkpt>
      <trkpt lat="46.02899" lon="5.61373">
        <ele>989</ele>
        <time>2025-07-12T14:33:16.051Z</time>
      </trkpt>
      <trkpt lat="46.02906" lon="5.61371">
        <ele>991</ele>
        <time>2025-07-12T14:33:20.732Z</time>
      </trkpt>
      <trkpt lat="46.0291" lon="5.61368">
        <ele>991</ele>
        <time>2025-07-12T14:33:24.742Z</time>
      </trkpt>
      <trkpt lat="46.02915" lon="5.61364">
        <ele>991</ele>
        <time>2025-07-12T14:33:28.910Z</time>
      </trkpt>
      <trkpt lat="46.02921" lon="5.61359">
        <ele>991</ele>
        <time>2025-07-12T14:33:33.489Z</time>
      </trkpt>
      <trkpt lat="46.02928" lon="5.61356">
        <ele>991</ele>
        <time>2025-07-12T14:33:37.559Z</time>
      </trkpt>
      <trkpt lat="46.02934" lon="5.61356">
        <ele>992</ele>
        <time>2025-07-12T14:33:41.677Z</time>
      </trkpt>
      <trkpt lat="46.0294" lon="5.61355">
        <ele>992</ele>
        <time>2025-07-12T14:33:45.738Z</time>
      </trkpt>
      <trkpt lat="46.02945" lon="5.61353">
        <ele>992</ele>
        <time>2025-07-12T14:33:49.862Z</time>
      </trkpt>
      <trkpt lat="46.02951" lon="5.6135">
        <ele>992</ele>
        <time>2025-07-12T14:33:54Z</time>
      </trkpt>
      <trkpt lat="46.02958" lon="5.61349">
        <ele>992</ele>
        <time>2025-07-12T14:33:58.737Z</time>
      </trkpt>
      <trkpt lat="46.02964" lon="5.61349">
        <ele>994</ele>
        <time>2025-07-12T14:34:02.938Z</time>
      </trkpt>
      <trkpt lat="46.02969" lon="5.61348">
        <ele>994</ele>
        <time>2025-07-12T14:34:07.216Z</time>
      </trkpt>
      <trkpt lat="46.02973" lon="5.61348">
        <ele>994</ele>
        <time>2025-07-12T14:34:11.337Z</time>
      </trkpt>
      <trkpt lat="46.02978" lon="5.61349">
        <ele>994</ele>
        <time>2025-07-12T14:34:15.716Z</time>
      </trkpt>
      <trkpt lat="46.02984" lon="5.61348">
        <ele>994</ele>
        <time>2025-07-12T14:34:19.876Z</time>
      </trkpt>
      <trkpt lat="46.02988" lon="5.61347">
        <ele>992</ele>
        <time>2025-07-12T14:34:23.917Z</time>
      </trkpt>
      <trkpt lat="46.02993" lon="5.61347">
        <ele>992</ele>
        <time>2025-07-12T14:34:28.057Z</time>
      </trkpt>
      <trkpt lat="46.03001" lon="5.61347">
        <ele>996</ele>
        <time>2025-07-12T14:34:32.497Z</time>
      </trkpt>
      <trkpt lat="46.0301" lon="5.6135">
        <ele>996</ele>
        <time>2025-07-12T14:34:37.476Z</time>
      </trkpt>
      <trkpt lat="46.03017" lon="5.61352">
        <ele>997</ele>
        <time>2025-07-12T14:34:41.573Z</time>
      </trkpt>
      <trkpt lat="46.03024" lon="5.61352">
        <ele>997</ele>
        <time>2025-07-12T14:34:45.739Z</time>
      </trkpt>
      <trkpt lat="46.03031" lon="5.61354">
        <ele>997</ele>
        <time>2025-07-12T14:34:50.739Z</time>
      </trkpt>
      <trkpt lat="46.03037" lon="5.61352">
        <ele>997</ele>
        <time>2025-07-12T14:34:55.093Z</time>
      </trkpt>
      <trkpt lat="46.03044" lon="5.61349">
        <ele>998</ele>
        <time>2025-07-12T14:34:59.592Z</time>
      </trkpt>
      <trkpt lat="46.03052" lon="5.61349">
        <ele>998</ele>
        <time>2025-07-12T14:35:03.933Z</time>
      </trkpt>
      <trkpt lat="46.0306" lon="5.61348">
        <ele>998</ele>
        <time>2025-07-12T14:35:08.272Z</time>
      </trkpt>
      <trkpt lat="46.03067" lon="5.61349">
        <ele>998</ele>
        <time>2025-07-12T14:35:12.591Z</time>
      </trkpt>
      <trkpt lat="46.03074" lon="5.61348">
        <ele>1001</ele>
        <time>2025-07-12T14:35:16.892Z</time>
      </trkpt>
      <trkpt lat="46.03081" lon="5.61346">
        <ele>999</ele>
        <time>2025-07-12T14:35:21.212Z</time>
      </trkpt>
      <trkpt lat="46.03086" lon="5.61344">
        <ele>999</ele>
        <time>2025-07-12T14:35:25.711Z</time>
      </trkpt>
      <trkpt lat="46.03091" lon="5.61342">
        <ele>999</ele>
        <time>2025-07-12T14:35:30.239Z</time>
      </trkpt>
      <trkpt lat="46.03099" lon="5.61343">
        <ele>1001</ele>
        <time>2025-07-12T14:35:34.724Z</time>
      </trkpt>
      <trkpt lat="46.03108" lon="5.61343">
        <ele>1001</ele>
        <time>2025-07-12T14:35:39.378Z</time>
      </trkpt>
      <trkpt lat="46.03114" lon="5.61343">
        <ele>1001</ele>
        <time>2025-07-12T14:35:43.438Z</time>
      </trkpt>
      <trkpt lat="46.03121" lon="5.61343">
        <ele>1001</ele>
        <time>2025-07-12T14:35:47.956Z</time>
      </trkpt>
      <trkpt lat="46.03128" lon="5.61342">
        <ele>1004</ele>
        <time>2025-07-12T14:35:52.435Z</time>
      </trkpt>
      <trkpt lat="46.03135" lon="5.61342">
        <ele>1004</ele>
        <time>2025-07-12T14:35:56.736Z</time>
      </trkpt>
      <trkpt lat="46.03142" lon="5.61343">
        <ele>1004</ele>
        <time>2025-07-12T14:36:01.194Z</time>
      </trkpt>
      <trkpt lat="46.03149" lon="5.61343">
        <ele>1004</ele>
        <time>2025-07-12T14:36:05.294Z</time>
      </trkpt>
      <trkpt lat="46.03155" lon="5.61342">
        <ele>1006</ele>
        <time>2025-07-12T14:36:09.748Z</time>
      </trkpt>
      <trkpt lat="46.0316" lon="5.61342">
        <ele>1006</ele>
        <time>2025-07-12T14:36:14.113Z</time>
      </trkpt>
      <trkpt lat="46.03165" lon="5.61339">
        <ele>1006</ele>
        <time>2025-07-12T14:36:18.734Z</time>
      </trkpt>
      <trkpt lat="46.03171" lon="5.6134">
        <ele>1006</ele>
        <time>2025-07-12T14:36:23.153Z</time>
      </trkpt>
      <trkpt lat="46.03176" lon="5.6134">
        <ele>1006</ele>
        <time>2025-07-12T14:36:27.710Z</time>
      </trkpt>
      <trkpt lat="46.03182" lon="5.6134">
        <ele>1005</ele>
        <time>2025-07-12T14:36:32.071Z</time>
      </trkpt>
      <trkpt lat="46.0319" lon="5.6134">
        <ele>1005</ele>
        <time>2025-07-12T14:36:36.732Z</time>
      </trkpt>
      <trkpt lat="46.03196" lon="5.6134">
        <ele>1005</ele>
        <time>2025-07-12T14:36:41.098Z</time>
      </trkpt>
      <trkpt lat="46.03202" lon="5.6134">
        <ele>1005</ele>
        <time>2025-07-12T14:36:45.476Z</time>
      </trkpt>
      <trkpt lat="46.03208" lon="5.61337">
        <ele>1005</ele>
        <time>2025-07-12T14:36:49.615Z</time>
      </trkpt>
      <trkpt lat="46.03214" lon="5.61338">
        <ele>1008</ele>
        <time>2025-07-12T14:36:54.436Z</time>
      </trkpt>
      <trkpt lat="46.03222" lon="5.61338">
        <ele>1008</ele>
        <time>2025-07-12T14:36:58.975Z</time>
      </trkpt>
      <trkpt lat="46.03231" lon="5.61338">
        <ele>1008</ele>
        <time>2025-07-12T14:37:03.737Z</time>
      </trkpt>
      <trkpt lat="46.03237" lon="5.61335">
        <ele>1011</ele>
        <time>2025-07-12T14:37:08.055Z</time>
      </trkpt>
      <trkpt lat="46.03242" lon="5.61331">
        <ele>1011</ele>
        <time>2025-07-12T14:37:12.195Z</time>
      </trkpt>
      <trkpt lat="46.03248" lon="5.61327">
        <ele>1011</ele>
        <time>2025-07-12T14:37:16.733Z</time>
      </trkpt>
      <trkpt lat="46.03253" lon="5.61323">
        <ele>1011</ele>
        <time>2025-07-12T14:37:21.575Z</time>
      </trkpt>
      <trkpt lat="46.03258" lon="5.6132">
        <ele>1011</ele>
        <time>2025-07-12T14:37:26.277Z</time>
      </trkpt>
      <trkpt lat="46.03265" lon="5.61316">
        <ele>1007</ele>
        <time>2025-07-12T14:37:30.635Z</time>
      </trkpt>
      <trkpt lat="46.03267" lon="5.61312">
        <ele>1007</ele>
        <time>2025-07-12T14:37:34.725Z</time>
      </trkpt>
      <trkpt lat="46.03274" lon="5.61311">
        <ele>1007</ele>
        <time>2025-07-12T14:37:39.055Z</time>
      </trkpt>
      <trkpt lat="46.0328" lon="5.61312">
        <ele>1007</ele>
        <time>2025-07-12T14:37:43.411Z</time>
      </trkpt>
      <trkpt lat="46.03286" lon="5.61314">
        <ele>1007</ele>
        <time>2025-07-12T14:37:47.734Z</time>
      </trkpt>
      <trkpt lat="46.03292" lon="5.61314">
        <ele>1010</ele>
        <time>2025-07-12T14:37:52.159Z</time>
      </trkpt>
      <trkpt lat="46.03299" lon="5.61315">
        <ele>1010</ele>
        <time>2025-07-12T14:37:56.238Z</time>
      </trkpt>
      <trkpt lat="46.03305" lon="5.61318">
        <ele>1010</ele>
        <time>2025-07-12T14:38:00.657Z</time>
      </trkpt>
      <trkpt lat="46.03311" lon="5.61321">
        <ele>1015</ele>
        <time>2025-07-12T14:38:04.738Z</time>
      </trkpt>
      <trkpt lat="46.03318" lon="5.6132">
        <ele>1015</ele>
        <time>2025-07-12T14:38:09.397Z</time>
      </trkpt>
      <trkpt lat="46.03325" lon="5.61319">
        <ele>1010</ele>
        <time>2025-07-12T14:38:13.729Z</time>
      </trkpt>
      <trkpt lat="46.03332" lon="5.61318">
        <ele>1010</ele>
        <time>2025-07-12T14:38:18.237Z</time>
      </trkpt>
      <trkpt lat="46.03338" lon="5.61317">
        <ele>1010</ele>
        <time>2025-07-12T14:38:22.557Z</time>
      </trkpt>
      <trkpt lat="46.03342" lon="5.61314">
        <ele>1010</ele>
        <time>2025-07-12T14:38:27.377Z</time>
      </trkpt>
      <trkpt lat="46.03342" lon="5.61315">
        <ele>1010</ele>
        <time>2025-07-12T14:38:31.741Z</time>
      </trkpt>
      <trkpt lat="46.03343" lon="5.61316">
        <ele>1010</ele>
        <time>2025-07-12T14:38:36.292Z</time>
      </trkpt>
      <trkpt lat="46.03343" lon="5.61317">
        <ele>1010</ele>
        <time>2025-07-12T14:38:41.739Z</time>
      </trkpt>
      <trkpt lat="46.03342" lon="5.61315">
        <ele>1010</ele>
        <time>2025-07-12T14:38:46.734Z</time>
      </trkpt>
      <trkpt lat="46.0334" lon="5.61309">
        <ele>1010</ele>
        <time>2025-07-12T14:38:51.734Z</time>
      </trkpt>
      <trkpt lat="46.03337" lon="5.61299">
        <ele>1010</ele>
        <time>2025-07-12T14:38:56.738Z</time>
      </trkpt>
      <trkpt lat="46.03333" lon="5.6129">
        <ele>1004</ele>
        <time>2025-07-12T14:39:01.728Z</time>
      </trkpt>
      <trkpt lat="46.03329" lon="5.61281">
        <ele>1004</ele>
        <time>2025-07-12T14:39:06.729Z</time>
      </trkpt>
      <trkpt lat="46.03326" lon="5.61274">
        <ele>1004</ele>
        <time>2025-07-12T14:39:11.733Z</time>
      </trkpt>
      <trkpt lat="46.03324" lon="5.6127">
        <ele>1004</ele>
        <time>2025-07-12T14:39:15.731Z</time>
      </trkpt>
      <trkpt lat="46.03322" lon="5.61265">
        <ele>1004</ele>
        <time>2025-07-12T14:39:19.739Z</time>
      </trkpt>
      <trkpt lat="46.03317" lon="5.61258">
        <ele>1001</ele>
        <time>2025-07-12T14:39:24.727Z</time>
      </trkpt>
      <trkpt lat="46.03314" lon="5.61252">
        <ele>1001</ele>
        <time>2025-07-12T14:39:28.739Z</time>
      </trkpt>
      <trkpt lat="46.0331" lon="5.61247">
        <ele>1001</ele>
        <time>2025-07-12T14:39:33.745Z</time>
      </trkpt>
      <trkpt lat="46.03304" lon="5.61242">
        <ele>1001</ele>
        <time>2025-07-12T14:39:53.737Z</time>
      </trkpt>
      <trkpt lat="46.03303" lon="5.61242">
        <ele>1001</ele>
        <time>2025-07-12T14:39:58.733Z</time>
      </trkpt>
      <trkpt lat="46.03303" lon="5.61242">
        <ele>1001</ele>
        <time>2025-07-12T14:40:03.737Z</time>
      </trkpt>
      <trkpt lat="46.033" lon="5.6124">
        <ele>1001</ele>
        <time>2025-07-12T14:40:08.732Z</time>
      </trkpt>
      <trkpt lat="46.03292" lon="5.61232">
        <ele>996</ele>
        <time>2025-07-12T14:40:12.734Z</time>
      </trkpt>
      <trkpt lat="46.03283" lon="5.6122">
        <ele>995</ele>
        <time>2025-07-12T14:40:16.738Z</time>
      </trkpt>
      <trkpt lat="46.03277" lon="5.61214">
        <ele>995</ele>
        <time>2025-07-12T14:40:21.739Z</time>
      </trkpt>
      <trkpt lat="46.03275" lon="5.61213">
        <ele>995</ele>
        <time>2025-07-12T14:40:26.722Z</time>
      </trkpt>
      <trkpt lat="46.03271" lon="5.61209">
        <ele>995</ele>
        <time>2025-07-12T14:40:30.741Z</time>
      </trkpt>
      <trkpt lat="46.03266" lon="5.61204">
        <ele>991</ele>
        <time>2025-07-12T14:40:35.738Z</time>
      </trkpt>
      <trkpt lat="46.03264" lon="5.61198">
        <ele>991</ele>
        <time>2025-07-12T14:40:40.742Z</time>
      </trkpt>
      <trkpt lat="46.03262" lon="5.61188">
        <ele>989</ele>
        <time>2025-07-12T14:40:45.741Z</time>
      </trkpt>
      <trkpt lat="46.03261" lon="5.61185">
        <ele>989</ele>
        <time>2025-07-12T14:40:49.747Z</time>
      </trkpt>
      <trkpt lat="46.03258" lon="5.61181">
        <ele>989</ele>
        <time>2025-07-12T14:40:54.730Z</time>
      </trkpt>
      <trkpt lat="46.03258" lon="5.61179">
        <ele>985</ele>
        <time>2025-07-12T14:40:58.733Z</time>
      </trkpt>
      <trkpt lat="46.03257" lon="5.61174">
        <ele>985</ele>
        <time>2025-07-12T14:41:02.735Z</time>
      </trkpt>
      <trkpt lat="46.03255" lon="5.61171">
        <ele>985</ele>
        <time>2025-07-12T14:41:06.742Z</time>
      </trkpt>
      <trkpt lat="46.03254" lon="5.61168">
        <ele>985</ele>
        <time>2025-07-12T14:41:10.741Z</time>
      </trkpt>
      <trkpt lat="46.03252" lon="5.61163">
        <ele>985</ele>
        <time>2025-07-12T14:41:15.733Z</time>
      </trkpt>
      <trkpt lat="46.03251" lon="5.6116">
        <ele>985</ele>
        <time>2025-07-12T14:41:19.737Z</time>
      </trkpt>
      <trkpt lat="46.03251" lon="5.6115">
        <ele>981</ele>
        <time>2025-07-12T14:41:24.730Z</time>
      </trkpt>
      <trkpt lat="46.03251" lon="5.61142">
        <ele>981</ele>
        <time>2025-07-12T14:41:29.741Z</time>
      </trkpt>
      <trkpt lat="46.0325" lon="5.61135">
        <ele>981</ele>
        <time>2025-07-12T14:41:33.739Z</time>
      </trkpt>
      <trkpt lat="46.0325" lon="5.61127">
        <ele>981</ele>
        <time>2025-07-12T14:41:38.275Z</time>
      </trkpt>
      <trkpt lat="46.03251" lon="5.6112">
        <ele>977</ele>
        <time>2025-07-12T14:41:42.494Z</time>
      </trkpt>
      <trkpt lat="46.03253" lon="5.61113">
        <ele>977</ele>
        <time>2025-07-12T14:41:46.513Z</time>
      </trkpt>
      <trkpt lat="46.03258" lon="5.61096">
        <ele>973</ele>
        <time>2025-07-12T14:42:03.733Z</time>
      </trkpt>
      <trkpt lat="46.03258" lon="5.61095">
        <ele>973</ele>
        <time>2025-07-12T14:42:08.301Z</time>
      </trkpt>
      <trkpt lat="46.0326" lon="5.61088">
        <ele>973</ele>
        <time>2025-07-12T14:42:12.735Z</time>
      </trkpt>
      <trkpt lat="46.03263" lon="5.61081">
        <ele>973</ele>
        <time>2025-07-12T14:42:17.598Z</time>
      </trkpt>
      <trkpt lat="46.03268" lon="5.61077">
        <ele>971</ele>
        <time>2025-07-12T14:42:22.155Z</time>
      </trkpt>
      <trkpt lat="46.0327" lon="5.61074">
        <ele>971</ele>
        <time>2025-07-12T14:42:26.435Z</time>
      </trkpt>
      <trkpt lat="46.03271" lon="5.6107">
        <ele>971</ele>
        <time>2025-07-12T14:42:30.743Z</time>
      </trkpt>
      <trkpt lat="46.03273" lon="5.61069">
        <ele>966</ele>
        <time>2025-07-12T14:42:35.437Z</time>
      </trkpt>
      <trkpt lat="46.03272" lon="5.61066">
        <ele>966</ele>
        <time>2025-07-12T14:42:40.236Z</time>
      </trkpt>
      <trkpt lat="46.03276" lon="5.61055">
        <ele>966</ele>
        <time>2025-07-12T14:42:44.739Z</time>
      </trkpt>
      <trkpt lat="46.03281" lon="5.6105">
        <ele>966</ele>
        <time>2025-07-12T14:42:48.741Z</time>
      </trkpt>
      <trkpt lat="46.03286" lon="5.61049">
        <ele>966</ele>
        <time>2025-07-12T14:42:53.294Z</time>
      </trkpt>
      <trkpt lat="46.0329" lon="5.61046">
        <ele>966</ele>
        <time>2025-07-12T14:42:57.536Z</time>
      </trkpt>
      <trkpt lat="46.03292" lon="5.61045">
        <ele>963</ele>
        <time>2025-07-12T14:43:01.739Z</time>
      </trkpt>
      <trkpt lat="46.03296" lon="5.6104">
        <ele>959</ele>
        <time>2025-07-12T14:43:06.733Z</time>
      </trkpt>
      <trkpt lat="46.03298" lon="5.61035">
        <ele>959</ele>
        <time>2025-07-12T14:43:11.235Z</time>
      </trkpt>
      <trkpt lat="46.03303" lon="5.61031">
        <ele>959</ele>
        <time>2025-07-12T14:43:15.718Z</time>
      </trkpt>
      <trkpt lat="46.03303" lon="5.61029">
        <ele>959</ele>
        <time>2025-07-12T14:43:19.737Z</time>
      </trkpt>
      <trkpt lat="46.03306" lon="5.61041">
        <ele>959</ele>
        <time>2025-07-12T14:45:14.736Z</time>
      </trkpt>
      <trkpt lat="46.03307" lon="5.61041">
        <ele>959</ele>
        <time>2025-07-12T14:45:19.730Z</time>
      </trkpt>
      <trkpt lat="46.03308" lon="5.61041">
        <ele>959</ele>
        <time>2025-07-12T14:45:24.238Z</time>
      </trkpt>
      <trkpt lat="46.03309" lon="5.61041">
        <ele>959</ele>
        <time>2025-07-12T14:45:28.279Z</time>
      </trkpt>
      <trkpt lat="46.03314" lon="5.61043">
        <ele>963</ele>
        <time>2025-07-12T14:45:32.734Z</time>
      </trkpt>
      <trkpt lat="46.03323" lon="5.61056">
        <ele>961</ele>
        <time>2025-07-12T14:47:10.718Z</time>
      </trkpt>
      <trkpt lat="46.03323" lon="5.61056">
        <ele>961</ele>
        <time>2025-07-12T14:47:15.726Z</time>
      </trkpt>
      <trkpt lat="46.03325" lon="5.61057">
        <ele>961</ele>
        <time>2025-07-12T14:47:19.742Z</time>
      </trkpt>
      <trkpt lat="46.03327" lon="5.61057">
        <ele>961</ele>
        <time>2025-07-12T14:47:24.732Z</time>
      </trkpt>
      <trkpt lat="46.03333" lon="5.61062">
        <ele>961</ele>
        <time>2025-07-12T14:47:29.733Z</time>
      </trkpt>
      <trkpt lat="46.03336" lon="5.61065">
        <ele>961</ele>
        <time>2025-07-12T14:47:33.736Z</time>
      </trkpt>
      <trkpt lat="46.03341" lon="5.61073">
        <ele>965</ele>
        <time>2025-07-12T14:47:38.732Z</time>
      </trkpt>
      <trkpt lat="46.03347" lon="5.6108">
        <ele>965</ele>
        <time>2025-07-12T14:47:43.743Z</time>
      </trkpt>
      <trkpt lat="46.03354" lon="5.61082">
        <ele>966</ele>
        <time>2025-07-12T14:47:48.746Z</time>
      </trkpt>
      <trkpt lat="46.03359" lon="5.61083">
        <ele>966</ele>
        <time>2025-07-12T14:47:53.727Z</time>
      </trkpt>
      <trkpt lat="46.03363" lon="5.61088">
        <ele>966</ele>
        <time>2025-07-12T14:47:57.745Z</time>
      </trkpt>
      <trkpt lat="46.03372" lon="5.61093">
        <ele>966</ele>
        <time>2025-07-12T14:48:02.721Z</time>
      </trkpt>
      <trkpt lat="46.0338" lon="5.61093">
        <ele>967</ele>
        <time>2025-07-12T14:48:06.735Z</time>
      </trkpt>
      <trkpt lat="46.03388" lon="5.61095">
        <ele>967</ele>
        <time>2025-07-12T14:48:11.746Z</time>
      </trkpt>
      <trkpt lat="46.03398" lon="5.61098">
        <ele>971</ele>
        <time>2025-07-12T14:48:16.733Z</time>
      </trkpt>
      <trkpt lat="46.03404" lon="5.61105">
        <ele>969</ele>
        <time>2025-07-12T14:48:20.737Z</time>
      </trkpt>
      <trkpt lat="46.03409" lon="5.6111">
        <ele>969</ele>
        <time>2025-07-12T14:48:25.673Z</time>
      </trkpt>
      <trkpt lat="46.03416" lon="5.61116">
        <ele>969</ele>
        <time>2025-07-12T14:48:30.725Z</time>
      </trkpt>
      <trkpt lat="46.03421" lon="5.61119">
        <ele>969</ele>
        <time>2025-07-12T14:48:35.151Z</time>
      </trkpt>
      <trkpt lat="46.03428" lon="5.61119">
        <ele>969</ele>
        <time>2025-07-12T14:48:39.728Z</time>
      </trkpt>
      <trkpt lat="46.03435" lon="5.61117">
        <ele>967</ele>
        <time>2025-07-12T14:48:44.726Z</time>
      </trkpt>
      <trkpt lat="46.03441" lon="5.61117">
        <ele>967</ele>
        <time>2025-07-12T14:48:48.751Z</time>
      </trkpt>
      <trkpt lat="46.03447" lon="5.61118">
        <ele>967</ele>
        <time>2025-07-12T14:48:53.729Z</time>
      </trkpt>
      <trkpt lat="46.03448" lon="5.61118">
        <ele>967</ele>
        <time>2025-07-12T14:48:57.738Z</time>
      </trkpt>
      <trkpt lat="46.03453" lon="5.6112">
        <ele>967</ele>
        <time>2025-07-12T14:49:01.917Z</time>
      </trkpt>
      <trkpt lat="46.0346" lon="5.61126">
        <ele>972</ele>
        <time>2025-07-12T14:49:06.478Z</time>
      </trkpt>
      <trkpt lat="46.03467" lon="5.61132">
        <ele>972</ele>
        <time>2025-07-12T14:49:10.730Z</time>
      </trkpt>
      <trkpt lat="46.03473" lon="5.61135">
        <ele>972</ele>
        <time>2025-07-12T14:49:14.732Z</time>
      </trkpt>
      <trkpt lat="46.03479" lon="5.61138">
        <ele>972</ele>
        <time>2025-07-12T14:49:19.297Z</time>
      </trkpt>
      <trkpt lat="46.03485" lon="5.61141">
        <ele>972</ele>
        <time>2025-07-12T14:49:23.617Z</time>
      </trkpt>
      <trkpt lat="46.03492" lon="5.61143">
        <ele>972</ele>
        <time>2025-07-12T14:49:27.655Z</time>
      </trkpt>
      <trkpt lat="46.03497" lon="5.61142">
        <ele>972</ele>
        <time>2025-07-12T14:49:31.734Z</time>
      </trkpt>
      <trkpt lat="46.035" lon="5.61138">
        <ele>972</ele>
        <time>2025-07-12T14:49:36.452Z</time>
      </trkpt>
      <trkpt lat="46.03509" lon="5.61141">
        <ele>972</ele>
        <time>2025-07-12T14:49:41.051Z</time>
      </trkpt>
      <trkpt lat="46.03514" lon="5.61137">
        <ele>971</ele>
        <time>2025-07-12T14:49:45.578Z</time>
      </trkpt>
      <trkpt lat="46.03516" lon="5.61136">
        <ele>971</ele>
        <time>2025-07-12T14:49:49.699Z</time>
      </trkpt>
      <trkpt lat="46.03523" lon="5.61135">
        <ele>971</ele>
        <time>2025-07-12T14:49:54.033Z</time>
      </trkpt>
      <trkpt lat="46.03528" lon="5.61134">
        <ele>971</ele>
        <time>2025-07-12T14:49:58.728Z</time>
      </trkpt>
      <trkpt lat="46.03534" lon="5.61134">
        <ele>971</ele>
        <time>2025-07-12T14:50:03.333Z</time>
      </trkpt>
      <trkpt lat="46.03541" lon="5.61135">
        <ele>971</ele>
        <time>2025-07-12T14:50:07.875Z</time>
      </trkpt>
      <trkpt lat="46.03547" lon="5.61138">
        <ele>972</ele>
        <time>2025-07-12T14:50:12.355Z</time>
      </trkpt>
      <trkpt lat="46.03553" lon="5.6114">
        <ele>972</ele>
        <time>2025-07-12T14:50:16.454Z</time>
      </trkpt>
      <trkpt lat="46.03558" lon="5.61144">
        <ele>972</ele>
        <time>2025-07-12T14:50:20.972Z</time>
      </trkpt>
      <trkpt lat="46.03563" lon="5.61147">
        <ele>972</ele>
        <time>2025-07-12T14:50:25.394Z</time>
      </trkpt>
      <trkpt lat="46.03569" lon="5.61145">
        <ele>972</ele>
        <time>2025-07-12T14:50:29.453Z</time>
      </trkpt>
      <trkpt lat="46.03575" lon="5.61146">
        <ele>970</ele>
        <time>2025-07-12T14:50:33.476Z</time>
      </trkpt>
      <trkpt lat="46.03582" lon="5.61145">
        <ele>970</ele>
        <time>2025-07-12T14:50:37.735Z</time>
      </trkpt>
      <trkpt lat="46.03589" lon="5.61143">
        <ele>970</ele>
        <time>2025-07-12T14:50:42.493Z</time>
      </trkpt>
      <trkpt lat="46.03594" lon="5.61139">
        <ele>970</ele>
        <time>2025-07-12T14:50:46.739Z</time>
      </trkpt>
      <trkpt lat="46.03602" lon="5.61135">
        <ele>970</ele>
        <time>2025-07-12T14:50:51.738Z</time>
      </trkpt>
      <trkpt lat="46.03606" lon="5.61133">
        <ele>970</ele>
        <time>2025-07-12T14:50:55.734Z</time>
      </trkpt>
      <trkpt lat="46.0361" lon="5.6113">
        <ele>970</ele>
        <time>2025-07-12T14:50:59.746Z</time>
      </trkpt>
      <trkpt lat="46.03615" lon="5.61128">
        <ele>970</ele>
        <time>2025-07-12T14:51:04.733Z</time>
      </trkpt>
      <trkpt lat="46.0362" lon="5.61128">
        <ele>970</ele>
        <time>2025-07-12T14:51:09.730Z</time>
      </trkpt>
      <trkpt lat="46.03626" lon="5.61129">
        <ele>970</ele>
        <time>2025-07-12T14:51:14.230Z</time>
      </trkpt>
      <trkpt lat="46.03632" lon="5.61131">
        <ele>970</ele>
        <time>2025-07-12T14:51:18.731Z</time>
      </trkpt>
      <trkpt lat="46.0364" lon="5.61132">
        <ele>970</ele>
        <time>2025-07-12T14:51:22.831Z</time>
      </trkpt>
      <trkpt lat="46.03648" lon="5.61136">
        <ele>970</ele>
        <time>2025-07-12T14:51:27.730Z</time>
      </trkpt>
      <trkpt lat="46.03653" lon="5.61138">
        <ele>968</ele>
        <time>2025-07-12T14:51:31.738Z</time>
      </trkpt>
      <trkpt lat="46.03661" lon="5.61139">
        <ele>968</ele>
        <time>2025-07-12T14:51:36.119Z</time>
      </trkpt>
      <trkpt lat="46.03668" lon="5.6114">
        <ele>968</ele>
        <time>2025-07-12T14:51:40.539Z</time>
      </trkpt>
      <trkpt lat="46.03673" lon="5.61141">
        <ele>968</ele>
        <time>2025-07-12T14:51:44.699Z</time>
      </trkpt>
      <trkpt lat="46.03679" lon="5.61142">
        <ele>968</ele>
        <time>2025-07-12T14:51:49.080Z</time>
      </trkpt>
      <trkpt lat="46.03685" lon="5.61142">
        <ele>966</ele>
        <time>2025-07-12T14:51:53.461Z</time>
      </trkpt>
      <trkpt lat="46.03691" lon="5.61145">
        <ele>966</ele>
        <time>2025-07-12T14:51:57.641Z</time>
      </trkpt>
      <trkpt lat="46.03695" lon="5.61144">
        <ele>966</ele>
        <time>2025-07-12T14:52:02.279Z</time>
      </trkpt>
      <trkpt lat="46.03702" lon="5.61145">
        <ele>966</ele>
        <time>2025-07-12T14:52:06.735Z</time>
      </trkpt>
      <trkpt lat="46.0371" lon="5.61143">
        <ele>968</ele>
        <time>2025-07-12T14:52:11.679Z</time>
      </trkpt>
      <trkpt lat="46.03715" lon="5.61143">
        <ele>968</ele>
        <time>2025-07-12T14:52:15.698Z</time>
      </trkpt>
      <trkpt lat="46.03721" lon="5.61145">
        <ele>968</ele>
        <time>2025-07-12T14:52:19.736Z</time>
      </trkpt>
      <trkpt lat="46.03728" lon="5.61145">
        <ele>968</ele>
        <time>2025-07-12T14:52:24.558Z</time>
      </trkpt>
      <trkpt lat="46.03737" lon="5.61144">
        <ele>965</ele>
        <time>2025-07-12T14:52:28.728Z</time>
      </trkpt>
      <trkpt lat="46.03746" lon="5.61148">
        <ele>965</ele>
        <time>2025-07-12T14:52:32.999Z</time>
      </trkpt>
      <trkpt lat="46.03751" lon="5.61153">
        <ele>965</ele>
        <time>2025-07-12T14:52:37.217Z</time>
      </trkpt>
      <trkpt lat="46.03757" lon="5.61155">
        <ele>973</ele>
        <time>2025-07-12T14:52:41.729Z</time>
      </trkpt>
      <trkpt lat="46.03764" lon="5.61153">
        <ele>963</ele>
        <time>2025-07-12T14:52:45.736Z</time>
      </trkpt>
      <trkpt lat="46.0377" lon="5.6115">
        <ele>963</ele>
        <time>2025-07-12T14:52:49.918Z</time>
      </trkpt>
      <trkpt lat="46.03777" lon="5.61145">
        <ele>963</ele>
        <time>2025-07-12T14:52:54.137Z</time>
      </trkpt>
      <trkpt lat="46.03784" lon="5.61143">
        <ele>963</ele>
        <time>2025-07-12T14:52:58.458Z</time>
      </trkpt>
      <trkpt lat="46.03791" lon="5.61144">
        <ele>963</ele>
        <time>2025-07-12T14:53:02.739Z</time>
      </trkpt>
      <trkpt lat="46.03795" lon="5.61148">
        <ele>961</ele>
        <time>2025-07-12T14:53:07.516Z</time>
      </trkpt>
      <trkpt lat="46.03799" lon="5.61151">
        <ele>961</ele>
        <time>2025-07-12T14:53:11.737Z</time>
      </trkpt>
      <trkpt lat="46.03803" lon="5.61153">
        <ele>965</ele>
        <time>2025-07-12T14:53:15.956Z</time>
      </trkpt>
      <trkpt lat="46.03808" lon="5.61155">
        <ele>965</ele>
        <time>2025-07-12T14:53:20.135Z</time>
      </trkpt>
      <trkpt lat="46.03814" lon="5.61158">
        <ele>965</ele>
        <time>2025-07-12T14:53:24.416Z</time>
      </trkpt>
      <trkpt lat="46.0382" lon="5.6116">
        <ele>962</ele>
        <time>2025-07-12T14:53:28.557Z</time>
      </trkpt>
      <trkpt lat="46.03825" lon="5.6116">
        <ele>962</ele>
        <time>2025-07-12T14:53:32.735Z</time>
      </trkpt>
      <trkpt lat="46.03826" lon="5.61159">
        <ele>962</ele>
        <time>2025-07-12T14:53:37.256Z</time>
      </trkpt>
      <trkpt lat="46.03834" lon="5.61156">
        <ele>962</ele>
        <time>2025-07-12T14:53:41.723Z</time>
      </trkpt>
      <trkpt lat="46.03837" lon="5.61156">
        <ele>962</ele>
        <time>2025-07-12T14:53:50.741Z</time>
      </trkpt>
      <trkpt lat="46.03838" lon="5.61156">
        <ele>962</ele>
        <time>2025-07-12T14:53:55.495Z</time>
      </trkpt>
      <trkpt lat="46.03839" lon="5.61155">
        <ele>962</ele>
        <time>2025-07-12T14:53:59.594Z</time>
      </trkpt>
      <trkpt lat="46.03843" lon="5.61151">
        <ele>957</ele>
        <time>2025-07-12T14:54:04.393Z</time>
      </trkpt>
      <trkpt lat="46.03849" lon="5.61149">
        <ele>956</ele>
        <time>2025-07-12T14:54:08.640Z</time>
      </trkpt>
      <trkpt lat="46.03852" lon="5.61148">
        <ele>956</ele>
        <time>2025-07-12T14:54:12.739Z</time>
      </trkpt>
      <trkpt lat="46.03856" lon="5.61145">
        <ele>956</ele>
        <time>2025-07-12T14:54:16.741Z</time>
      </trkpt>
      <trkpt lat="46.03861" lon="5.61143">
        <ele>956</ele>
        <time>2025-07-12T14:54:21.540Z</time>
      </trkpt>
      <trkpt lat="46.03864" lon="5.61142">
        <ele>956</ele>
        <time>2025-07-12T14:54:25.733Z</time>
      </trkpt>
      <trkpt lat="46.03868" lon="5.61144">
        <ele>956</ele>
        <time>2025-07-12T14:54:29.739Z</time>
      </trkpt>
      <trkpt lat="46.03874" lon="5.61147">
        <ele>956</ele>
        <time>2025-07-12T14:54:34.675Z</time>
      </trkpt>
      <trkpt lat="46.0388" lon="5.61146">
        <ele>956</ele>
        <time>2025-07-12T14:54:39.336Z</time>
      </trkpt>
      <trkpt lat="46.03885" lon="5.61149">
        <ele>956</ele>
        <time>2025-07-12T14:54:43.836Z</time>
      </trkpt>
      <trkpt lat="46.03889" lon="5.61152">
        <ele>956</ele>
        <time>2025-07-12T14:54:48.738Z</time>
      </trkpt>
      <trkpt lat="46.03894" lon="5.61154">
        <ele>959</ele>
        <time>2025-07-12T14:54:53.216Z</time>
      </trkpt>
      <trkpt lat="46.03898" lon="5.61154">
        <ele>959</ele>
        <time>2025-07-12T14:54:57.376Z</time>
      </trkpt>
      <trkpt lat="46.03903" lon="5.61152">
        <ele>953</ele>
        <time>2025-07-12T14:55:01.728Z</time>
      </trkpt>
      <trkpt lat="46.03908" lon="5.61149">
        <ele>953</ele>
        <time>2025-07-12T14:55:06.192Z</time>
      </trkpt>
      <trkpt lat="46.03914" lon="5.61146">
        <ele>953</ele>
        <time>2025-07-12T14:55:10.352Z</time>
      </trkpt>
      <trkpt lat="46.0392" lon="5.61143">
        <ele>953</ele>
        <time>2025-07-12T14:55:14.603Z</time>
      </trkpt>
      <trkpt lat="46.03926" lon="5.6114">
        <ele>953</ele>
        <time>2025-07-12T14:55:18.731Z</time>
      </trkpt>
      <trkpt lat="46.03933" lon="5.61138">
        <ele>951</ele>
        <time>2025-07-12T14:55:23.061Z</time>
      </trkpt>
      <trkpt lat="46.03939" lon="5.61134">
        <ele>951</ele>
        <time>2025-07-12T14:55:27.280Z</time>
      </trkpt>
      <trkpt lat="46.03945" lon="5.61133">
        <ele>951</ele>
        <time>2025-07-12T14:55:31.596Z</time>
      </trkpt>
      <trkpt lat="46.0395" lon="5.61133">
        <ele>951</ele>
        <time>2025-07-12T14:55:35.716Z</time>
      </trkpt>
      <trkpt lat="46.03955" lon="5.61135">
        <ele>951</ele>
        <time>2025-07-12T14:55:39.836Z</time>
      </trkpt>
      <trkpt lat="46.03961" lon="5.61136">
        <ele>949</ele>
        <time>2025-07-12T14:55:44.036Z</time>
      </trkpt>
      <trkpt lat="46.03967" lon="5.61137">
        <ele>949</ele>
        <time>2025-07-12T14:55:48.216Z</time>
      </trkpt>
      <trkpt lat="46.03973" lon="5.61137">
        <ele>949</ele>
        <time>2025-07-12T14:55:52.375Z</time>
      </trkpt>
      <trkpt lat="46.03981" lon="5.61136">
        <ele>949</ele>
        <time>2025-07-12T14:55:56.555Z</time>
      </trkpt>
      <trkpt lat="46.03988" lon="5.61137">
        <ele>946</ele>
        <time>2025-07-12T14:56:00.655Z</time>
      </trkpt>
      <trkpt lat="46.03993" lon="5.6114">
        <ele>946</ele>
        <time>2025-07-12T14:56:04.729Z</time>
      </trkpt>
      <trkpt lat="46.04" lon="5.61144">
        <ele>946</ele>
        <time>2025-07-12T14:56:09.726Z</time>
      </trkpt>
      <trkpt lat="46.04006" lon="5.61147">
        <ele>946</ele>
        <time>2025-07-12T14:56:14.633Z</time>
      </trkpt>
      <trkpt lat="46.04012" lon="5.61146">
        <ele>946</ele>
        <time>2025-07-12T14:56:18.739Z</time>
      </trkpt>
      <trkpt lat="46.04019" lon="5.61146">
        <ele>942</ele>
        <time>2025-07-12T14:56:23.531Z</time>
      </trkpt>
      <trkpt lat="46.04028" lon="5.6115">
        <ele>942</ele>
        <time>2025-07-12T14:56:27.739Z</time>
      </trkpt>
      <trkpt lat="46.04034" lon="5.61152">
        <ele>942</ele>
        <time>2025-07-12T14:56:32.719Z</time>
      </trkpt>
      <trkpt lat="46.04035" lon="5.61151">
        <ele>942</ele>
        <time>2025-07-12T14:56:36.736Z</time>
      </trkpt>
      <trkpt lat="46.04036" lon="5.61151">
        <ele>942</ele>
        <time>2025-07-12T14:56:41.371Z</time>
      </trkpt>
      <trkpt lat="46.04042" lon="5.61154">
        <ele>943</ele>
        <time>2025-07-12T14:56:45.718Z</time>
      </trkpt>
      <trkpt lat="46.04047" lon="5.61155">
        <ele>943</ele>
        <time>2025-07-12T14:56:49.735Z</time>
      </trkpt>
      <trkpt lat="46.0405" lon="5.61157">
        <ele>943</ele>
        <time>2025-07-12T14:56:54.728Z</time>
      </trkpt>
      <trkpt lat="46.04056" lon="5.61159">
        <ele>943</ele>
        <time>2025-07-12T14:56:59.740Z</time>
      </trkpt>
      <trkpt lat="46.04061" lon="5.6116">
        <ele>943</ele>
        <time>2025-07-12T14:57:04.740Z</time>
      </trkpt>
      <trkpt lat="46.04066" lon="5.61161">
        <ele>943</ele>
        <time>2025-07-12T14:57:08.734Z</time>
      </trkpt>
      <trkpt lat="46.04071" lon="5.61163">
        <ele>939</ele>
        <time>2025-07-12T14:57:13.728Z</time>
      </trkpt>
      <trkpt lat="46.04075" lon="5.61165">
        <ele>939</ele>
        <time>2025-07-12T14:57:18.718Z</time>
      </trkpt>
      <trkpt lat="46.04076" lon="5.61166">
        <ele>939</ele>
        <time>2025-07-12T14:57:25.728Z</time>
      </trkpt>
      <trkpt lat="46.04077" lon="5.61166">
        <ele>939</ele>
        <time>2025-07-12T14:57:30.731Z</time>
      </trkpt>
      <trkpt lat="46.0408" lon="5.61166">
        <ele>939</ele>
        <time>2025-07-12T14:57:35.731Z</time>
      </trkpt>
      <trkpt lat="46.04086" lon="5.61168">
        <ele>939</ele>
        <time>2025-07-12T14:57:40.735Z</time>
      </trkpt>
      <trkpt lat="46.0409" lon="5.61168">
        <ele>939</ele>
        <time>2025-07-12T14:57:45.733Z</time>
      </trkpt>
      <trkpt lat="46.04092" lon="5.61169">
        <ele>939</ele>
        <time>2025-07-12T14:57:49.735Z</time>
      </trkpt>
      <trkpt lat="46.04094" lon="5.61168">
        <ele>939</ele>
        <time>2025-07-12T14:57:53.741Z</time>
      </trkpt>
      <trkpt lat="46.04096" lon="5.61169">
        <ele>939</ele>
        <time>2025-07-12T14:57:58.736Z</time>
      </trkpt>
      <trkpt lat="46.04097" lon="5.61168">
        <ele>939</ele>
        <time>2025-07-12T14:58:03.737Z</time>
      </trkpt>
      <trkpt lat="46.04102" lon="5.61165">
        <ele>932</ele>
        <time>2025-07-12T14:58:08.739Z</time>
      </trkpt>
      <trkpt lat="46.04105" lon="5.61164">
        <ele>932</ele>
        <time>2025-07-12T14:58:12.735Z</time>
      </trkpt>
      <trkpt lat="46.04109" lon="5.61164">
        <ele>932</ele>
        <time>2025-07-12T14:58:17.744Z</time>
      </trkpt>
      <trkpt lat="46.04116" lon="5.61167">
        <ele>932</ele>
        <time>2025-07-12T14:58:22.729Z</time>
      </trkpt>
      <trkpt lat="46.04122" lon="5.61165">
        <ele>932</ele>
        <time>2025-07-12T14:58:27.729Z</time>
      </trkpt>
      <trkpt lat="46.04128" lon="5.61165">
        <ele>929</ele>
        <time>2025-07-12T14:58:32.715Z</time>
      </trkpt>
      <trkpt lat="46.04133" lon="5.61163">
        <ele>929</ele>
        <time>2025-07-12T14:58:36.738Z</time>
      </trkpt>
      <trkpt lat="46.04137" lon="5.61163">
        <ele>929</ele>
        <time>2025-07-12T14:58:40.740Z</time>
      </trkpt>
      <trkpt lat="46.0414" lon="5.61164">
        <ele>929</ele>
        <time>2025-07-12T14:58:45.736Z</time>
      </trkpt>
      <trkpt lat="46.04142" lon="5.61164">
        <ele>929</ele>
        <time>2025-07-12T14:58:49.737Z</time>
      </trkpt>
      <trkpt lat="46.04149" lon="5.61161">
        <ele>929</ele>
        <time>2025-07-12T14:58:53.736Z</time>
      </trkpt>
      <trkpt lat="46.04156" lon="5.61161">
        <ele>926</ele>
        <time>2025-07-12T14:58:58.735Z</time>
      </trkpt>
      <trkpt lat="46.04162" lon="5.61164">
        <ele>926</ele>
        <time>2025-07-12T14:59:03.732Z</time>
      </trkpt>
      <trkpt lat="46.04169" lon="5.61167">
        <ele>926</ele>
        <time>2025-07-12T14:59:08.733Z</time>
      </trkpt>
      <trkpt lat="46.04175" lon="5.61168">
        <ele>926</ele>
        <time>2025-07-12T14:59:12.742Z</time>
      </trkpt>
      <trkpt lat="46.04181" lon="5.61167">
        <ele>923</ele>
        <time>2025-07-12T14:59:16.733Z</time>
      </trkpt>
      <trkpt lat="46.04188" lon="5.61162">
        <ele>923</ele>
        <time>2025-07-12T14:59:21.737Z</time>
      </trkpt>
      <trkpt lat="46.04195" lon="5.6116">
        <ele>923</ele>
        <time>2025-07-12T14:59:26.750Z</time>
      </trkpt>
      <trkpt lat="46.04205" lon="5.61162">
        <ele>923</ele>
        <time>2025-07-12T14:59:31.724Z</time>
      </trkpt>
      <trkpt lat="46.04212" lon="5.61161">
        <ele>919</ele>
        <time>2025-07-12T14:59:35.733Z</time>
      </trkpt>
      <trkpt lat="46.04217" lon="5.6116">
        <ele>919</ele>
        <time>2025-07-12T14:59:39.730Z</time>
      </trkpt>
      <trkpt lat="46.04222" lon="5.61161">
        <ele>919</ele>
        <time>2025-07-12T14:59:44.726Z</time>
      </trkpt>
      <trkpt lat="46.04228" lon="5.61161">
        <ele>919</ele>
        <time>2025-07-12T14:59:48.750Z</time>
      </trkpt>
      <trkpt lat="46.04232" lon="5.61162">
        <ele>919</ele>
        <time>2025-07-12T14:59:53.714Z</time>
      </trkpt>
      <trkpt lat="46.04233" lon="5.61162">
        <ele>919</ele>
        <time>2025-07-12T14:59:58.738Z</time>
      </trkpt>
      <trkpt lat="46.04234" lon="5.61161">
        <ele>919</ele>
        <time>2025-07-12T15:00:03.729Z</time>
      </trkpt>
      <trkpt lat="46.04236" lon="5.61161">
        <ele>919</ele>
        <time>2025-07-12T15:00:07.733Z</time>
      </trkpt>
      <trkpt lat="46.04245" lon="5.6116">
        <ele>917</ele>
        <time>2025-07-12T15:00:12.732Z</time>
      </trkpt>
      <trkpt lat="46.04253" lon="5.61158">
        <ele>917</ele>
        <time>2025-07-12T15:00:17.724Z</time>
      </trkpt>
      <trkpt lat="46.04261" lon="5.61159">
        <ele>917</ele>
        <time>2025-07-12T15:00:22.730Z</time>
      </trkpt>
      <trkpt lat="46.04266" lon="5.61157">
        <ele>915</ele>
        <time>2025-07-12T15:00:27.722Z</time>
      </trkpt>
      <trkpt lat="46.04271" lon="5.61153">
        <ele>915</ele>
        <time>2025-07-12T15:00:31.715Z</time>
      </trkpt>
      <trkpt lat="46.04278" lon="5.61152">
        <ele>909</ele>
        <time>2025-07-12T15:00:36.733Z</time>
      </trkpt>
      <trkpt lat="46.04284" lon="5.61152">
        <ele>909</ele>
        <time>2025-07-12T15:00:41.737Z</time>
      </trkpt>
      <trkpt lat="46.04289" lon="5.6115">
        <ele>909</ele>
        <time>2025-07-12T15:00:46.742Z</time>
      </trkpt>
      <trkpt lat="46.04295" lon="5.6115">
        <ele>907</ele>
        <time>2025-07-12T15:00:51.732Z</time>
      </trkpt>
      <trkpt lat="46.043" lon="5.6115">
        <ele>907</ele>
        <time>2025-07-12T15:00:55.733Z</time>
      </trkpt>
      <trkpt lat="46.04306" lon="5.6115">
        <ele>907</ele>
        <time>2025-07-12T15:01:00.739Z</time>
      </trkpt>
      <trkpt lat="46.0431" lon="5.61152">
        <ele>907</ele>
        <time>2025-07-12T15:01:05.732Z</time>
      </trkpt>
      <trkpt lat="46.04316" lon="5.61151">
        <ele>907</ele>
        <time>2025-07-12T15:01:10.732Z</time>
      </trkpt>
      <trkpt lat="46.04322" lon="5.6115">
        <ele>903</ele>
        <time>2025-07-12T15:01:15.736Z</time>
      </trkpt>
      <trkpt lat="46.0433" lon="5.61148">
        <ele>903</ele>
        <time>2025-07-12T15:01:20.719Z</time>
      </trkpt>
      <trkpt lat="46.04333" lon="5.61148">
        <ele>903</ele>
        <time>2025-07-12T15:01:24.731Z</time>
      </trkpt>
      <trkpt lat="46.04337" lon="5.61149">
        <ele>903</ele>
        <time>2025-07-12T15:01:29.732Z</time>
      </trkpt>
      <trkpt lat="46.04344" lon="5.6115">
        <ele>903</ele>
        <time>2025-07-12T15:01:34.736Z</time>
      </trkpt>
      <trkpt lat="46.04352" lon="5.6115">
        <ele>900</ele>
        <time>2025-07-12T15:01:39.737Z</time>
      </trkpt>
      <trkpt lat="46.04358" lon="5.6115">
        <ele>900</ele>
        <time>2025-07-12T15:01:43.741Z</time>
      </trkpt>
      <trkpt lat="46.04364" lon="5.6115">
        <ele>900</ele>
        <time>2025-07-12T15:01:48.739Z</time>
      </trkpt>
      <trkpt lat="46.04372" lon="5.61148">
        <ele>900</ele>
        <time>2025-07-12T15:01:53.731Z</time>
      </trkpt>
      <trkpt lat="46.04375" lon="5.61146">
        <ele>897</ele>
        <time>2025-07-12T15:01:57.741Z</time>
      </trkpt>
      <trkpt lat="46.0438" lon="5.61144">
        <ele>897</ele>
        <time>2025-07-12T15:02:02.737Z</time>
      </trkpt>
      <trkpt lat="46.04385" lon="5.61141">
        <ele>897</ele>
        <time>2025-07-12T15:02:06.730Z</time>
      </trkpt>
      <trkpt lat="46.0439" lon="5.6114">
        <ele>897</ele>
        <time>2025-07-12T15:02:10.739Z</time>
      </trkpt>
      <trkpt lat="46.04394" lon="5.61137">
        <ele>897</ele>
        <time>2025-07-12T15:02:15.729Z</time>
      </trkpt>
      <trkpt lat="46.04399" lon="5.61132">
        <ele>897</ele>
        <time>2025-07-12T15:02:19.737Z</time>
      </trkpt>
      <trkpt lat="46.04403" lon="5.61127">
        <ele>896</ele>
        <time>2025-07-12T15:02:24.735Z</time>
      </trkpt>
      <trkpt lat="46.04407" lon="5.61124">
        <ele>890</ele>
        <time>2025-07-12T15:02:29.725Z</time>
      </trkpt>
      <trkpt lat="46.04408" lon="5.61124">
        <ele>890</ele>
        <time>2025-07-12T15:02:34.735Z</time>
      </trkpt>
      <trkpt lat="46.0441" lon="5.61123">
        <ele>890</ele>
        <time>2025-07-12T15:02:39.095Z</time>
      </trkpt>
      <trkpt lat="46.04417" lon="5.61117">
        <ele>890</ele>
        <time>2025-07-12T15:02:43.337Z</time>
      </trkpt>
      <trkpt lat="46.04424" lon="5.61114">
        <ele>890</ele>
        <time>2025-07-12T15:02:47.437Z</time>
      </trkpt>
      <trkpt lat="46.0443" lon="5.6111">
        <ele>890</ele>
        <time>2025-07-12T15:02:51.537Z</time>
      </trkpt>
      <trkpt lat="46.04438" lon="5.61108">
        <ele>889</ele>
        <time>2025-07-12T15:02:56.498Z</time>
      </trkpt>
      <trkpt lat="46.04444" lon="5.61105">
        <ele>889</ele>
        <time>2025-07-12T15:03:00.894Z</time>
      </trkpt>
      <trkpt lat="46.04449" lon="5.61103">
        <ele>889</ele>
        <time>2025-07-12T15:03:05.154Z</time>
      </trkpt>
      <trkpt lat="46.04454" lon="5.61099">
        <ele>889</ele>
        <time>2025-07-12T15:03:09.334Z</time>
      </trkpt>
      <trkpt lat="46.0446" lon="5.61095">
        <ele>885</ele>
        <time>2025-07-12T15:03:13.773Z</time>
      </trkpt>
      <trkpt lat="46.04463" lon="5.6109">
        <ele>885</ele>
        <time>2025-07-12T15:03:18.232Z</time>
      </trkpt>
      <trkpt lat="46.04465" lon="5.61084">
        <ele>885</ele>
        <time>2025-07-12T15:03:22.294Z</time>
      </trkpt>
      <trkpt lat="46.04466" lon="5.61076">
        <ele>885</ele>
        <time>2025-07-12T15:03:26.393Z</time>
      </trkpt>
      <trkpt lat="46.04467" lon="5.61068">
        <ele>884</ele>
        <time>2025-07-12T15:03:30.734Z</time>
      </trkpt>
      <trkpt lat="46.04469" lon="5.6106">
        <ele>884</ele>
        <time>2025-07-12T15:03:34.736Z</time>
      </trkpt>
      <trkpt lat="46.04471" lon="5.6105">
        <ele>884</ele>
        <time>2025-07-12T15:03:39.199Z</time>
      </trkpt>
      <trkpt lat="46.0447" lon="5.61038">
        <ele>884</ele>
        <time>2025-07-12T15:03:43.717Z</time>
      </trkpt>
      <trkpt lat="46.04475" lon="5.6103">
        <ele>884</ele>
        <time>2025-07-12T15:03:47.858Z</time>
      </trkpt>
      <trkpt lat="46.04478" lon="5.61024">
        <ele>884</ele>
        <time>2025-07-12T15:03:51.999Z</time>
      </trkpt>
      <trkpt lat="46.04483" lon="5.61015">
        <ele>884</ele>
        <time>2025-07-12T15:03:56.499Z</time>
      </trkpt>
      <trkpt lat="46.04486" lon="5.61004">
        <ele>884</ele>
        <time>2025-07-12T15:04:00.899Z</time>
      </trkpt>
      <trkpt lat="46.0449" lon="5.60994">
        <ele>884</ele>
        <time>2025-07-12T15:04:04.999Z</time>
      </trkpt>
      <trkpt lat="46.04495" lon="5.60988">
        <ele>884</ele>
        <time>2025-07-12T15:04:09.437Z</time>
      </trkpt>
      <trkpt lat="46.04501" lon="5.60988">
        <ele>884</ele>
        <time>2025-07-12T15:04:13.657Z</time>
      </trkpt>
      <trkpt lat="46.04507" lon="5.60989">
        <ele>884</ele>
        <time>2025-07-12T15:04:18.317Z</time>
      </trkpt>
      <trkpt lat="46.04512" lon="5.60995">
        <ele>884</ele>
        <time>2025-07-12T15:04:22.396Z</time>
      </trkpt>
      <trkpt lat="46.04518" lon="5.61001">
        <ele>885</ele>
        <time>2025-07-12T15:04:26.580Z</time>
      </trkpt>
      <trkpt lat="46.04524" lon="5.61008">
        <ele>885</ele>
        <time>2025-07-12T15:04:30.722Z</time>
      </trkpt>
      <trkpt lat="46.04529" lon="5.61014">
        <ele>890</ele>
        <time>2025-07-12T15:04:34.716Z</time>
      </trkpt>
      <trkpt lat="46.04536" lon="5.61017">
        <ele>890</ele>
        <time>2025-07-12T15:04:38.721Z</time>
      </trkpt>
      <trkpt lat="46.04543" lon="5.61019">
        <ele>890</ele>
        <time>2025-07-12T15:04:43.316Z</time>
      </trkpt>
      <trkpt lat="46.0455" lon="5.61023">
        <ele>890</ele>
        <time>2025-07-12T15:04:47.736Z</time>
      </trkpt>
      <trkpt lat="46.04556" lon="5.6103">
        <ele>890</ele>
        <time>2025-07-12T15:04:52.735Z</time>
      </trkpt>
      <trkpt lat="46.0456" lon="5.61033">
        <ele>890</ele>
        <time>2025-07-12T15:04:56.730Z</time>
      </trkpt>
      <trkpt lat="46.04567" lon="5.61037">
        <ele>890</ele>
        <time>2025-07-12T15:05:01.732Z</time>
      </trkpt>
      <trkpt lat="46.04574" lon="5.61042">
        <ele>894</ele>
        <time>2025-07-12T15:05:06.729Z</time>
      </trkpt>
      <trkpt lat="46.04579" lon="5.61045">
        <ele>894</ele>
        <time>2025-07-12T15:05:11.370Z</time>
      </trkpt>
      <trkpt lat="46.04586" lon="5.6105">
        <ele>894</ele>
        <time>2025-07-12T15:05:15.732Z</time>
      </trkpt>
      <trkpt lat="46.04593" lon="5.61056">
        <ele>894</ele>
        <time>2025-07-12T15:05:20.212Z</time>
      </trkpt>
      <trkpt lat="46.046" lon="5.6106">
        <ele>895</ele>
        <time>2025-07-12T15:05:24.735Z</time>
      </trkpt>
      <trkpt lat="46.04604" lon="5.61065">
        <ele>895</ele>
        <time>2025-07-12T15:05:28.731Z</time>
      </trkpt>
      <trkpt lat="46.04607" lon="5.61067">
        <ele>895</ele>
        <time>2025-07-12T15:05:33.220Z</time>
      </trkpt>
      <trkpt lat="46.0461" lon="5.61072">
        <ele>898</ele>
        <time>2025-07-12T15:05:37.400Z</time>
      </trkpt>
      <trkpt lat="46.04613" lon="5.61079">
        <ele>898</ele>
        <time>2025-07-12T15:05:41.679Z</time>
      </trkpt>
      <trkpt lat="46.04617" lon="5.61085">
        <ele>898</ele>
        <time>2025-07-12T15:05:45.733Z</time>
      </trkpt>
      <trkpt lat="46.04622" lon="5.61088">
        <ele>898</ele>
        <time>2025-07-12T15:05:50.299Z</time>
      </trkpt>
      <trkpt lat="46.04626" lon="5.61091">
        <ele>895</ele>
        <time>2025-07-12T15:05:54.377Z</time>
      </trkpt>
      <trkpt lat="46.04629" lon="5.61098">
        <ele>898</ele>
        <time>2025-07-12T15:05:58.747Z</time>
      </trkpt>
      <trkpt lat="46.04635" lon="5.61105">
        <ele>898</ele>
        <time>2025-07-12T15:06:03.729Z</time>
      </trkpt>
      <trkpt lat="46.04641" lon="5.61113">
        <ele>898</ele>
        <time>2025-07-12T15:06:08.728Z</time>
      </trkpt>
      <trkpt lat="46.04646" lon="5.61117">
        <ele>898</ele>
        <time>2025-07-12T15:06:12.954Z</time>
      </trkpt>
      <trkpt lat="46.04653" lon="5.61123">
        <ele>893</ele>
        <time>2025-07-12T15:06:17.613Z</time>
      </trkpt>
      <trkpt lat="46.04661" lon="5.61126">
        <ele>897</ele>
        <time>2025-07-12T15:06:21.731Z</time>
      </trkpt>
      <trkpt lat="46.04667" lon="5.6113">
        <ele>897</ele>
        <time>2025-07-12T15:06:25.792Z</time>
      </trkpt>
      <trkpt lat="46.04673" lon="5.61134">
        <ele>897</ele>
        <time>2025-07-12T15:06:30.316Z</time>
      </trkpt>
      <trkpt lat="46.04679" lon="5.61134">
        <ele>897</ele>
        <time>2025-07-12T15:06:38.731Z</time>
      </trkpt>
      <trkpt lat="46.04681" lon="5.61134">
        <ele>895</ele>
        <time>2025-07-12T15:06:42.732Z</time>
      </trkpt>
      <trkpt lat="46.04683" lon="5.61134">
        <ele>895</ele>
        <time>2025-07-12T15:06:47.722Z</time>
      </trkpt>
      <trkpt lat="46.04684" lon="5.61134">
        <ele>895</ele>
        <time>2025-07-12T15:06:51.732Z</time>
      </trkpt>
      <trkpt lat="46.0469" lon="5.6114">
        <ele>895</ele>
        <time>2025-07-12T15:06:56.733Z</time>
      </trkpt>
      <trkpt lat="46.04695" lon="5.61144">
        <ele>895</ele>
        <time>2025-07-12T15:07:01.669Z</time>
      </trkpt>
      <trkpt lat="46.04698" lon="5.61147">
        <ele>895</ele>
        <time>2025-07-12T15:07:06.289Z</time>
      </trkpt>
      <trkpt lat="46.047" lon="5.6115">
        <ele>895</ele>
        <time>2025-07-12T15:07:10.734Z</time>
      </trkpt>
      <trkpt lat="46.04707" lon="5.61156">
        <ele>898</ele>
        <time>2025-07-12T15:07:15.459Z</time>
      </trkpt>
      <trkpt lat="46.04712" lon="5.61159">
        <ele>897</ele>
        <time>2025-07-12T15:07:19.737Z</time>
      </trkpt>
      <trkpt lat="46.04717" lon="5.61162">
        <ele>897</ele>
        <time>2025-07-12T15:07:23.730Z</time>
      </trkpt>
      <trkpt lat="46.04722" lon="5.61163">
        <ele>897</ele>
        <time>2025-07-12T15:07:28.597Z</time>
      </trkpt>
      <trkpt lat="46.04727" lon="5.61164">
        <ele>897</ele>
        <time>2025-07-12T15:07:32.677Z</time>
      </trkpt>
      <trkpt lat="46.04733" lon="5.61166">
        <ele>897</ele>
        <time>2025-07-12T15:07:36.729Z</time>
      </trkpt>
      <trkpt lat="46.04738" lon="5.61164">
        <ele>894</ele>
        <time>2025-07-12T15:07:41.738Z</time>
      </trkpt>
      <trkpt lat="46.04743" lon="5.6116">
        <ele>894</ele>
        <time>2025-07-12T15:07:46.057Z</time>
      </trkpt>
      <trkpt lat="46.04748" lon="5.61155">
        <ele>894</ele>
        <time>2025-07-12T15:07:50.400Z</time>
      </trkpt>
      <trkpt lat="46.04758" lon="5.61149">
        <ele>892</ele>
        <time>2025-07-12T15:07:59.754Z</time>
      </trkpt>
      <trkpt lat="46.04761" lon="5.61149">
        <ele>892</ele>
        <time>2025-07-12T15:08:05.720Z</time>
      </trkpt>
      <trkpt lat="46.04762" lon="5.61149">
        <ele>892</ele>
        <time>2025-07-12T15:08:10.234Z</time>
      </trkpt>
      <trkpt lat="46.04763" lon="5.61151">
        <ele>892</ele>
        <time>2025-07-12T15:08:14.413Z</time>
      </trkpt>
      <trkpt lat="46.04766" lon="5.61159">
        <ele>894</ele>
        <time>2025-07-12T15:08:18.834Z</time>
      </trkpt>
      <trkpt lat="46.04771" lon="5.61166">
        <ele>894</ele>
        <time>2025-07-12T15:08:23.473Z</time>
      </trkpt>
      <trkpt lat="46.04772" lon="5.61167">
        <ele>894</ele>
        <time>2025-07-12T15:08:28.233Z</time>
      </trkpt>
      <trkpt lat="46.04775" lon="5.61169">
        <ele>894</ele>
        <time>2025-07-12T15:08:32.729Z</time>
      </trkpt>
      <trkpt lat="46.0478" lon="5.61172">
        <ele>894</ele>
        <time>2025-07-12T15:08:37.724Z</time>
      </trkpt>
      <trkpt lat="46.04785" lon="5.61171">
        <ele>894</ele>
        <time>2025-07-12T15:08:41.852Z</time>
      </trkpt>
      <trkpt lat="46.04792" lon="5.61169">
        <ele>898</ele>
        <time>2025-07-12T15:08:46.725Z</time>
      </trkpt>
      <trkpt lat="46.04798" lon="5.6117">
        <ele>898</ele>
        <time>2025-07-12T15:08:51.571Z</time>
      </trkpt>
      <trkpt lat="46.04801" lon="5.61167">
        <ele>898</ele>
        <time>2025-07-12T15:08:56.723Z</time>
      </trkpt>
      <trkpt lat="46.04807" lon="5.61167">
        <ele>898</ele>
        <time>2025-07-12T15:09:01.232Z</time>
      </trkpt>
      <trkpt lat="46.04812" lon="5.61165">
        <ele>898</ele>
        <time>2025-07-12T15:09:05.735Z</time>
      </trkpt>
      <trkpt lat="46.04814" lon="5.61164">
        <ele>898</ele>
        <time>2025-07-12T15:09:10.727Z</time>
      </trkpt>
      <trkpt lat="46.04815" lon="5.61163">
        <ele>898</ele>
        <time>2025-07-12T15:09:15.730Z</time>
      </trkpt>
      <trkpt lat="46.04816" lon="5.61162">
        <ele>898</ele>
        <time>2025-07-12T15:09:20.714Z</time>
      </trkpt>
      <trkpt lat="46.04818" lon="5.61166">
        <ele>898</ele>
        <time>2025-07-12T15:10:23.741Z</time>
      </trkpt>
      <trkpt lat="46.04811" lon="5.61169">
        <ele>898</ele>
        <time>2025-07-12T15:10:28.114Z</time>
      </trkpt>
      <trkpt lat="46.04803" lon="5.61169">
        <ele>898</ele>
        <time>2025-07-12T15:10:32.717Z</time>
      </trkpt>
      <trkpt lat="46.04795" lon="5.61171">
        <ele>898</ele>
        <time>2025-07-12T15:10:37.135Z</time>
      </trkpt>
      <trkpt lat="46.04787" lon="5.61174">
        <ele>894</ele>
        <time>2025-07-12T15:10:41.471Z</time>
      </trkpt>
      <trkpt lat="46.04778" lon="5.61178">
        <ele>894</ele>
        <time>2025-07-12T15:10:55.433Z</time>
      </trkpt>
      <trkpt lat="46.04776" lon="5.61176">
        <ele>894</ele>
        <time>2025-07-12T15:10:59.715Z</time>
      </trkpt>
      <trkpt lat="46.0477" lon="5.61171">
        <ele>894</ele>
        <time>2025-07-12T15:11:03.735Z</time>
      </trkpt>
      <trkpt lat="46.04766" lon="5.61164">
        <ele>894</ele>
        <time>2025-07-12T15:11:07.724Z</time>
      </trkpt>
      <trkpt lat="46.04763" lon="5.61161">
        <ele>894</ele>
        <time>2025-07-12T15:11:12.190Z</time>
      </trkpt>
      <trkpt lat="46.04756" lon="5.61159">
        <ele>894</ele>
        <time>2025-07-12T15:11:16.419Z</time>
      </trkpt>
      <trkpt lat="46.04749" lon="5.6116">
        <ele>894</ele>
        <time>2025-07-12T15:11:20.577Z</time>
      </trkpt>
      <trkpt lat="46.04745" lon="5.61164">
        <ele>894</ele>
        <time>2025-07-12T15:11:24.737Z</time>
      </trkpt>
      <trkpt lat="46.04739" lon="5.61169">
        <ele>894</ele>
        <time>2025-07-12T15:11:28.956Z</time>
      </trkpt>
      <trkpt lat="46.04735" lon="5.6117">
        <ele>897</ele>
        <time>2025-07-12T15:11:33.013Z</time>
      </trkpt>
      <trkpt lat="46.04729" lon="5.61171">
        <ele>897</ele>
        <time>2025-07-12T15:11:37.393Z</time>
      </trkpt>
      <trkpt lat="46.04724" lon="5.61167">
        <ele>897</ele>
        <time>2025-07-12T15:11:41.727Z</time>
      </trkpt>
      <trkpt lat="46.04718" lon="5.61166">
        <ele>897</ele>
        <time>2025-07-12T15:11:46.094Z</time>
      </trkpt>
      <trkpt lat="46.04711" lon="5.61164">
        <ele>897</ele>
        <time>2025-07-12T15:11:50.233Z</time>
      </trkpt>
      <trkpt lat="46.04706" lon="5.6116">
        <ele>898</ele>
        <time>2025-07-12T15:11:54.613Z</time>
      </trkpt>
      <trkpt lat="46.047" lon="5.61156">
        <ele>898</ele>
        <time>2025-07-12T15:11:59.414Z</time>
      </trkpt>
      <trkpt lat="46.04694" lon="5.61151">
        <ele>895</ele>
        <time>2025-07-12T15:12:03.873Z</time>
      </trkpt>
      <trkpt lat="46.04691" lon="5.61145">
        <ele>895</ele>
        <time>2025-07-12T15:12:08.214Z</time>
      </trkpt>
      <trkpt lat="46.04685" lon="5.61142">
        <ele>895</ele>
        <time>2025-07-12T15:12:12.414Z</time>
      </trkpt>
      <trkpt lat="46.0468" lon="5.61139">
        <ele>897</ele>
        <time>2025-07-12T15:12:16.613Z</time>
      </trkpt>
      <trkpt lat="46.04674" lon="5.61138">
        <ele>897</ele>
        <time>2025-07-12T15:12:21.132Z</time>
      </trkpt>
      <trkpt lat="46.04668" lon="5.61135">
        <ele>897</ele>
        <time>2025-07-12T15:12:25.634Z</time>
      </trkpt>
      <trkpt lat="46.04663" lon="5.61134">
        <ele>897</ele>
        <time>2025-07-12T15:12:29.731Z</time>
      </trkpt>
      <trkpt lat="46.04658" lon="5.61128">
        <ele>897</ele>
        <time>2025-07-12T15:12:34.743Z</time>
      </trkpt>
      <trkpt lat="46.04653" lon="5.61125">
        <ele>898</ele>
        <time>2025-07-12T15:12:39.220Z</time>
      </trkpt>
      <trkpt lat="46.04648" lon="5.61118">
        <ele>898</ele>
        <time>2025-07-12T15:12:43.720Z</time>
      </trkpt>
      <trkpt lat="46.04643" lon="5.61112">
        <ele>898</ele>
        <time>2025-07-12T15:12:48.258Z</time>
      </trkpt>
      <trkpt lat="46.0464" lon="5.61105">
        <ele>898</ele>
        <time>2025-07-12T15:12:52.677Z</time>
      </trkpt>
      <trkpt lat="46.04635" lon="5.61099">
        <ele>898</ele>
        <time>2025-07-12T15:12:57.257Z</time>
      </trkpt>
      <trkpt lat="46.0463" lon="5.61093">
        <ele>895</ele>
        <time>2025-07-12T15:13:01.436Z</time>
      </trkpt>
      <trkpt lat="46.04625" lon="5.61087">
        <ele>898</ele>
        <time>2025-07-12T15:13:05.722Z</time>
      </trkpt>
      <trkpt lat="46.04619" lon="5.61081">
        <ele>898</ele>
        <time>2025-07-12T15:13:10.417Z</time>
      </trkpt>
      <trkpt lat="46.04614" lon="5.61076">
        <ele>898</ele>
        <time>2025-07-12T15:13:14.733Z</time>
      </trkpt>
      <trkpt lat="46.04606" lon="5.61071">
        <ele>898</ele>
        <time>2025-07-12T15:13:19.731Z</time>
      </trkpt>
      <trkpt lat="46.04599" lon="5.61065">
        <ele>895</ele>
        <time>2025-07-12T15:13:24.216Z</time>
      </trkpt>
      <trkpt lat="46.04592" lon="5.61062">
        <ele>894</ele>
        <time>2025-07-12T15:13:28.731Z</time>
      </trkpt>
      <trkpt lat="46.04587" lon="5.61059">
        <ele>894</ele>
        <time>2025-07-12T15:13:33.076Z</time>
      </trkpt>
      <trkpt lat="46.04576" lon="5.61055">
        <ele>894</ele>
        <time>2025-07-12T15:14:13.449Z</time>
      </trkpt>
      <trkpt lat="46.0458" lon="5.61063">
        <ele>894</ele>
        <time>2025-07-12T15:14:18.410Z</time>
      </trkpt>
      <trkpt lat="46.04585" lon="5.6107">
        <ele>896</ele>
        <time>2025-07-12T15:14:22.739Z</time>
      </trkpt>
      <trkpt lat="46.04589" lon="5.61079">
        <ele>896</ele>
        <time>2025-07-12T15:14:27.592Z</time>
      </trkpt>
      <trkpt lat="46.04592" lon="5.61089">
        <ele>896</ele>
        <time>2025-07-12T15:14:32.040Z</time>
      </trkpt>
      <trkpt lat="46.04594" lon="5.61097">
        <ele>899</ele>
        <time>2025-07-12T15:14:36.598Z</time>
      </trkpt>
      <trkpt lat="46.04597" lon="5.61105">
        <ele>899</ele>
        <time>2025-07-12T15:14:40.999Z</time>
      </trkpt>
      <trkpt lat="46.04599" lon="5.61114">
        <ele>899</ele>
        <time>2025-07-12T15:14:45.560Z</time>
      </trkpt>
      <trkpt lat="46.046" lon="5.61122">
        <ele>899</ele>
        <time>2025-07-12T15:14:49.899Z</time>
      </trkpt>
      <trkpt lat="46.046" lon="5.6113">
        <ele>902</ele>
        <time>2025-07-12T15:14:53.876Z</time>
      </trkpt>
      <trkpt lat="46.046" lon="5.61139">
        <ele>902</ele>
        <time>2025-07-12T15:14:58.556Z</time>
      </trkpt>
      <trkpt lat="46.04599" lon="5.61148">
        <ele>902</ele>
        <time>2025-07-12T15:15:02.936Z</time>
      </trkpt>
      <trkpt lat="46.04599" lon="5.61157">
        <ele>904</ele>
        <time>2025-07-12T15:15:07.256Z</time>
      </trkpt>
      <trkpt lat="46.046" lon="5.61165">
        <ele>904</ele>
        <time>2025-07-12T15:15:11.355Z</time>
      </trkpt>
      <trkpt lat="46.04603" lon="5.61176">
        <ele>904</ele>
        <time>2025-07-12T15:15:15.733Z</time>
      </trkpt>
      <trkpt lat="46.04604" lon="5.61188">
        <ele>906</ele>
        <time>2025-07-12T15:15:20.536Z</time>
      </trkpt>
      <trkpt lat="46.04607" lon="5.61198">
        <ele>906</ele>
        <time>2025-07-12T15:15:24.733Z</time>
      </trkpt>
      <trkpt lat="46.04611" lon="5.61206">
        <ele>906</ele>
        <time>2025-07-12T15:15:29.395Z</time>
      </trkpt>
      <trkpt lat="46.04614" lon="5.61211">
        <ele>909</ele>
        <time>2025-07-12T15:15:33.474Z</time>
      </trkpt>
      <trkpt lat="46.04618" lon="5.61213">
        <ele>909</ele>
        <time>2025-07-12T15:15:38.556Z</time>
      </trkpt>
      <trkpt lat="46.04624" lon="5.61215">
        <ele>909</ele>
        <time>2025-07-12T15:15:43.535Z</time>
      </trkpt>
      <trkpt lat="46.04629" lon="5.61212">
        <ele>911</ele>
        <time>2025-07-12T15:15:47.534Z</time>
      </trkpt>
      <trkpt lat="46.04635" lon="5.6121">
        <ele>911</ele>
        <time>2025-07-12T15:15:52.015Z</time>
      </trkpt>
      <trkpt lat="46.04641" lon="5.61212">
        <ele>911</ele>
        <time>2025-07-12T15:15:56.534Z</time>
      </trkpt>
      <trkpt lat="46.04646" lon="5.61215">
        <ele>911</ele>
        <time>2025-07-12T15:16:00.742Z</time>
      </trkpt>
      <trkpt lat="46.04652" lon="5.61217">
        <ele>911</ele>
        <time>2025-07-12T15:16:05.095Z</time>
      </trkpt>
      <trkpt lat="46.04659" lon="5.61215">
        <ele>911</ele>
        <time>2025-07-12T15:16:09.652Z</time>
      </trkpt>
      <trkpt lat="46.04666" lon="5.61213">
        <ele>911</ele>
        <time>2025-07-12T15:16:14.176Z</time>
      </trkpt>
      <trkpt lat="46.04674" lon="5.61211">
        <ele>911</ele>
        <time>2025-07-12T15:16:18.722Z</time>
      </trkpt>
      <trkpt lat="46.04679" lon="5.61211">
        <ele>911</ele>
        <time>2025-07-12T15:16:22.731Z</time>
      </trkpt>
      <trkpt lat="46.04686" lon="5.61213">
        <ele>906</ele>
        <time>2025-07-12T15:16:27.192Z</time>
      </trkpt>
      <trkpt lat="46.04693" lon="5.61214">
        <ele>906</ele>
        <time>2025-07-12T15:16:31.737Z</time>
      </trkpt>
      <trkpt lat="46.047" lon="5.61213">
        <ele>906</ele>
        <time>2025-07-12T15:16:36.515Z</time>
      </trkpt>
      <trkpt lat="46.04706" lon="5.61216">
        <ele>906</ele>
        <time>2025-07-12T15:16:40.735Z</time>
      </trkpt>
      <trkpt lat="46.04711" lon="5.61218">
        <ele>903</ele>
        <time>2025-07-12T15:16:45.213Z</time>
      </trkpt>
      <trkpt lat="46.04716" lon="5.6122">
        <ele>903</ele>
        <time>2025-07-12T15:16:49.551Z</time>
      </trkpt>
      <trkpt lat="46.04718" lon="5.6122">
        <ele>903</ele>
        <time>2025-07-12T15:16:53.739Z</time>
      </trkpt>
      <trkpt lat="46.0472" lon="5.6122">
        <ele>903</ele>
        <time>2025-07-12T15:16:58.638Z</time>
      </trkpt>
      <trkpt lat="46.04723" lon="5.61221">
        <ele>903</ele>
        <time>2025-07-12T15:17:02.737Z</time>
      </trkpt>
      <trkpt lat="46.04728" lon="5.61223">
        <ele>903</ele>
        <time>2025-07-12T15:17:07.726Z</time>
      </trkpt>
      <trkpt lat="46.04737" lon="5.61227">
        <ele>900</ele>
        <time>2025-07-12T15:17:12.738Z</time>
      </trkpt>
      <trkpt lat="46.04743" lon="5.61232">
        <ele>900</ele>
        <time>2025-07-12T15:17:17.727Z</time>
      </trkpt>
      <trkpt lat="46.04748" lon="5.61237">
        <ele>904</ele>
        <time>2025-07-12T15:17:21.732Z</time>
      </trkpt>
      <trkpt lat="46.04752" lon="5.61239">
        <ele>904</ele>
        <time>2025-07-12T15:17:26.220Z</time>
      </trkpt>
      <trkpt lat="46.04758" lon="5.61241">
        <ele>904</ele>
        <time>2025-07-12T15:17:30.659Z</time>
      </trkpt>
      <trkpt lat="46.04764" lon="5.61242">
        <ele>904</ele>
        <time>2025-07-12T15:17:34.726Z</time>
      </trkpt>
      <trkpt lat="46.0477" lon="5.61245">
        <ele>904</ele>
        <time>2025-07-12T15:17:39.119Z</time>
      </trkpt>
      <trkpt lat="46.04774" lon="5.61245">
        <ele>904</ele>
        <time>2025-07-12T15:17:43.198Z</time>
      </trkpt>
      <trkpt lat="46.04778" lon="5.61248">
        <ele>904</ele>
        <time>2025-07-12T15:17:47.731Z</time>
      </trkpt>
      <trkpt lat="46.04784" lon="5.61246">
        <ele>904</ele>
        <time>2025-07-12T15:17:51.731Z</time>
      </trkpt>
      <trkpt lat="46.04791" lon="5.61248">
        <ele>904</ele>
        <time>2025-07-12T15:17:55.730Z</time>
      </trkpt>
      <trkpt lat="46.048" lon="5.61251">
        <ele>904</ele>
        <time>2025-07-12T15:18:00.733Z</time>
      </trkpt>
      <trkpt lat="46.04807" lon="5.61254">
        <ele>904</ele>
        <time>2025-07-12T15:18:05.719Z</time>
      </trkpt>
      <trkpt lat="46.04814" lon="5.61257">
        <ele>904</ele>
        <time>2025-07-12T15:18:09.724Z</time>
      </trkpt>
      <trkpt lat="46.04823" lon="5.61263">
        <ele>906</ele>
        <time>2025-07-12T15:18:14.736Z</time>
      </trkpt>
      <trkpt lat="46.04829" lon="5.61267">
        <ele>905</ele>
        <time>2025-07-12T15:18:19.731Z</time>
      </trkpt>
      <trkpt lat="46.0483" lon="5.61267">
        <ele>905</ele>
        <time>2025-07-12T15:18:24.736Z</time>
      </trkpt>
      <trkpt lat="46.04831" lon="5.61269">
        <ele>905</ele>
        <time>2025-07-12T15:18:29.726Z</time>
      </trkpt>
      <trkpt lat="46.04842" lon="5.61277">
        <ele>905</ele>
        <time>2025-07-12T15:18:34.729Z</time>
      </trkpt>
      <trkpt lat="46.04852" lon="5.61282">
        <ele>907</ele>
        <time>2025-07-12T15:18:39.729Z</time>
      </trkpt>
      <trkpt lat="46.04857" lon="5.61284">
        <ele>907</ele>
        <time>2025-07-12T15:18:43.725Z</time>
      </trkpt>
      <trkpt lat="46.04866" lon="5.61286">
        <ele>907</ele>
        <time>2025-07-12T15:18:48.737Z</time>
      </trkpt>
      <trkpt lat="46.04875" lon="5.6129">
        <ele>907</ele>
        <time>2025-07-12T15:18:53.712Z</time>
      </trkpt>
      <trkpt lat="46.0488" lon="5.61291">
        <ele>907</ele>
        <time>2025-07-12T15:18:57.725Z</time>
      </trkpt>
      <trkpt lat="46.04885" lon="5.61294">
        <ele>907</ele>
        <time>2025-07-12T15:19:02.718Z</time>
      </trkpt>
      <trkpt lat="46.04889" lon="5.61293">
        <ele>907</ele>
        <time>2025-07-12T15:19:07.716Z</time>
      </trkpt>
      <trkpt lat="46.04893" lon="5.6129">
        <ele>907</ele>
        <time>2025-07-12T15:19:12.718Z</time>
      </trkpt>
      <trkpt lat="46.04896" lon="5.61289">
        <ele>907</ele>
        <time>2025-07-12T15:19:16.726Z</time>
      </trkpt>
      <trkpt lat="46.04903" lon="5.61293">
        <ele>907</ele>
        <time>2025-07-12T15:19:21.720Z</time>
      </trkpt>
      <trkpt lat="46.0491" lon="5.61296">
        <ele>907</ele>
        <time>2025-07-12T15:19:25.728Z</time>
      </trkpt>
      <trkpt lat="46.04917" lon="5.61295">
        <ele>907</ele>
        <time>2025-07-12T15:19:30.732Z</time>
      </trkpt>
      <trkpt lat="46.04923" lon="5.61294">
        <ele>907</ele>
        <time>2025-07-12T15:19:35.730Z</time>
      </trkpt>
      <trkpt lat="46.0493" lon="5.61293">
        <ele>907</ele>
        <time>2025-07-12T15:19:40.730Z</time>
      </trkpt>
      <trkpt lat="46.04934" lon="5.61292">
        <ele>903</ele>
        <time>2025-07-12T15:19:44.722Z</time>
      </trkpt>
      <trkpt lat="46.04941" lon="5.61292">
        <ele>900</ele>
        <time>2025-07-12T15:19:49.725Z</time>
      </trkpt>
      <trkpt lat="46.04946" lon="5.61288">
        <ele>900</ele>
        <time>2025-07-12T15:19:53.724Z</time>
      </trkpt>
      <trkpt lat="46.04952" lon="5.61283">
        <ele>900</ele>
        <time>2025-07-12T15:19:58.722Z</time>
      </trkpt>
      <trkpt lat="46.04961" lon="5.61277">
        <ele>897</ele>
        <time>2025-07-12T15:20:03.724Z</time>
      </trkpt>
      <trkpt lat="46.04968" lon="5.61272">
        <ele>897</ele>
        <time>2025-07-12T15:20:07.715Z</time>
      </trkpt>
      <trkpt lat="46.04972" lon="5.61268">
        <ele>897</ele>
        <time>2025-07-12T15:20:12.299Z</time>
      </trkpt>
      <trkpt lat="46.04978" lon="5.61263">
        <ele>892</ele>
        <time>2025-07-12T15:20:16.598Z</time>
      </trkpt>
      <trkpt lat="46.04985" lon="5.61259">
        <ele>892</ele>
        <time>2025-07-12T15:20:20.858Z</time>
      </trkpt>
      <trkpt lat="46.0499" lon="5.61257">
        <ele>889</ele>
        <time>2025-07-12T15:20:25.176Z</time>
      </trkpt>
      <trkpt lat="46.04994" lon="5.61256">
        <ele>889</ele>
        <time>2025-07-12T15:20:29.596Z</time>
      </trkpt>
      <trkpt lat="46.04999" lon="5.61256">
        <ele>889</ele>
        <time>2025-07-12T15:20:34.596Z</time>
      </trkpt>
      <trkpt lat="46.05003" lon="5.61262">
        <ele>889</ele>
        <time>2025-07-12T15:20:38.956Z</time>
      </trkpt>
      <trkpt lat="46.05007" lon="5.61265">
        <ele>893</ele>
        <time>2025-07-12T15:20:43.136Z</time>
      </trkpt>
      <trkpt lat="46.0501" lon="5.61266">
        <ele>893</ele>
        <time>2025-07-12T15:20:47.355Z</time>
      </trkpt>
      <trkpt lat="46.05014" lon="5.61266">
        <ele>891</ele>
        <time>2025-07-12T15:20:51.733Z</time>
      </trkpt>
      <trkpt lat="46.05018" lon="5.61266">
        <ele>891</ele>
        <time>2025-07-12T15:20:56.136Z</time>
      </trkpt>
      <trkpt lat="46.05026" lon="5.61268">
        <ele>891</ele>
        <time>2025-07-12T15:21:00.416Z</time>
      </trkpt>
      <trkpt lat="46.05034" lon="5.61269">
        <ele>891</ele>
        <time>2025-07-12T15:21:04.555Z</time>
      </trkpt>
      <trkpt lat="46.05042" lon="5.61271">
        <ele>888</ele>
        <time>2025-07-12T15:21:08.728Z</time>
      </trkpt>
      <trkpt lat="46.05047" lon="5.61272">
        <ele>888</ele>
        <time>2025-07-12T15:21:12.995Z</time>
      </trkpt>
      <trkpt lat="46.05052" lon="5.61276">
        <ele>888</ele>
        <time>2025-07-12T15:21:17.272Z</time>
      </trkpt>
      <trkpt lat="46.05058" lon="5.61278">
        <ele>888</ele>
        <time>2025-07-12T15:21:21.312Z</time>
      </trkpt>
      <trkpt lat="46.05062" lon="5.61284">
        <ele>888</ele>
        <time>2025-07-12T15:21:25.672Z</time>
      </trkpt>
      <trkpt lat="46.05068" lon="5.61288">
        <ele>888</ele>
        <time>2025-07-12T15:21:30.729Z</time>
      </trkpt>
      <trkpt lat="46.05074" lon="5.61289">
        <ele>885</ele>
        <time>2025-07-12T15:21:34.991Z</time>
      </trkpt>
      <trkpt lat="46.0508" lon="5.61292">
        <ele>888</ele>
        <time>2025-07-12T15:21:39.211Z</time>
      </trkpt>
      <trkpt lat="46.05086" lon="5.61293">
        <ele>888</ele>
        <time>2025-07-12T15:21:43.313Z</time>
      </trkpt>
      <trkpt lat="46.05089" lon="5.61293">
        <ele>888</ele>
        <time>2025-07-12T15:21:47.372Z</time>
      </trkpt>
      <trkpt lat="46.05095" lon="5.61293">
        <ele>888</ele>
        <time>2025-07-12T15:21:51.451Z</time>
      </trkpt>
      <trkpt lat="46.05101" lon="5.61291">
        <ele>880</ele>
        <time>2025-07-12T15:21:55.513Z</time>
      </trkpt>
      <trkpt lat="46.05107" lon="5.61287">
        <ele>880</ele>
        <time>2025-07-12T15:21:59.552Z</time>
      </trkpt>
      <trkpt lat="46.05111" lon="5.61281">
        <ele>880</ele>
        <time>2025-07-12T15:22:03.729Z</time>
      </trkpt>
      <trkpt lat="46.05114" lon="5.61275">
        <ele>880</ele>
        <time>2025-07-12T15:22:07.731Z</time>
      </trkpt>
      <trkpt lat="46.05116" lon="5.61269">
        <ele>880</ele>
        <time>2025-07-12T15:22:11.919Z</time>
      </trkpt>
      <trkpt lat="46.05118" lon="5.61262">
        <ele>877</ele>
        <time>2025-07-12T15:22:16.529Z</time>
      </trkpt>
      <trkpt lat="46.0512" lon="5.61257">
        <ele>877</ele>
        <time>2025-07-12T15:22:20.727Z</time>
      </trkpt>
      <trkpt lat="46.05122" lon="5.61251">
        <ele>877</ele>
        <time>2025-07-12T15:22:25.200Z</time>
      </trkpt>
      <trkpt lat="46.05123" lon="5.61245">
        <ele>877</ele>
        <time>2025-07-12T15:22:29.577Z</time>
      </trkpt>
      <trkpt lat="46.05124" lon="5.61238">
        <ele>877</ele>
        <time>2025-07-12T15:22:34.138Z</time>
      </trkpt>
      <trkpt lat="46.05126" lon="5.61233">
        <ele>872</ele>
        <time>2025-07-12T15:22:42.737Z</time>
      </trkpt>
      <trkpt lat="46.05126" lon="5.6123">
        <ele>872</ele>
        <time>2025-07-12T15:22:47.014Z</time>
      </trkpt>
      <trkpt lat="46.05126" lon="5.61227">
        <ele>872</ele>
        <time>2025-07-12T15:22:51.275Z</time>
      </trkpt>
      <trkpt lat="46.05128" lon="5.61224">
        <ele>872</ele>
        <time>2025-07-12T15:22:55.654Z</time>
      </trkpt>
      <trkpt lat="46.0513" lon="5.61219">
        <ele>872</ele>
        <time>2025-07-12T15:22:59.914Z</time>
      </trkpt>
      <trkpt lat="46.05131" lon="5.61209">
        <ele>872</ele>
        <time>2025-07-12T15:23:04.727Z</time>
      </trkpt>
      <trkpt lat="46.05133" lon="5.61198">
        <ele>871</ele>
        <time>2025-07-12T15:23:09.277Z</time>
      </trkpt>
      <trkpt lat="46.05139" lon="5.61188">
        <ele>871</ele>
        <time>2025-07-12T15:23:14.454Z</time>
      </trkpt>
      <trkpt lat="46.05141" lon="5.61176">
        <ele>870</ele>
        <time>2025-07-12T15:23:18.475Z</time>
      </trkpt>
      <trkpt lat="46.05143" lon="5.61163">
        <ele>870</ele>
        <time>2025-07-12T15:23:23.013Z</time>
      </trkpt>
      <trkpt lat="46.05146" lon="5.61154">
        <ele>870</ele>
        <time>2025-07-12T15:23:27.413Z</time>
      </trkpt>
      <trkpt lat="46.0515" lon="5.61145">
        <ele>869</ele>
        <time>2025-07-12T15:23:31.726Z</time>
      </trkpt>
      <trkpt lat="46.05154" lon="5.61138">
        <ele>867</ele>
        <time>2025-07-12T15:23:35.728Z</time>
      </trkpt>
      <trkpt lat="46.05156" lon="5.61127">
        <ele>867</ele>
        <time>2025-07-12T15:23:39.831Z</time>
      </trkpt>
      <trkpt lat="46.05158" lon="5.61118">
        <ele>864</ele>
        <time>2025-07-12T15:23:44.372Z</time>
      </trkpt>
      <trkpt lat="46.05157" lon="5.61109">
        <ele>864</ele>
        <time>2025-07-12T15:23:48.951Z</time>
      </trkpt>
      <trkpt lat="46.05154" lon="5.61101">
        <ele>864</ele>
        <time>2025-07-12T15:23:52.972Z</time>
      </trkpt>
      <trkpt lat="46.0515" lon="5.61096">
        <ele>863</ele>
        <time>2025-07-12T15:23:57.212Z</time>
      </trkpt>
      <trkpt lat="46.05146" lon="5.61092">
        <ele>863</ele>
        <time>2025-07-12T15:24:01.710Z</time>
      </trkpt>
      <trkpt lat="46.05143" lon="5.61086">
        <ele>863</ele>
        <time>2025-07-12T15:24:06.736Z</time>
      </trkpt>
      <trkpt lat="46.05141" lon="5.61076">
        <ele>863</ele>
        <time>2025-07-12T15:24:11.727Z</time>
      </trkpt>
      <trkpt lat="46.05141" lon="5.61066">
        <ele>860</ele>
        <time>2025-07-12T15:24:15.727Z</time>
      </trkpt>
      <trkpt lat="46.05142" lon="5.61054">
        <ele>860</ele>
        <time>2025-07-12T15:24:19.733Z</time>
      </trkpt>
      <trkpt lat="46.05144" lon="5.61043">
        <ele>860</ele>
        <time>2025-07-12T15:24:23.741Z</time>
      </trkpt>
      <trkpt lat="46.05147" lon="5.61032">
        <ele>858</ele>
        <time>2025-07-12T15:24:28.732Z</time>
      </trkpt>
      <trkpt lat="46.05148" lon="5.61021">
        <ele>858</ele>
        <time>2025-07-12T15:24:33.733Z</time>
      </trkpt>
      <trkpt lat="46.05147" lon="5.6101">
        <ele>857</ele>
        <time>2025-07-12T15:24:38.738Z</time>
      </trkpt>
      <trkpt lat="46.05144" lon="5.61001">
        <ele>857</ele>
        <time>2025-07-12T15:24:43.731Z</time>
      </trkpt>
      <trkpt lat="46.05145" lon="5.60994">
        <ele>857</ele>
        <time>2025-07-12T15:24:47.737Z</time>
      </trkpt>
      <trkpt lat="46.05146" lon="5.60985">
        <ele>854</ele>
        <time>2025-07-12T15:24:52.016Z</time>
      </trkpt>
      <trkpt lat="46.05149" lon="5.60977">
        <ele>854</ele>
        <time>2025-07-12T15:24:56.176Z</time>
      </trkpt>
      <trkpt lat="46.05153" lon="5.60973">
        <ele>848</ele>
        <time>2025-07-12T15:25:00.731Z</time>
      </trkpt>
      <trkpt lat="46.05158" lon="5.60966">
        <ele>848</ele>
        <time>2025-07-12T15:25:05.197Z</time>
      </trkpt>
      <trkpt lat="46.05165" lon="5.60964">
        <ele>848</ele>
        <time>2025-07-12T15:25:09.560Z</time>
      </trkpt>
      <trkpt lat="46.05171" lon="5.60964">
        <ele>848</ele>
        <time>2025-07-12T15:25:13.996Z</time>
      </trkpt>
      <trkpt lat="46.05178" lon="5.60965">
        <ele>848</ele>
        <time>2025-07-12T15:25:18.537Z</time>
      </trkpt>
      <trkpt lat="46.05184" lon="5.60965">
        <ele>847</ele>
        <time>2025-07-12T15:25:22.725Z</time>
      </trkpt>
      <trkpt lat="46.05192" lon="5.60962">
        <ele>847</ele>
        <time>2025-07-12T15:25:27.277Z</time>
      </trkpt>
      <trkpt lat="46.052" lon="5.6096">
        <ele>847</ele>
        <time>2025-07-12T15:25:31.722Z</time>
      </trkpt>
      <trkpt lat="46.0521" lon="5.60959">
        <ele>848</ele>
        <time>2025-07-12T15:25:36.197Z</time>
      </trkpt>
      <trkpt lat="46.05218" lon="5.60959">
        <ele>848</ele>
        <time>2025-07-12T15:25:40.675Z</time>
      </trkpt>
      <trkpt lat="46.05225" lon="5.60956">
        <ele>845</ele>
        <time>2025-07-12T15:25:45.175Z</time>
      </trkpt>
      <trkpt lat="46.05232" lon="5.60953">
        <ele>845</ele>
        <time>2025-07-12T15:25:49.675Z</time>
      </trkpt>
      <trkpt lat="46.05239" lon="5.6095">
        <ele>846</ele>
        <time>2025-07-12T15:25:54.054Z</time>
      </trkpt>
      <trkpt lat="46.05247" lon="5.60949">
        <ele>846</ele>
        <time>2025-07-12T15:25:58.412Z</time>
      </trkpt>
      <trkpt lat="46.05253" lon="5.60946">
        <ele>846</ele>
        <time>2025-07-12T15:26:02.731Z</time>
      </trkpt>
      <trkpt lat="46.05259" lon="5.60943">
        <ele>846</ele>
        <time>2025-07-12T15:26:06.728Z</time>
      </trkpt>
      <trkpt lat="46.05266" lon="5.60941">
        <ele>845</ele>
        <time>2025-07-12T15:26:11.293Z</time>
      </trkpt>
      <trkpt lat="46.05272" lon="5.60937">
        <ele>845</ele>
        <time>2025-07-12T15:26:15.719Z</time>
      </trkpt>
      <trkpt lat="46.0528" lon="5.60935">
        <ele>845</ele>
        <time>2025-07-12T15:26:20.679Z</time>
      </trkpt>
      <trkpt lat="46.05287" lon="5.60934">
        <ele>845</ele>
        <time>2025-07-12T15:26:25.378Z</time>
      </trkpt>
      <trkpt lat="46.05293" lon="5.60931">
        <ele>844</ele>
        <time>2025-07-12T15:26:29.654Z</time>
      </trkpt>
      <trkpt lat="46.05297" lon="5.60927">
        <ele>843</ele>
        <time>2025-07-12T15:26:33.730Z</time>
      </trkpt>
      <trkpt lat="46.05305" lon="5.60926">
        <ele>843</ele>
        <time>2025-07-12T15:26:38.731Z</time>
      </trkpt>
      <trkpt lat="46.05312" lon="5.60922">
        <ele>843</ele>
        <time>2025-07-12T15:26:43.193Z</time>
      </trkpt>
      <trkpt lat="46.05318" lon="5.60921">
        <ele>843</ele>
        <time>2025-07-12T15:26:47.273Z</time>
      </trkpt>
      <trkpt lat="46.05324" lon="5.6092">
        <ele>843</ele>
        <time>2025-07-12T15:26:51.633Z</time>
      </trkpt>
      <trkpt lat="46.0533" lon="5.60918">
        <ele>843</ele>
        <time>2025-07-12T15:26:55.710Z</time>
      </trkpt>
      <trkpt lat="46.05335" lon="5.60917">
        <ele>843</ele>
        <time>2025-07-12T15:26:59.736Z</time>
      </trkpt>
      <trkpt lat="46.0534" lon="5.60914">
        <ele>843</ele>
        <time>2025-07-12T15:27:03.982Z</time>
      </trkpt>
      <trkpt lat="46.05344" lon="5.60912">
        <ele>843</ele>
        <time>2025-07-12T15:27:08.512Z</time>
      </trkpt>
      <trkpt lat="46.05349" lon="5.60906">
        <ele>842</ele>
        <time>2025-07-12T15:27:12.930Z</time>
      </trkpt>
      <trkpt lat="46.05355" lon="5.60898">
        <ele>842</ele>
        <time>2025-07-12T15:27:17.411Z</time>
      </trkpt>
      <trkpt lat="46.05361" lon="5.60892">
        <ele>842</ele>
        <time>2025-07-12T15:27:21.452Z</time>
      </trkpt>
      <trkpt lat="46.05366" lon="5.60885">
        <ele>842</ele>
        <time>2025-07-12T15:27:25.711Z</time>
      </trkpt>
      <trkpt lat="46.0537" lon="5.60878">
        <ele>842</ele>
        <time>2025-07-12T15:27:29.722Z</time>
      </trkpt>
      <trkpt lat="46.05372" lon="5.60869">
        <ele>842</ele>
        <time>2025-07-12T15:27:33.959Z</time>
      </trkpt>
      <trkpt lat="46.05376" lon="5.6086">
        <ele>841</ele>
        <time>2025-07-12T15:27:38.010Z</time>
      </trkpt>
      <trkpt lat="46.05381" lon="5.60851">
        <ele>841</ele>
        <time>2025-07-12T15:27:42.470Z</time>
      </trkpt>
      <trkpt lat="46.05383" lon="5.6085">
        <ele>841</ele>
        <time>2025-07-12T15:27:47.727Z</time>
      </trkpt>
      <trkpt lat="46.05383" lon="5.6085">
        <ele>841</ele>
        <time>2025-07-12T15:27:54.340Z</time>
      </trkpt>
      <trkpt lat="46.05389" lon="5.60843">
        <ele>840</ele>
        <time>2025-07-12T15:27:58.900Z</time>
      </trkpt>
      <trkpt lat="46.05394" lon="5.6084">
        <ele>840</ele>
        <time>2025-07-12T15:28:03.161Z</time>
      </trkpt>
      <trkpt lat="46.05399" lon="5.60838">
        <ele>840</ele>
        <time>2025-07-12T15:28:07.380Z</time>
      </trkpt>
      <trkpt lat="46.05404" lon="5.60838">
        <ele>838</ele>
        <time>2025-07-12T15:28:11.519Z</time>
      </trkpt>
      <trkpt lat="46.0541" lon="5.60838">
        <ele>838</ele>
        <time>2025-07-12T15:28:15.559Z</time>
      </trkpt>
      <trkpt lat="46.05416" lon="5.60837">
        <ele>838</ele>
        <time>2025-07-12T15:28:19.728Z</time>
      </trkpt>
      <trkpt lat="46.05421" lon="5.60836">
        <ele>838</ele>
        <time>2025-07-12T15:28:24.138Z</time>
      </trkpt>
      <trkpt lat="46.05428" lon="5.60835">
        <ele>838</ele>
        <time>2025-07-12T15:28:28.717Z</time>
      </trkpt>
      <trkpt lat="46.05434" lon="5.60838">
        <ele>837</ele>
        <time>2025-07-12T15:28:32.717Z</time>
      </trkpt>
      <trkpt lat="46.0544" lon="5.60838">
        <ele>837</ele>
        <time>2025-07-12T15:28:36.938Z</time>
      </trkpt>
      <trkpt lat="46.05446" lon="5.60838">
        <ele>837</ele>
        <time>2025-07-12T15:28:40.977Z</time>
      </trkpt>
      <trkpt lat="46.05452" lon="5.60837">
        <ele>837</ele>
        <time>2025-07-12T15:28:45.677Z</time>
      </trkpt>
      <trkpt lat="46.05456" lon="5.60839">
        <ele>837</ele>
        <time>2025-07-12T15:28:49.875Z</time>
      </trkpt>
      <trkpt lat="46.05461" lon="5.60839">
        <ele>838</ele>
        <time>2025-07-12T15:28:54.254Z</time>
      </trkpt>
      <trkpt lat="46.05467" lon="5.60835">
        <ele>838</ele>
        <time>2025-07-12T15:28:58.415Z</time>
      </trkpt>
      <trkpt lat="46.05474" lon="5.60835">
        <ele>838</ele>
        <time>2025-07-12T15:29:02.634Z</time>
      </trkpt>
      <trkpt lat="46.0548" lon="5.60836">
        <ele>838</ele>
        <time>2025-07-12T15:29:06.738Z</time>
      </trkpt>
      <trkpt lat="46.05487" lon="5.60837">
        <ele>839</ele>
        <time>2025-07-12T15:29:11.093Z</time>
      </trkpt>
      <trkpt lat="46.05493" lon="5.60839">
        <ele>839</ele>
        <time>2025-07-12T15:29:15.731Z</time>
      </trkpt>
      <trkpt lat="46.05499" lon="5.6084">
        <ele>839</ele>
        <time>2025-07-12T15:29:20.061Z</time>
      </trkpt>
      <trkpt lat="46.05504" lon="5.60842">
        <ele>839</ele>
        <time>2025-07-12T15:29:24.280Z</time>
      </trkpt>
      <trkpt lat="46.05511" lon="5.60843">
        <ele>839</ele>
        <time>2025-07-12T15:29:28.399Z</time>
      </trkpt>
      <trkpt lat="46.05518" lon="5.60845">
        <ele>839</ele>
        <time>2025-07-12T15:29:32.560Z</time>
      </trkpt>
      <trkpt lat="46.05525" lon="5.60847">
        <ele>839</ele>
        <time>2025-07-12T15:29:36.742Z</time>
      </trkpt>
      <trkpt lat="46.05531" lon="5.6085">
        <ele>840</ele>
        <time>2025-07-12T15:29:41.021Z</time>
      </trkpt>
      <trkpt lat="46.05537" lon="5.60853">
        <ele>840</ele>
        <time>2025-07-12T15:29:45.622Z</time>
      </trkpt>
      <trkpt lat="46.05543" lon="5.60859">
        <ele>840</ele>
        <time>2025-07-12T15:29:50Z</time>
      </trkpt>
      <trkpt lat="46.05547" lon="5.60864">
        <ele>840</ele>
        <time>2025-07-12T15:29:54.060Z</time>
      </trkpt>
      <trkpt lat="46.05553" lon="5.60866">
        <ele>840</ele>
        <time>2025-07-12T15:29:58.460Z</time>
      </trkpt>
      <trkpt lat="46.05559" lon="5.60866">
        <ele>840</ele>
        <time>2025-07-12T15:30:02.717Z</time>
      </trkpt>
      <trkpt lat="46.05565" lon="5.60864">
        <ele>840</ele>
        <time>2025-07-12T15:30:07.717Z</time>
      </trkpt>
      <trkpt lat="46.0557" lon="5.60861">
        <ele>842</ele>
        <time>2025-07-12T15:30:12.277Z</time>
      </trkpt>
      <trkpt lat="46.05576" lon="5.60856">
        <ele>842</ele>
        <time>2025-07-12T15:30:16.722Z</time>
      </trkpt>
      <trkpt lat="46.05582" lon="5.60857">
        <ele>842</ele>
        <time>2025-07-12T15:30:21.737Z</time>
      </trkpt>
      <trkpt lat="46.05588" lon="5.60856">
        <ele>842</ele>
        <time>2025-07-12T15:30:26.036Z</time>
      </trkpt>
      <trkpt lat="46.05593" lon="5.60855">
        <ele>842</ele>
        <time>2025-07-12T15:30:30.237Z</time>
      </trkpt>
      <trkpt lat="46.05599" lon="5.60852">
        <ele>844</ele>
        <time>2025-07-12T15:30:34.635Z</time>
      </trkpt>
      <trkpt lat="46.05605" lon="5.60849">
        <ele>844</ele>
        <time>2025-07-12T15:30:38.727Z</time>
      </trkpt>
      <trkpt lat="46.05611" lon="5.60846">
        <ele>842</ele>
        <time>2025-07-12T15:30:43.395Z</time>
      </trkpt>
      <trkpt lat="46.05617" lon="5.60845">
        <ele>842</ele>
        <time>2025-07-12T15:30:47.717Z</time>
      </trkpt>
      <trkpt lat="46.05621" lon="5.60844">
        <ele>842</ele>
        <time>2025-07-12T15:30:51.893Z</time>
      </trkpt>
      <trkpt lat="46.05626" lon="5.6084">
        <ele>844</ele>
        <time>2025-07-12T15:30:55.992Z</time>
      </trkpt>
      <trkpt lat="46.05631" lon="5.60837">
        <ele>844</ele>
        <time>2025-07-12T15:31:00.092Z</time>
      </trkpt>
      <trkpt lat="46.05637" lon="5.60833">
        <ele>844</ele>
        <time>2025-07-12T15:31:04.351Z</time>
      </trkpt>
      <trkpt lat="46.05644" lon="5.60829">
        <ele>844</ele>
        <time>2025-07-12T15:31:09.020Z</time>
      </trkpt>
      <trkpt lat="46.05648" lon="5.60825">
        <ele>844</ele>
        <time>2025-07-12T15:31:13.141Z</time>
      </trkpt>
      <trkpt lat="46.05653" lon="5.6082">
        <ele>847</ele>
        <time>2025-07-12T15:31:17.729Z</time>
      </trkpt>
      <trkpt lat="46.05658" lon="5.60816">
        <ele>845</ele>
        <time>2025-07-12T15:31:21.733Z</time>
      </trkpt>
      <trkpt lat="46.05663" lon="5.60813">
        <ele>845</ele>
        <time>2025-07-12T15:31:26.638Z</time>
      </trkpt>
      <trkpt lat="46.05668" lon="5.6081">
        <ele>845</ele>
        <time>2025-07-12T15:31:30.916Z</time>
      </trkpt>
      <trkpt lat="46.05674" lon="5.60808">
        <ele>845</ele>
        <time>2025-07-12T15:31:35.036Z</time>
      </trkpt>
      <trkpt lat="46.0568" lon="5.60806">
        <ele>845</ele>
        <time>2025-07-12T15:31:39.259Z</time>
      </trkpt>
      <trkpt lat="46.05686" lon="5.60803">
        <ele>846</ele>
        <time>2025-07-12T15:31:43.726Z</time>
      </trkpt>
      <trkpt lat="46.05691" lon="5.60801">
        <ele>846</ele>
        <time>2025-07-12T15:31:48.475Z</time>
      </trkpt>
      <trkpt lat="46.05696" lon="5.60798">
        <ele>846</ele>
        <time>2025-07-12T15:31:52.724Z</time>
      </trkpt>
      <trkpt lat="46.05701" lon="5.60795">
        <ele>846</ele>
        <time>2025-07-12T15:31:56.725Z</time>
      </trkpt>
      <trkpt lat="46.05708" lon="5.60793">
        <ele>846</ele>
        <time>2025-07-12T15:32:01.725Z</time>
      </trkpt>
      <trkpt lat="46.05714" lon="5.60792">
        <ele>847</ele>
        <time>2025-07-12T15:32:05.724Z</time>
      </trkpt>
      <trkpt lat="46.05721" lon="5.60791">
        <ele>845</ele>
        <time>2025-07-12T15:32:10.727Z</time>
      </trkpt>
      <trkpt lat="46.05727" lon="5.6079">
        <ele>845</ele>
        <time>2025-07-12T15:32:15.192Z</time>
      </trkpt>
      <trkpt lat="46.05732" lon="5.60789">
        <ele>845</ele>
        <time>2025-07-12T15:32:19.434Z</time>
      </trkpt>
      <trkpt lat="46.05737" lon="5.60786">
        <ele>846</ele>
        <time>2025-07-12T15:32:23.530Z</time>
      </trkpt>
      <trkpt lat="46.05743" lon="5.60783">
        <ele>846</ele>
        <time>2025-07-12T15:32:28.079Z</time>
      </trkpt>
      <trkpt lat="46.05749" lon="5.60778">
        <ele>846</ele>
        <time>2025-07-12T15:32:32.732Z</time>
      </trkpt>
      <trkpt lat="46.05757" lon="5.60775">
        <ele>846</ele>
        <time>2025-07-12T15:32:37.726Z</time>
      </trkpt>
      <trkpt lat="46.05762" lon="5.60771">
        <ele>846</ele>
        <time>2025-07-12T15:32:42.730Z</time>
      </trkpt>
      <trkpt lat="46.05765" lon="5.60765">
        <ele>848</ele>
        <time>2025-07-12T15:32:46.734Z</time>
      </trkpt>
      <trkpt lat="46.05766" lon="5.60755">
        <ele>847</ele>
        <time>2025-07-12T15:32:51.729Z</time>
      </trkpt>
      <trkpt lat="46.05765" lon="5.6075">
        <ele>847</ele>
        <time>2025-07-12T15:32:55.729Z</time>
      </trkpt>
      <trkpt lat="46.05761" lon="5.60742">
        <ele>846</ele>
        <time>2025-07-12T15:33:00.723Z</time>
      </trkpt>
      <trkpt lat="46.05758" lon="5.60735">
        <ele>845</ele>
        <time>2025-07-12T15:33:04.733Z</time>
      </trkpt>
      <trkpt lat="46.05754" lon="5.60728">
        <ele>845</ele>
        <time>2025-07-12T15:33:09.715Z</time>
      </trkpt>
      <trkpt lat="46.0575" lon="5.60721">
        <ele>845</ele>
        <time>2025-07-12T15:33:13.733Z</time>
      </trkpt>
      <trkpt lat="46.05748" lon="5.60715">
        <ele>845</ele>
        <time>2025-07-12T15:33:17.734Z</time>
      </trkpt>
      <trkpt lat="46.05744" lon="5.60708">
        <ele>844</ele>
        <time>2025-07-12T15:33:22.135Z</time>
      </trkpt>
      <trkpt lat="46.0574" lon="5.60701">
        <ele>844</ele>
        <time>2025-07-12T15:33:26.315Z</time>
      </trkpt>
      <trkpt lat="46.05738" lon="5.60693">
        <ele>844</ele>
        <time>2025-07-12T15:33:30.714Z</time>
      </trkpt>
      <trkpt lat="46.05734" lon="5.60686">
        <ele>842</ele>
        <time>2025-07-12T15:33:35.297Z</time>
      </trkpt>
      <trkpt lat="46.05729" lon="5.60679">
        <ele>842</ele>
        <time>2025-07-12T15:33:39.493Z</time>
      </trkpt>
      <trkpt lat="46.05725" lon="5.60672">
        <ele>842</ele>
        <time>2025-07-12T15:33:43.673Z</time>
      </trkpt>
      <trkpt lat="46.0572" lon="5.60667">
        <ele>842</ele>
        <time>2025-07-12T15:33:47.710Z</time>
      </trkpt>
      <trkpt lat="46.05715" lon="5.6066">
        <ele>842</ele>
        <time>2025-07-12T15:33:52.192Z</time>
      </trkpt>
      <trkpt lat="46.05712" lon="5.60652">
        <ele>842</ele>
        <time>2025-07-12T15:33:56.735Z</time>
      </trkpt>
      <trkpt lat="46.05709" lon="5.60644">
        <ele>842</ele>
        <time>2025-07-12T15:34:01.212Z</time>
      </trkpt>
      <trkpt lat="46.05706" lon="5.60638">
        <ele>843</ele>
        <time>2025-07-12T15:34:05.730Z</time>
      </trkpt>
      <trkpt lat="46.05701" lon="5.60631">
        <ele>843</ele>
        <time>2025-07-12T15:34:10.728Z</time>
      </trkpt>
      <trkpt lat="46.05695" lon="5.60625">
        <ele>843</ele>
        <time>2025-07-12T15:34:15.738Z</time>
      </trkpt>
      <trkpt lat="46.05691" lon="5.6062">
        <ele>843</ele>
        <time>2025-07-12T15:34:19.734Z</time>
      </trkpt>
      <trkpt lat="46.05687" lon="5.60616">
        <ele>843</ele>
        <time>2025-07-12T15:34:23.939Z</time>
      </trkpt>
      <trkpt lat="46.05683" lon="5.60611">
        <ele>843</ele>
        <time>2025-07-12T15:34:28.220Z</time>
      </trkpt>
      <trkpt lat="46.05677" lon="5.60606">
        <ele>844</ele>
        <time>2025-07-12T15:34:32.732Z</time>
      </trkpt>
      <trkpt lat="46.05672" lon="5.60602">
        <ele>844</ele>
        <time>2025-07-12T15:34:37.139Z</time>
      </trkpt>
      <trkpt lat="46.05667" lon="5.60601">
        <ele>844</ele>
        <time>2025-07-12T15:34:41.299Z</time>
      </trkpt>
      <trkpt lat="46.05662" lon="5.60598">
        <ele>844</ele>
        <time>2025-07-12T15:34:45.296Z</time>
      </trkpt>
      <trkpt lat="46.05657" lon="5.60595">
        <ele>843</ele>
        <time>2025-07-12T15:34:49.456Z</time>
      </trkpt>
      <trkpt lat="46.05652" lon="5.60592">
        <ele>843</ele>
        <time>2025-07-12T15:34:53.576Z</time>
      </trkpt>
      <trkpt lat="46.05647" lon="5.60588">
        <ele>843</ele>
        <time>2025-07-12T15:34:57.697Z</time>
      </trkpt>
      <trkpt lat="46.05642" lon="5.60584">
        <ele>843</ele>
        <time>2025-07-12T15:35:01.742Z</time>
      </trkpt>
      <trkpt lat="46.05635" lon="5.60584">
        <ele>843</ele>
        <time>2025-07-12T15:35:06.197Z</time>
      </trkpt>
      <trkpt lat="46.05629" lon="5.60582">
        <ele>843</ele>
        <time>2025-07-12T15:35:10.357Z</time>
      </trkpt>
      <trkpt lat="46.05623" lon="5.6058">
        <ele>843</ele>
        <time>2025-07-12T15:35:15.058Z</time>
      </trkpt>
      <trkpt lat="46.05619" lon="5.6058">
        <ele>843</ele>
        <time>2025-07-12T15:35:19.177Z</time>
      </trkpt>
      <trkpt lat="46.05613" lon="5.60579">
        <ele>843</ele>
        <time>2025-07-12T15:35:23.416Z</time>
      </trkpt>
      <trkpt lat="46.05607" lon="5.60575">
        <ele>843</ele>
        <time>2025-07-12T15:35:27.456Z</time>
      </trkpt>
      <trkpt lat="46.05602" lon="5.60572">
        <ele>843</ele>
        <time>2025-07-12T15:35:31.534Z</time>
      </trkpt>
      <trkpt lat="46.05596" lon="5.6057">
        <ele>842</ele>
        <time>2025-07-12T15:35:35.996Z</time>
      </trkpt>
      <trkpt lat="46.0559" lon="5.60567">
        <ele>842</ele>
        <time>2025-07-12T15:35:40.576Z</time>
      </trkpt>
      <trkpt lat="46.05585" lon="5.60563">
        <ele>842</ele>
        <time>2025-07-12T15:35:44.725Z</time>
      </trkpt>
      <trkpt lat="46.0558" lon="5.60559">
        <ele>842</ele>
        <time>2025-07-12T15:35:48.725Z</time>
      </trkpt>
      <trkpt lat="46.05575" lon="5.60557">
        <ele>842</ele>
        <time>2025-07-12T15:35:52.727Z</time>
      </trkpt>
      <trkpt lat="46.0557" lon="5.60554">
        <ele>842</ele>
        <time>2025-07-12T15:35:57.718Z</time>
      </trkpt>
      <trkpt lat="46.05568" lon="5.60551">
        <ele>842</ele>
        <time>2025-07-12T15:36:02.093Z</time>
      </trkpt>
      <trkpt lat="46.05561" lon="5.60546">
        <ele>842</ele>
        <time>2025-07-12T15:36:06.691Z</time>
      </trkpt>
      <trkpt lat="46.05554" lon="5.60542">
        <ele>842</ele>
        <time>2025-07-12T15:36:11.722Z</time>
      </trkpt>
      <trkpt lat="46.05546" lon="5.6054">
        <ele>841</ele>
        <time>2025-07-12T15:36:15.971Z</time>
      </trkpt>
      <trkpt lat="46.05539" lon="5.60537">
        <ele>842</ele>
        <time>2025-07-12T15:36:20.121Z</time>
      </trkpt>
      <trkpt lat="46.05534" lon="5.60533">
        <ele>842</ele>
        <time>2025-07-12T15:36:24.200Z</time>
      </trkpt>
      <trkpt lat="46.05529" lon="5.60528">
        <ele>842</ele>
        <time>2025-07-12T15:36:28.401Z</time>
      </trkpt>
      <trkpt lat="46.05525" lon="5.60522">
        <ele>842</ele>
        <time>2025-07-12T15:36:32.617Z</time>
      </trkpt>
      <trkpt lat="46.05522" lon="5.60514">
        <ele>842</ele>
        <time>2025-07-12T15:36:36.730Z</time>
      </trkpt>
      <trkpt lat="46.05519" lon="5.60506">
        <ele>841</ele>
        <time>2025-07-12T15:36:41.477Z</time>
      </trkpt>
      <trkpt lat="46.05514" lon="5.605">
        <ele>841</ele>
        <time>2025-07-12T15:36:45.616Z</time>
      </trkpt>
      <trkpt lat="46.05512" lon="5.60491">
        <ele>842</ele>
        <time>2025-07-12T15:36:49.675Z</time>
      </trkpt>
      <trkpt lat="46.05509" lon="5.60483">
        <ele>841</ele>
        <time>2025-07-12T15:36:53.718Z</time>
      </trkpt>
      <trkpt lat="46.05508" lon="5.60475">
        <ele>841</ele>
        <time>2025-07-12T15:36:58.215Z</time>
      </trkpt>
      <trkpt lat="46.05508" lon="5.60464">
        <ele>841</ele>
        <time>2025-07-12T15:37:02.435Z</time>
      </trkpt>
      <trkpt lat="46.05509" lon="5.60452">
        <ele>840</ele>
        <time>2025-07-12T15:38:57.686Z</time>
      </trkpt>
      <trkpt lat="46.05508" lon="5.6045">
        <ele>840</ele>
        <time>2025-07-12T15:39:02.674Z</time>
      </trkpt>
      <trkpt lat="46.05507" lon="5.60446">
        <ele>840</ele>
        <time>2025-07-12T15:39:06.725Z</time>
      </trkpt>
      <trkpt lat="46.05505" lon="5.60444">
        <ele>840</ele>
        <time>2025-07-12T15:39:11.727Z</time>
      </trkpt>
      <trkpt lat="46.05503" lon="5.6044">
        <ele>840</ele>
        <time>2025-07-12T15:39:15.725Z</time>
      </trkpt>
      <trkpt lat="46.05501" lon="5.60432">
        <ele>840</ele>
        <time>2025-07-12T15:39:20.723Z</time>
      </trkpt>
      <trkpt lat="46.055" lon="5.60425">
        <ele>840</ele>
        <time>2025-07-12T15:39:24.726Z</time>
      </trkpt>
      <trkpt lat="46.055" lon="5.60417">
        <ele>840</ele>
        <time>2025-07-12T15:39:29.728Z</time>
      </trkpt>
      <trkpt lat="46.055" lon="5.60411">
        <ele>840</ele>
        <time>2025-07-12T15:39:34.031Z</time>
      </trkpt>
      <trkpt lat="46.05498" lon="5.60403">
        <ele>840</ele>
        <time>2025-07-12T15:39:38.413Z</time>
      </trkpt>
      <trkpt lat="46.05497" lon="5.60395">
        <ele>839</ele>
        <time>2025-07-12T15:39:42.872Z</time>
      </trkpt>
      <trkpt lat="46.05495" lon="5.60387">
        <ele>839</ele>
        <time>2025-07-12T15:39:47.173Z</time>
      </trkpt>
      <trkpt lat="46.05494" lon="5.6038">
        <ele>839</ele>
        <time>2025-07-12T15:39:51.729Z</time>
      </trkpt>
      <trkpt lat="46.05494" lon="5.60372">
        <ele>839</ele>
        <time>2025-07-12T15:39:56.040Z</time>
      </trkpt>
      <trkpt lat="46.05493" lon="5.60364">
        <ele>839</ele>
        <time>2025-07-12T15:40:00.401Z</time>
      </trkpt>
      <trkpt lat="46.05494" lon="5.60356">
        <ele>839</ele>
        <time>2025-07-12T15:40:05.143Z</time>
      </trkpt>
      <trkpt lat="46.05491" lon="5.6035">
        <ele>839</ele>
        <time>2025-07-12T15:40:09.340Z</time>
      </trkpt>
      <trkpt lat="46.05486" lon="5.60345">
        <ele>839</ele>
        <time>2025-07-12T15:40:13.717Z</time>
      </trkpt>
      <trkpt lat="46.05483" lon="5.60338">
        <ele>840</ele>
        <time>2025-07-12T15:40:18.116Z</time>
      </trkpt>
      <trkpt lat="46.05481" lon="5.60331">
        <ele>840</ele>
        <time>2025-07-12T15:40:22.516Z</time>
      </trkpt>
      <trkpt lat="46.05479" lon="5.60324">
        <ele>840</ele>
        <time>2025-07-12T15:40:26.955Z</time>
      </trkpt>
      <trkpt lat="46.05477" lon="5.60317">
        <ele>841</ele>
        <time>2025-07-12T15:40:31.376Z</time>
      </trkpt>
      <trkpt lat="46.05473" lon="5.60311">
        <ele>841</ele>
        <time>2025-07-12T15:40:35.916Z</time>
      </trkpt>
      <trkpt lat="46.0547" lon="5.60307">
        <ele>841</ele>
        <time>2025-07-12T15:40:40.356Z</time>
      </trkpt>
      <trkpt lat="46.05469" lon="5.60305">
        <ele>841</ele>
        <time>2025-07-12T15:40:44.728Z</time>
      </trkpt>
      <trkpt lat="46.05465" lon="5.60299">
        <ele>841</ele>
        <time>2025-07-12T15:40:49.295Z</time>
      </trkpt>
      <trkpt lat="46.05462" lon="5.60294">
        <ele>841</ele>
        <time>2025-07-12T15:40:53.453Z</time>
      </trkpt>
      <trkpt lat="46.05461" lon="5.60288">
        <ele>842</ele>
        <time>2025-07-12T15:40:57.691Z</time>
      </trkpt>
      <trkpt lat="46.0546" lon="5.60285">
        <ele>842</ele>
        <time>2025-07-12T15:41:01.732Z</time>
      </trkpt>
      <trkpt lat="46.05459" lon="5.60285">
        <ele>842</ele>
        <time>2025-07-12T15:41:05.877Z</time>
      </trkpt>
      <trkpt lat="46.05457" lon="5.60277">
        <ele>842</ele>
        <time>2025-07-12T15:41:10.744Z</time>
      </trkpt>
      <trkpt lat="46.0545" lon="5.60272">
        <ele>842</ele>
        <time>2025-07-12T15:41:14.995Z</time>
      </trkpt>
      <trkpt lat="46.05442" lon="5.60269">
        <ele>842</ele>
        <time>2025-07-12T15:41:19.315Z</time>
      </trkpt>
      <trkpt lat="46.05436" lon="5.60266">
        <ele>842</ele>
        <time>2025-07-12T15:41:23.533Z</time>
      </trkpt>
      <trkpt lat="46.0543" lon="5.60264">
        <ele>841</ele>
        <time>2025-07-12T15:41:27.721Z</time>
      </trkpt>
      <trkpt lat="46.05424" lon="5.60262">
        <ele>841</ele>
        <time>2025-07-12T15:41:31.721Z</time>
      </trkpt>
      <trkpt lat="46.05417" lon="5.6026">
        <ele>841</ele>
        <time>2025-07-12T15:41:36.730Z</time>
      </trkpt>
      <trkpt lat="46.05411" lon="5.60259">
        <ele>841</ele>
        <time>2025-07-12T15:41:40.955Z</time>
      </trkpt>
      <trkpt lat="46.05406" lon="5.60258">
        <ele>841</ele>
        <time>2025-07-12T15:41:45.315Z</time>
      </trkpt>
      <trkpt lat="46.05401" lon="5.60257">
        <ele>840</ele>
        <time>2025-07-12T15:41:49.736Z</time>
      </trkpt>
      <trkpt lat="46.05396" lon="5.60255">
        <ele>840</ele>
        <time>2025-07-12T15:41:53.727Z</time>
      </trkpt>
      <trkpt lat="46.05391" lon="5.60254">
        <ele>840</ele>
        <time>2025-07-12T15:41:58.491Z</time>
      </trkpt>
      <trkpt lat="46.05386" lon="5.60248">
        <ele>840</ele>
        <time>2025-07-12T15:42:03.031Z</time>
      </trkpt>
      <trkpt lat="46.05382" lon="5.60244">
        <ele>840</ele>
        <time>2025-07-12T15:42:07.698Z</time>
      </trkpt>
      <trkpt lat="46.05377" lon="5.60242">
        <ele>840</ele>
        <time>2025-07-12T15:42:11.699Z</time>
      </trkpt>
      <trkpt lat="46.05371" lon="5.60243">
        <ele>838</ele>
        <time>2025-07-12T15:42:15.724Z</time>
      </trkpt>
      <trkpt lat="46.05366" lon="5.60247">
        <ele>838</ele>
        <time>2025-07-12T15:42:19.939Z</time>
      </trkpt>
      <trkpt lat="46.05361" lon="5.60249">
        <ele>838</ele>
        <time>2025-07-12T15:42:24.500Z</time>
      </trkpt>
      <trkpt lat="46.0536" lon="5.60247">
        <ele>838</ele>
        <time>2025-07-12T15:42:28.579Z</time>
      </trkpt>
      <trkpt lat="46.05359" lon="5.60244">
        <ele>838</ele>
        <time>2025-07-12T15:43:03.681Z</time>
      </trkpt>
      <trkpt lat="46.05359" lon="5.60244">
        <ele>838</ele>
        <time>2025-07-12T15:43:09.677Z</time>
      </trkpt>
      <trkpt lat="46.05363" lon="5.60237">
        <ele>838</ele>
        <time>2025-07-12T15:43:13.715Z</time>
      </trkpt>
      <trkpt lat="46.05365" lon="5.60233">
        <ele>838</ele>
        <time>2025-07-12T15:43:17.725Z</time>
      </trkpt>
      <trkpt lat="46.05366" lon="5.60234">
        <ele>838</ele>
        <time>2025-07-12T15:43:22.715Z</time>
      </trkpt>
      <trkpt lat="46.05367" lon="5.60234">
        <ele>838</ele>
        <time>2025-07-12T15:51:41.279Z</time>
      </trkpt>
      <trkpt lat="46.05366" lon="5.60234">
        <ele>838</ele>
        <time>2025-07-12T15:51:45.297Z</time>
      </trkpt>
      <trkpt lat="46.05359" lon="5.60236">
        <ele>838</ele>
        <time>2025-07-12T15:51:49.345Z</time>
      </trkpt>
      <trkpt lat="46.05354" lon="5.60239">
        <ele>838</ele>
        <time>2025-07-12T15:51:53.715Z</time>
      </trkpt>
      <trkpt lat="46.05346" lon="5.60242">
        <ele>838</ele>
        <time>2025-07-12T15:51:58.709Z</time>
      </trkpt>
    </trkseg>
  </trk>
</gpx>